GFSNGP_prec_cloud_006.txt.gz
Cloud_Cover
6 6 46 26 5 6 5 27 44 42 5 5 68 100 98 98 83 51 100 100 100 85 20 75 86 97 100 94 99 87 91 86 86 93 42 98 100 98 100 100 100 100 100 100
100 66 89 78 14 71 8 5 100 87 43 100 98 100 83 36 41 10 63 65 64 48 100 97 100 100 100 77 88 96 78 85 98 100 100 100 100 100 100 100 100 100 100 59
100 100 100 85 57 100 100 100 92 39 12 5 16 18 5 60 91 6 97 33 92 79 95 77 76 84 100 100 94 100 100 100 100 100 100 100 100 100 100 100 100 100 41 3
100 100 99 67 74 64 7 13 5 52 5 73 9 6 9 91 8 8 50 86 18 73 77 100 100 100 100 90 100 100 100 100 100 100 100 100 100 100 100 100 100 12 2 0
100 50 48 82 97 69 51 5 37 91 52 100 82 6 40 86 72 100 96 99 94 82 51 16 71 50 100 100 100 100 100 100 100 100 100 100 100 100 100 95 6 0 2 0
100 96 97 100 10 7 78 52 100 100 91 100 86 100 100 78 85 74 80 100 100 100 100 100 100 100 100 60 77 92 100 100 100 100 100 100 100 100 76 4 0 0 0 31
100 100 100 53 55 88 100 100 90 94 100 100 99 100 100 100 100 100 100 100 100 100 100 100 100 99 96 96 89 97 63 97 100 100 100 100 100 40 5 1 0 5 92 16
100 99 74 99 100 100 99 100 100 100 100 100 100 100 100 100 100 98 98 100 100 97 72 100 97 94 100 100 93 91 100 97 100 100 100 100 27 7 0 2 8 30 5 33
30 30 5 7 100 100 100 99 50 100 94 100 100 88 76 94 100 100 100 100 96 100 100 100 100 100 100 100 100 98 100 100 100 100 79 39 5 0 5 5 5 9 100 97
62 92 64 98 86 92 99 93 98 100 86 36 100 90 93 37 76 87 82 76 100 100 100 100 96 99 100 100 100 100 100 100 100 88 62 22 2 5 5 10 8 86 93 100
42 5 10 18 24 100 100 100 100 97 10 69 100 100 97 84 46 38 100 89 93 99 100 100 94 100 84 100 100 100 100 97 57 54 5 4 5 40 78 85 54 100 100 100
18 19 80 4 5 77 87 100 88 72 98 84 100 97 43 6 10 100 92 100 99 100 100 100 100 80 99 100 100 100 93 10 6 5 5 30 10 5 22 5 82 100 100 100
8 59 5 53 100 87 96 90 100 100 100 88 5 5 5 98 100 7 94 100 100 100 100 100 100 100 100 100 100 82 20 16 5 5 18 5 76 5 5 13 5 78 100 100
28 96 100 100 100 99 100 99 100 100 100 39 55 30 63 92 100 100 98 100 100 100 100 100 100 100 100 100 87 44 91 58 46 5 5 36 15 91 84 91 82 100 100 100
100 100 100 100 100 100 100 100 100 98 40 52 38 100 100 100 100 100 100 100 100 100 100 100 100 100 99 100 78 50 5 27 61 8 5 45 96 97 86 46 100 100 100 100
100 100 100 79 95 100 93 65 77 72 97 79 100 76 15 76 100 100 100 100 100 100 100 100 100 100 100 96 10 29 88 99 80 30 49 85 92 84 87 92 100 100 100 100
82 99 100 100 100 100 99 100 97 11 4 5 5 19 5 64 100 100 100 100 100 100 100 100 100 100 81 10 84 100 100 97 100 98 99 94 95 58 99 98 100 100 100 100
98 100 99 97 100 94 80 4 0 17 23 5 8 63 8 100 100 100 86 100 100 100 100 100 99 37 5 24 22 70 96 100 98 92 97 97 100 100 100 100 100 100 100 100
100 100 100 100 92 9 1 4 5 30 96 91 53 86 93 100 100 94 98 100 100 91 99 100 32 16 66 93 91 62 99 91 100 90 98 84 97 98 100 100 100 100 100 100
5 0 0 0 0 4 18 94 100 97 100 100 98 92 100 100 81 87 100 97 97 100 95 100 100 100 90 73 86 80 99 71 94 100 99 100 100 100 100 100 100 100 100 100
0 0 0 0 4 12 99 100 88 97 100 100 99 100 100 93 96 100 100 100 100 100 99 96 96 100 100 100 90 96 96 95 96 98 100 100 100 100 100 100 100 100 100 100
0 0 2 3 73 46 30 87 97 100 100 100 100 100 98 100 100 100 99 96 100 100 100 100 100 100 99 100 95 96 99 100 92 98 100 100 97 100 100 100 100 100 100 100
0 4 5 5 77 56 76 100 100 100 100 100 100 100 100 100 100 100 96 74 100 100 100 100 100 100 97 92 86 100 100 100 100 100 100 100 98 94 100 100 100 100 100 100
5 5 5 5 87 100 100 100 100 100 100 100 100 100 100 100 100 78 79 100 100 100 100 100 100 97 100 100 100 100 100 100 100 100 100 100 99 100 100 100 100 100 100 100
5 7 25 89 100 100 100 100 100 100 100 100 100 100 100 100 98 73 100 100 100 100 100 100 100 99 100 100 100 100 100 96 100 100 100 100 100 100 100 100 100 100 100 100
64 8 35 99 100 100 100 100 100 100 100 100 100 100 100 98 58 43 36 99 100 100 100 100 100 100 100 100 100 100 100 100 96 100 100 100 100 69 97 100 100 100 100 100
14 84 100 100 100 100 100 100 100 100 100 100 100 93 100 96 67 87 74 97 100 100 100 100 100 100 100 100 100 100 99 94 100 100 100 100 100 100 98 100 100 100 100 100

GFSNGP_prec_cloud_009.txt.gz
Cloud_Cover
41 35 79 100 94 89 93 99 11 16 8 30 68 99 100 100 92 70 100 100 100 100 100 100 99 100 100 100 100 88 96 100 63 54 9 7 69 82 98 98 72 95 94 79
100 100 51 98 100 96 5 5 7 9 74 100 86 100 66 91 100 100 100 100 99 68 10 13 69 61 97 98 30 56 100 100 100 100 95 100 100 100 100 100 84 88 94 100
74 66 73 99 100 100 100 100 75 57 47 70 38 76 53 43 98 88 73 52 81 52 68 43 60 94 13 51 91 33 100 100 100 100 100 100 100 100 100 100 100 100 100 100
93 100 100 8 2 2 5 5 36 5 5 26 21 32 100 100 97 91 12 5 5 8 39 64 45 9 24 12 96 100 100 98 100 100 100 100 100 100 100 100 100 100 100 20
88 100 48 10 4 5 28 82 24 62 5 100 88 31 8 12 92 89 99 5 10 5 14 8 58 50 31 60 80 69 13 75 59 74 100 100 100 100 100 100 100 100 9 0
100 91 87 84 5 6 8 84 86 100 82 36 100 100 43 100 73 37 72 82 30 5 5 29 100 32 100 100 88 59 100 100 100 83 91 100 100 100 86 82 88 5 1 5
100 82 91 16 64 5 5 35 30 98 100 89 100 98 99 100 53 22 71 100 96 30 93 97 61 87 100 81 66 100 100 97 100 99 99 100 99 30 42 59 5 5 5 5
77 96 63 18 12 18 7 9 96 6 75 95 94 93 100 100 82 38 52 70 100 29 29 89 76 98 100 94 89 99 100 95 100 100 100 100 92 51 8 4 5 5 5 5
29 5 5 44 92 5 94 97 33 85 100 100 100 100 100 100 99 19 95 13 5 8 74 100 100 100 100 100 100 100 100 100 100 100 100 100 31 5 5 5 5 35 5 5
31 6 5 8 8 40 10 31 79 100 100 100 100 100 100 100 99 100 97 76 57 94 57 72 94 99 100 100 100 100 100 100 100 100 100 34 5 5 5 49 96 8 9 87
54 29 9 5 5 47 45 97 100 94 69 50 100 100 100 99 100 100 100 51 68 46 94 97 96 97 72 100 100 100 100 100 100 100 10 5 5 5 5 10 39 100 100 100
57 5 74 6 94 100 100 100 100 99 100 100 90 100 100 100 99 95 98 100 100 100 100 100 100 81 84 98 100 100 100 97 74 8 5 5 5 5 5 24 89 89 100 100
96 39 30 52 26 100 100 100 100 100 100 100 100 100 100 98 100 100 100 92 62 79 100 100 100 100 100 100 100 100 46 96 55 5 5 5 5 56 93 14 8 30 100 100
71 98 100 100 100 100 100 100 97 38 99 99 74 81 100 100 100 100 100 84 72 100 100 100 100 100 100 100 99 95 75 56 38 9 66 15 62 100 96 87 34 15 91 100
100 100 100 99 97 99 100 100 100 100 98 91 100 100 100 26 5 5 16 60 57 98 100 100 100 100 100 100 98 27 74 91 100 100 100 78 100 100 50 30 16 72 96 100
100 100 99 100 100 100 100 53 100 100 100 100 100 96 7 5 9 18 79 73 99 100 100 100 100 100 99 46 7 63 91 100 98 100 100 100 100 100 12 57 59 93 100 100
77 100 100 100 97 100 100 100 100 98 4 5 7 87 89 85 100 96 100 100 100 100 100 100 100 54 21 5 7 5 73 100 100 100 98 100 100 67 87 67 74 95 100 100
100 80 100 100 100 99 53 78 7 4 5 18 84 100 100 98 100 91 100 100 100 100 99 54 65 41 100 100 100 93 45 100 100 98 100 100 70 100 81 98 66 100 100 100
100 100 98 90 100 96 52 21 7 24 95 100 93 100 98 100 97 100 100 100 100 92 90 96 98 100 100 95 63 60 25 98 99 95 100 100 99 87 87 100 72 100 100 100
98 100 100 100 32 4 2 1 21 78 100 98 100 100 100 99 100 100 100 100 100 94 97 74 99 98 100 99 78 62 59 98 94 98 100 100 99 99 96 98 91 99 100 100
93 11 5 1 0 4 5 5 96 98 86 87 100 100 100 100 100 100 100 100 92 100 100 100 100 100 87 65 100 100 93 100 99 93 94 100 100 100 83 99 91 100 100 100
6 0 0 0 0 12 26 10 29 52 77 96 100 100 100 100 100 100 100 100 100 100 100 100 100 100 100 96 98 99 100 100 100 89 100 100 100 97 64 100 95 100 100 100
0 0 0 0 3 5 82 100 100 100 100 100 100 100 100 100 100 100 100 99 100 100 100 100 100 100 100 100 100 100 100 100 100 100 86 100 100 99 63 98 97 100 100 100
0 0 0 3 93 76 93 56 100 100 100 100 100 100 100 100 100 100 100 100 100 100 100 100 100 100 100 100 100 100 100 100 97 98 97 92 100 100 70 98 99 100 100 100
0 3 5 14 31 100 100 100 100 100 100 100 100 100 100 100 100 86 74 90 100 100 100 100 100 100 100 100 100 100 99 96 92 96 100 100 100 100 81 100 100 100 100 100
5 5 15 44 100 100 100 100 100 100 100 100 100 100 100 100 100 100 100 99 96 100 100 100 100 100 100 100 100 100 97 82 79 88 87 100 100 100 100 100 100 100 100 100
5 74 99 100 100 100 100 100 100 100 100 100 100 100 100 100 100 100 100 100 100 100 100 100 100 100 100 100 100 100 100 90 79 76 72 90 100 100 100 100 100 100 100 100

GFSNGP_prec_cloud_012.txt.gz
Cloud_Cover
7 6 5 82 5 5 5 6 43 5 5 39 44 26 54 81 70 100 100 81 33 68 67 96 11 5 5 4 41 92 5 24 87 88 99 100 100 90 97 98 100 98 98 78
98 5 5 42 5 6 6 21 9 82 100 89 100 97 100 94 99 21 100 100 100 99 44 8 72 36 29 6 11 5 51 100 100 100 100 100 100 100 100 100 100 100 100 100
76 32 22 100 90 94 84 98 56 69 41 7 14 67 100 95 69 18 28 60 68 8 5 5 5 5 5 5 13 9 100 100 100 100 100 100 100 100 100 100 100 100 100 100
68 100 86 99 5 5 5 5 5 5 5 7 20 86 98 71 99 50 41 25 5 30 32 25 21 8 5 100 48 5 32 21 10 5 85 100 100 100 100 100 100 100 100 100
54 91 49 98 5 6 37 6 35 60 5 5 5 5 17 99 99 100 100 96 94 100 100 100 90 82 58 87 98 90 100 27 48 94 82 100 100 100 100 100 100 100 98 45
91 89 98 5 4 5 5 8 5 1 5 5 12 71 71 100 100 100 100 100 100 99 87 100 100 36 100 100 100 91 13 63 79 97 97 74 68 90 100 100 86 53 5 5
97 74 7 5 5 20 48 46 24 5 25 19 84 100 96 100 89 99 100 100 100 100 95 100 30 100 93 96 100 91 83 98 100 100 100 100 100 100 100 62 38 5 5 5
73 98 68 43 100 100 80 56 75 5 67 100 100 99 100 100 98 65 65 50 38 34 12 43 100 100 100 100 100 97 100 100 100 100 100 100 100 100 75 58 25 5 8 5
6 8 6 100 96 33 78 75 5 21 43 55 100 100 78 74 41 86 99 87 96 83 97 99 65 66 66 100 96 85 91 100 100 100 100 100 100 100 66 9 5 5 24 5
89 53 5 63 92 78 72 43 100 100 100 100 100 100 100 100 100 100 100 100 94 97 100 98 99 98 100 100 100 90 93 96 100 100 100 100 92 27 5 5 5 5 5 67
56 39 11 30 90 97 100 100 100 100 100 96 80 49 100 99 100 98 97 53 100 86 93 100 100 97 99 100 100 100 100 100 100 98 74 28 5 5 5 5 44 75 21 100
49 89 99 42 100 100 100 100 100 100 100 100 100 100 100 99 88 99 100 98 98 99 100 99 99 100 100 100 100 89 95 88 84 24 5 5 5 5 5 5 5 5 76 99
100 100 100 100 100 100 100 100 100 100 100 100 100 100 100 100 100 100 98 23 68 96 100 79 98 100 100 100 100 100 100 90 72 83 66 89 53 6 82 5 5 5 56 90
100 96 66 100 99 91 100 98 100 100 100 100 100 100 100 100 100 77 5 21 76 100 100 100 86 97 83 100 99 63 34 7 82 99 96 100 95 66 69 70 80 55 13 92
100 98 100 100 100 100 100 100 97 100 100 100 100 100 100 100 47 8 5 31 77 88 92 83 98 99 100 65 11 5 5 81 87 100 99 99 95 100 83 69 65 88 73 72
100 100 86 100 100 99 100 100 100 100 100 100 100 70 19 74 67 48 51 65 100 100 100 100 100 100 79 20 26 10 67 98 99 96 94 100 99 74 93 72 73 95 93 98
26 77 100 100 100 92 100 97 100 100 100 100 11 5 48 98 94 70 100 98 100 97 91 100 100 100 94 90 78 95 96 100 100 100 75 99 99 73 76 83 94 100 83 100
100 100 99 95 91 7 40 98 100 100 100 14 73 86 100 100 98 100 100 100 100 100 100 100 100 94 85 91 98 87 85 88 97 75 78 78 98 78 94 80 95 100 86 100
62 62 100 100 100 100 97 59 71 25 31 58 98 100 88 100 100 100 98 100 100 100 100 100 92 89 100 99 99 100 97 94 86 88 92 100 79 71 87 100 100 86 100 100
100 100 100 97 52 15 2 5 5 7 17 89 100 94 100 100 100 100 100 100 100 100 100 100 100 100 83 71 96 94 100 100 99 90 87 88 95 98 76 99 93 93 100 100
98 52 20 5 2 0 0 0 16 99 100 100 95 96 100 100 100 100 100 100 100 100 100 100 100 100 100 100 95 95 100 100 100 88 88 99 91 100 89 99 81 98 100 100
42 11 2 0 0 0 0 5 64 100 100 100 100 100 100 100 100 100 100 100 100 100 100 100 100 100 100 100 100 100 100 100 100 90 84 88 81 98 79 97 86 100 100 100
4 0 0 0 2 4 5 12 95 98 100 100 100 100 100 100 100 100 100 100 100 100 100 100 100 100 100 100 100 100 100 100 99 86 85 84 66 82 89 96 79 100 100 100
0 0 0 4 5 70 91 11 100 100 100 100 100 100 100 100 100 100 100 100 100 100 100 100 100 100 100 100 100 100 100 100 100 83 91 90 78 100 89 74 95 100 100 100
2 5 5 5 7 5 84 85 67 81 99 100 100 100 100 100 100 100 100 100 100 100 100 100 100 100 100 100 100 100 100 99 95 90 95 98 93 77 100 79 60 64 100 100
5 5 45 81 87 46 93 97 100 100 100 100 100 100 100 100 100 100 100 97 100 100 100 100 100 100 100 100 100 100 100 99 88 100 95 84 74 64 86 100 100 92 87 100
5 7 80 100 63 85 100 100 100 100 100 100 100 100 100 100 100 100 100 100 100 100 100 100 100 100 100 98 100 100 100 97 85 87 100 92 84 73 69 100 100 100 100 100

GFSNGP_prec_cloud_015.txt.gz
Cloud_Cover
6 5 14 7 5 5 5 5 97 9 5 5 6 15 67 76 87 94 95 33 7 31 60 79 6 10 90 73 12 48 100 100 100 100 100 100 98 100 100 100 100 100 100 100
5 5 5 6 5 5 5 5 5 22 44 73 81 19 89 100 100 78 71 88 84 100 78 38 9 82 54 80 99 8 73 79 100 100 100 100 100 100 100 100 100 100 100 100
27 40 33 97 47 5 28 37 42 77 12 5 6 21 5 5 5 5 10 65 95 100 100 100 100 100 100 100 98 7 65 19 13 81 61 100 100 100 100 100 100 100 100 100
41 95 98 100 36 96 62 95 5 5 5 5 5 5 5 5 5 49 99 100 100 94 54 100 100 60 97 100 76 68 80 94 100 98 100 100 100 100 100 100 100 100 100 100
95 94 99 96 5 5 5 96 5 5 38 28 5 5 5 52 95 100 74 43 100 77 100 100 87 50 63 94 99 100 100 96 89 57 79 100 100 100 100 100 100 100 100 100
85 97 98 9 5 5 5 5 8 29 57 84 66 32 36 62 88 100 99 91 89 98 24 70 77 30 93 75 77 100 98 100 100 88 100 100 100 100 100 100 100 100 100 100
98 100 46 8 5 5 24 74 86 89 100 76 99 96 100 95 90 100 100 100 100 88 53 5 49 100 99 100 100 99 84 99 100 92 76 90 94 100 100 100 94 93 96 88
99 100 48 23 59 79 78 99 98 86 13 81 100 69 90 100 99 96 97 84 23 45 36 69 100 99 99 50 81 89 100 90 68 76 85 80 100 100 74 24 33 29 56 18
92 66 96 100 100 86 98 96 7 90 99 100 100 83 100 100 99 100 100 8 66 99 100 100 95 100 100 100 99 100 96 88 91 68 61 98 59 5 5 5 6 5 41 10
96 74 100 66 61 100 99 100 99 100 98 100 100 100 100 100 100 35 92 76 71 95 68 22 98 100 100 94 100 100 100 100 100 100 89 17 5 5 5 5 27 6 5 60
100 66 38 82 100 100 100 100 100 99 100 100 100 100 100 100 88 37 100 93 73 60 9 60 56 53 46 66 91 90 100 97 49 5 5 5 5 5 5 5 60 63 16 94
99 69 100 100 100 100 100 100 100 100 100 100 100 100 100 100 100 81 99 100 98 5 5 5 5 5 5 12 72 58 10 5 6 11 12 12 6 5 69 22 5 5 5 99
100 100 100 100 100 100 100 100 100 100 100 100 100 100 100 100 100 100 98 57 5 5 5 5 5 5 5 5 5 5 5 5 5 19 71 68 33 23 77 7 5 5 5 93
100 100 100 100 100 100 100 100 87 96 100 100 100 100 100 100 95 5 25 94 14 14 6 5 5 5 5 5 5 36 53 28 82 79 59 66 71 90 85 85 93 98 79 93
100 100 100 100 100 100 100 98 89 100 100 100 100 99 82 93 41 63 97 100 87 98 59 5 13 15 17 5 5 20 9 9 43 77 79 73 81 94 75 81 74 87 96 88
100 100 98 94 100 80 100 100 100 94 94 100 100 100 100 99 34 100 100 100 100 100 100 70 73 94 73 80 97 79 77 81 88 95 89 92 82 86 71 83 74 98 100 94
100 100 100 100 100 99 91 100 98 82 60 77 99 91 19 5 5 44 100 95 100 98 86 100 100 100 91 15 88 98 96 94 100 99 96 91 66 76 83 92 100 100 99 83
81 100 99 94 52 11 5 19 95 100 100 92 78 100 100 100 100 100 96 100 95 86 97 100 100 97 54 88 99 100 87 84 84 91 86 95 75 89 98 91 97 100 98 95
84 81 99 100 100 100 99 80 35 8 5 5 97 93 96 100 99 100 100 100 99 80 95 100 100 100 99 97 98 100 93 100 100 90 83 90 85 90 91 100 96 100 98 100
100 100 100 99 8 5 3 5 1 2 5 100 100 100 99 100 96 99 100 100 100 100 100 100 100 100 100 100 100 98 98 100 100 96 85 93 95 100 99 100 94 95 100 100
100 91 15 5 0 4 1 3 5 5 5 93 100 100 100 100 100 100 100 100 100 100 100 100 100 100 100 100 100 100 100 100 100 97 89 90 85 96 100 100 99 92 90 100
12 4 0 0 0 0 4 5 5 5 89 100 100 100 100 100 100 100 100 100 100 100 100 100 100 100 100 100 100 100 100 100 100 97 80 82 91 99 90 84 99 90 99 100
0 0 0 5 5 5 5 5 5 16 81 100 99 96 99 100 100 100 100 100 100 100 100 100 100 100 100 100 100 100 100 100 100 91 83 75 83 100 96 70 96 96 98 100
0 0 5 5 5 5 5 5 5 8 90 100 100 100 100 100 100 100 100 100 100 100 100 100 100 100 100 100 100 100 100 100 100 88 83 76 74 99 100 89 98 72 93 100
2 5 5 5 19 74 82 87 82 99 100 100 98 98 100 100 100 100 100 100 100 100 100 100 100 100 100 100 100 100 100 100 99 82 90 82 69 80 86 81 81 62 69 98
5 5 5 26 32 51 92 100 100 100 100 94 96 99 100 98 99 100 100 100 100 100 100 100 100 100 100 100 98 82 96 100 99 94 87 88 89 83 77 86 85 56 95 94
5 29 96 66 88 42 100 100 100 100 92 98 84 97 76 98 100 100 100 100 100 100 100 100 100 100 100 100 100 91 86 99 89 87 78 73 88 94 95 90 94 88 100 100

GFSNGP_prec_cloud_018.txt.gz
Cloud_Cover
4 5 14 46 5 5 18 6 92 31 11 55 30 37 45 46 52 23 19 89 100 79 99 97 97 100 100 100 28 6 64 98 99 98 96 100 100 84 100 100 100 98 100 100
5 5 5 91 5 5 5 5 5 6 5 5 5 15 9 5 78 100 100 99 51 100 94 55 82 70 77 54 48 5 66 74 96 50 93 5 62 100 100 100 100 100 100 100
48 10 31 19 5 5 5 6 5 5 5 5 5 5 38 100 97 52 21 65 98 44 41 95 100 100 97 100 99 6 73 59 100 90 100 100 95 94 63 88 100 100 100 100
87 18 93 100 6 5 5 17 5 5 5 5 14 72 87 16 49 77 83 67 49 75 54 55 63 99 100 97 17 8 55 96 100 100 100 99 97 99 100 100 100 95 100 100
100 94 24 94 54 5 5 79 5 5 12 46 78 37 86 98 65 100 78 86 95 100 100 94 53 70 89 94 98 94 69 11 59 71 82 100 100 100 100 100 100 100 100 100
95 100 100 98 5 5 5 5 37 70 99 100 47 95 64 100 100 100 75 74 100 100 98 62 17 37 74 89 41 61 65 78 62 37 30 31 41 64 81 86 76 96 82 51
100 100 56 22 7 93 100 100 100 88 99 100 99 100 100 100 100 100 87 100 98 100 100 63 43 98 100 56 100 92 82 99 81 88 99 87 76 32 10 44 31 5 8 26
69 100 64 6 97 81 100 67 68 19 99 74 100 100 100 100 100 100 100 99 100 100 99 98 99 74 74 89 100 96 89 100 100 99 38 6 5 5 5 5 5 5 5 5
75 18 48 49 66 99 100 84 99 100 98 100 100 100 100 99 100 100 100 100 82 44 100 100 94 85 3 5 10 44 83 92 65 6 5 5 5 5 5 5 31 39 78 27
96 100 100 100 100 95 43 94 100 100 100 100 100 100 100 100 80 100 99 44 100 100 100 100 47 4 1 5 5 5 8 5 5 5 5 5 5 5 5 15 67 85 64 96
62 79 52 100 76 78 100 100 100 100 100 100 100 100 100 98 90 97 100 100 100 100 59 5 5 5 5 5 5 5 5 5 5 5 5 5 28 14 5 5 68 91 21 82
61 86 100 95 100 100 100 100 100 100 100 100 100 85 85 92 100 100 100 100 100 100 100 5 5 5 5 5 5 5 5 5 7 9 17 58 33 5 15 9 5 27 5 63
100 87 100 100 99 100 100 100 100 100 100 66 21 100 100 100 100 100 100 86 16 89 9 5 5 5 5 6 6 6 50 6 40 28 44 60 60 96 98 5 47 6 5 67
100 100 100 100 100 100 98 53 47 98 100 100 93 87 99 100 100 100 58 22 95 100 94 40 7 5 5 5 17 59 74 72 72 76 82 82 91 90 94 93 100 100 95 95
100 100 100 86 82 82 97 92 57 64 85 93 100 100 95 56 60 5 34 67 100 100 100 100 20 16 5 34 88 97 99 70 66 94 96 83 97 66 72 85 90 76 88 96
54 36 75 99 100 99 97 100 86 56 65 56 30 30 64 28 27 23 11 96 98 100 100 89 99 42 48 97 98 91 94 74 38 83 94 84 92 74 68 84 86 91 83 100
100 100 100 100 100 99 100 38 5 14 14 44 25 8 99 100 100 100 96 100 100 100 100 100 100 92 97 100 100 94 100 78 72 89 80 93 96 95 98 91 86 100 100 100
98 95 100 92 95 24 33 90 77 36 13 4 4 28 50 100 99 66 59 100 99 100 100 100 100 100 100 100 79 97 100 98 100 99 89 94 91 83 93 98 98 99 100 96
52 38 80 84 71 94 73 41 16 5 0 5 7 32 46 100 100 98 100 100 100 100 100 100 100 100 100 100 100 100 100 99 100 91 87 96 99 86 100 100 93 91 100 98
82 100 98 66 16 6 5 4 0 4 5 5 5 75 100 100 96 100 98 90 100 100 100 100 100 100 100 100 100 100 100 98 99 99 100 100 100 100 100 100 99 91 100 100
5 5 5 4 0 0 5 5 5 5 5 5 44 34 99 81 100 99 99 100 100 100 100 100 100 100 100 100 100 100 100 100 100 100 100 100 100 97 100 100 100 100 98 86
3 5 5 3 5 5 5 5 5 5 57 34 7 81 100 93 100 100 100 100 100 100 100 100 100 100 100 100 100 100 100 100 100 100 98 92 95 94 99 100 100 100 100 79
5 5 3 5 5 5 5 5 5 5 46 96 100 100 100 100 93 98 100 100 100 100 100 100 100 100 100 100 100 100 100 100 100 100 96 84 88 96 95 94 92 100 100 88
0 0 0 5 5 6 10 5 5 62 100 100 100 100 97 72 95 100 97 94 91 95 93 98 100 100 100 100 100 100 100 100 100 98 89 84 90 96 88 97 100 100 99 85
0 0 5 5 41 81 5 5 59 100 97 100 86 33 60 100 92 92 79 92 100 94 73 100 100 100 100 100 100 98 97 100 99 100 98 88 90 94 100 92 95 99 96 78
1 5 5 5 12 25 6 31 100 100 100 100 61 50 81 92 88 92 100 100 100 98 97 100 100 100 100 100 100 100 99 95 89 90 99 93 94 100 94 88 78 97 100 98
5 43 20 53 100 99 86 100 100 100 100 100 50 64 63 98 98 100 100 100 100 100 100 99 98 99 100 100 100 100 100 98 100 93 90 97 98 98 94 87 77 83 100 100

GFSNGP_prec_cloud_021.txt.gz
Cloud_Cover
5 5 5 5 4 5 5 5 17 7 55 47 91 94 79 9 30 64 96 89 56 100 100 100 100 98 100 100 100 100 100 100 28 99 77 47 46 81 96 100 27 82 100 96
5 5 5 5 0 5 4 4 5 5 6 5 5 6 5 5 38 92 93 100 100 97 99 94 19 100 100 100 100 100 81 24 54 100 100 100 100 66 81 94 75 34 84 61
89 27 5 29 2 5 5 5 5 5 5 5 5 12 66 93 64 34 98 100 97 97 78 97 100 100 100 100 100 94 74 30 38 34 56 50 46 87 61 23 5 5 27 38
92 20 7 99 0 4 5 5 22 14 63 33 5 26 87 17 81 58 100 100 95 87 100 100 100 100 96 31 17 5 5 5 8 5 31 5 5 5 5 5 5 5 40 19
92 94 7 25 5 4 5 52 99 98 99 76 78 40 100 100 99 100 100 100 98 100 100 100 97 25 26 100 96 64 22 28 5 60 100 96 99 99 32 5 5 19 50 52
96 100 79 5 5 5 5 5 28 100 35 98 100 100 62 100 100 100 100 100 100 100 100 100 100 77 5 5 13 90 100 100 70 93 100 100 60 2 5 5 5 5 5 5
100 100 27 5 13 53 94 100 100 100 100 100 92 85 100 100 100 100 100 100 97 100 100 81 100 100 55 60 22 6 17 62 40 26 38 5 3 5 5 5 5 5 5 5
98 99 57 9 91 100 99 100 83 100 100 96 90 100 100 100 100 100 93 96 87 97 100 100 100 99 99 73 5 5 3 5 5 5 4 2 5 5 5 5 60 25 67 89
98 35 20 98 100 52 86 59 81 98 100 100 100 100 99 85 100 100 99 100 100 100 100 100 100 100 91 5 5 5 5 5 5 5 5 5 5 5 58 83 99 100 100 100
96 96 13 35 47 47 75 100 100 100 100 100 74 99 86 100 100 100 100 100 100 100 100 100 100 100 95 90 6 5 5 5 5 5 5 11 65 82 98 100 99 100 100 100
27 67 72 100 100 100 100 100 100 100 100 99 100 100 97 94 100 100 100 100 100 100 100 98 20 41 100 100 50 5 25 5 5 5 5 33 21 37 93 99 90 99 100 100
86 74 99 100 100 100 100 100 100 100 93 100 51 27 35 44 100 100 100 100 100 100 38 5 8 96 100 100 69 40 93 5 5 5 5 6 30 87 20 6 5 5 26 94
98 100 100 100 100 100 100 100 100 98 99 34 32 78 54 98 98 100 100 100 51 6 5 5 82 100 100 100 91 100 85 17 82 65 5 62 71 100 100 80 5 5 5 70
90 100 94 100 100 99 92 26 46 100 99 100 100 100 90 100 73 8 5 8 11 31 30 96 94 100 100 100 99 100 100 98 87 81 77 74 94 87 80 98 99 100 21 91
100 100 100 100 69 88 86 94 14 96 100 100 100 51 5 5 5 27 82 62 47 98 61 82 98 100 100 100 100 100 100 84 74 47 89 83 86 86 98 99 100 100 99 97
100 100 100 100 100 100 91 99 95 71 47 30 8 1 1 8 90 98 77 6 59 24 94 100 100 100 100 100 100 100 100 97 100 98 87 84 92 98 100 100 100 100 100 100
76 90 28 9 5 17 79 46 10 4 0 0 0 5 5 5 6 28 7 5 6 66 85 100 100 100 100 100 100 100 100 100 100 100 98 96 97 100 100 100 100 100 100 100
89 27 5 5 5 5 5 5 2 0 2 1 5 5 5 5 5 17 82 57 75 65 89 100 100 100 100 100 100 100 96 90 100 100 96 96 94 99 99 99 100 100 100 99
56 8 5 5 12 8 0 0 1 2 5 5 5 5 6 6 56 78 88 68 100 98 100 100 100 100 100 100 100 100 100 97 100 93 85 76 93 96 94 99 99 100 100 100
54 15 5 5 5 3 4 4 5 5 5 5 5 5 5 5 8 67 96 95 100 86 100 100 99 100 100 100 100 100 100 100 100 100 97 90 99 100 98 53 52 96 100 100
32 5 5 7 5 5 5 5 5 5 5 5 8 71 100 100 100 100 100 94 77 100 100 95 100 100 100 100 100 100 100 100 100 100 94 97 100 100 100 100 81 90 100 100
5 19 7 5 5 5 5 5 5 5 5 8 90 100 100 100 100 100 46 84 92 100 93 97 91 100 98 100 99 98 82 99 96 94 96 99 100 100 100 100 94 94 100 100
40 5 5 5 4 5 5 5 5 5 6 81 100 100 100 100 100 99 62 68 91 91 95 75 42 98 100 100 96 100 100 100 100 82 88 96 99 100 100 100 100 100 100 100
5 5 5 0 5 5 7 5 5 11 64 61 100 100 100 100 47 70 90 91 92 59 52 14 52 100 100 100 100 81 82 84 87 90 100 81 96 97 99 100 100 100 100 91
5 5 0 3 6 5 16 37 80 100 100 100 100 95 57 100 99 80 94 98 100 100 100 96 100 100 83 100 97 66 88 82 89 95 95 89 92 96 97 100 100 99 99 89
5 0 0 5 8 5 48 94 100 100 100 100 95 98 81 100 80 88 100 100 100 100 98 100 90 91 92 100 92 94 82 84 92 93 91 96 93 96 100 100 99 100 95 80
3 41 5 5 5 9 99 100 100 100 100 100 100 100 86 92 95 96 100 98 100 100 100 99 83 84 96 86 94 95 99 69 47 83 95 98 98 99 100 99 99 99 100 69

GFSNGP_prec_cloud_024.txt.gz
Cloud_Cover
4 5 5 5 3 1 5 4 68 5 5 5 5 53 69 45 71 61 55 57 68 93 100 11 73 100 100 100 100 100 100 100 100 100 94 100 100 100 100 100 100 90 54 7
5 5 5 5 2 5 5 5 5 5 6 20 5 46 67 42 50 45 26 85 76 55 55 100 100 100 99 62 99 100 100 31 100 54 56 66 98 93 44 5 5 5 5 5
64 7 11 11 5 5 5 5 5 5 17 5 9 54 61 56 63 99 100 100 100 100 100 100 81 100 100 100 100 91 78 82 100 94 83 70 29 70 24 37 5 5 5 5
78 70 79 4 3 5 5 5 5 5 9 18 5 29 97 76 99 98 100 100 100 100 100 100 100 100 100 67 80 99 41 98 100 99 91 95 14 86 47 5 5 5 5 9
97 48 60 4 5 6 5 51 5 5 5 5 58 100 100 68 100 98 100 100 100 100 100 100 100 68 95 98 10 82 98 100 100 100 74 13 65 5 5 5 5 5 7 78
98 48 65 5 5 31 48 89 84 50 52 90 100 100 100 100 100 100 100 100 100 100 100 91 100 92 28 67 87 99 79 80 13 9 61 20 5 5 5 5 9 89 88 95
100 98 17 25 12 12 59 71 66 70 92 96 100 100 100 100 100 100 97 100 100 94 70 95 92 87 39 10 47 87 62 7 5 73 20 5 5 5 5 68 98 98 98 100
81 100 78 57 100 92 98 89 98 90 100 100 100 100 100 100 100 100 100 100 98 96 97 98 20 5 5 21 99 71 34 5 5 13 5 5 5 5 78 100 100 100 100 98
12 7 98 98 17 80 72 59 70 100 100 100 100 100 100 100 100 100 98 100 100 100 47 5 75 89 85 94 96 12 18 50 45 5 18 81 86 90 100 100 100 100 100 100
18 93 97 98 26 23 68 90 100 100 100 96 98 100 94 8 78 100 100 100 76 4 5 5 80 98 100 100 100 96 98 100 49 19 96 92 85 97 99 100 100 100 100 100
70 20 70 100 77 88 100 100 100 100 85 100 100 73 5 5 68 58 58 5 5 5 5 7 97 100 100 100 100 98 100 100 44 99 99 91 97 96 93 100 86 100 100 100
95 99 100 100 99 100 100 100 100 86 100 100 82 15 5 46 92 96 99 100 98 6 5 5 59 76 94 95 92 100 100 100 99 100 100 100 100 100 100 51 13 15 49 74
96 100 100 100 100 100 92 100 100 92 64 5 56 100 100 90 100 99 10 6 5 5 8 68 91 99 100 100 100 100 100 100 100 100 100 100 100 100 100 100 99 80 41 56
100 90 100 100 98 72 73 52 15 55 94 100 73 5 3 5 5 5 5 5 6 37 88 84 88 100 100 100 100 100 100 100 100 100 100 100 100 100 100 100 100 100 100 62
100 100 99 34 69 94 53 5 5 5 5 6 7 10 4 5 5 5 9 39 26 89 100 100 100 100 100 100 100 100 100 100 100 100 100 98 100 100 100 100 100 100 100 100
76 89 96 100 94 8 5 5 5 28 5 5 5 2 5 5 5 5 6 18 52 78 74 100 81 98 100 100 100 100 100 100 100 100 100 100 100 100 100 100 100 100 100 100
79 96 36 13 5 5 5 22 5 5 5 5 5 5 5 5 5 19 47 100 95 71 99 100 96 99 84 100 100 100 100 100 100 100 100 100 100 100 100 100 100 100 100 100
84 22 5 4 1 5 5 5 5 5 5 5 5 5 8 34 54 31 45 43 98 88 84 95 99 84 99 90 88 89 100 100 100 100 100 100 100 100 100 100 100 100 100 100
5 5 5 5 5 5 5 5 5 26 47 5 5 7 19 29 80 100 100 95 100 99 99 100 57 69 100 62 92 100 100 100 100 100 100 100 100 100 100 100 100 100 100 100
5 6 6 5 5 5 5 8 16 8 5 5 5 46 13 78 100 100 100 100 99 96 82 62 27 71 86 93 88 100 100 100 100 100 100 98 100 100 100 100 100 100 100 100
5 14 6 23 23 58 42 63 5 5 5 5 27 43 81 100 100 100 100 100 99 81 61 44 70 97 100 100 100 100 100 97 100 100 100 100 100 100 100 100 100 100 100 100
35 69 98 80 38 100 100 64 5 5 5 7 42 85 100 100 100 95 71 77 100 63 86 100 100 88 91 100 100 100 100 100 100 100 100 100 100 100 100 100 100 100 100 100
100 96 53 60 100 74 14 5 5 15 70 99 100 96 100 100 100 100 100 58 94 82 97 100 100 71 98 100 100 100 100 100 99 98 100 100 100 100 100 100 100 100 100 100
78 46 98 100 7 6 19 5 6 54 100 100 100 79 100 100 100 100 100 82 93 100 100 100 100 100 100 100 100 100 99 100 100 100 100 100 100 100 100 100 100 100 100 94
100 100 98 9 5 5 8 23 32 51 100 100 98 93 100 100 99 100 100 99 91 100 100 100 100 100 76 100 99 100 99 100 100 100 100 100 100 100 100 100 100 100 100 100
100 81 5 5 5 14 44 86 94 100 100 100 54 90 100 96 100 90 98 90 85 99 100 100 100 100 100 100 100 96 100 100 100 100 100 100 100 100 100 100 100 100 100 100
5 5 5 5 14 71 100 100 72 92 90 100 100 97 100 100 100 100 100 100 99 98 98 100 83 81 91 100 100 100 100 100 100 92 97 100 100 100 100 100 100 100 100 100

GFSNGP_prec_cloud_027.txt.gz
Cloud_Cover
0 2 1 0 4 5 5 20 96 17 99 100 100 98 88 78 69 70 100 100 72 37 94 100 100 92 100 99 94 77 58 14 35 62 100 53 55 21 57 59 92 96 100 100
0 0 0 0 0 5 5 5 100 94 100 97 90 88 95 86 100 100 100 100 95 100 97 100 100 98 100 99 41 97 94 5 40 83 100 92 73 84 100 99 100 98 5 5
21 7 5 10 0 1 5 95 100 100 100 86 92 75 80 68 77 54 95 99 100 99 100 100 100 100 100 100 90 6 5 49 71 100 97 100 100 100 100 95 8 5 5 73
68 72 50 5 17 33 82 78 81 89 98 92 97 100 20 27 6 48 97 49 83 96 100 100 100 100 100 98 16 5 11 72 100 99 100 89 100 100 90 5 5 5 49 66
78 5 5 5 24 5 7 5 27 39 76 92 100 100 79 69 68 73 38 83 95 100 99 100 100 67 8 5 5 5 48 100 83 100 100 100 100 55 5 6 21 68 86 71
97 58 52 5 75 29 56 100 91 90 89 62 98 49 100 100 95 70 87 98 100 96 59 83 99 79 66 74 84 100 100 100 100 100 100 100 75 5 12 63 100 67 58 84
100 98 13 6 5 5 49 82 62 35 49 85 84 100 98 100 80 100 96 74 73 92 75 89 99 100 100 100 100 100 100 100 96 100 100 92 70 18 94 100 85 44 38 62
77 97 68 10 48 90 79 39 53 100 62 100 98 83 92 100 100 78 74 93 97 21 5 11 100 100 100 100 100 100 100 100 100 100 100 99 63 98 100 100 100 39 94 90
75 21 100 100 100 85 99 95 21 53 48 77 91 72 90 70 84 85 62 65 72 76 88 99 76 8 100 100 88 81 99 68 100 100 100 100 86 100 100 99 99 100 100 100
77 47 100 100 100 61 62 99 57 100 98 64 11 79 72 24 11 36 73 94 55 10 5 10 86 100 100 100 39 97 99 91 100 100 100 100 100 100 100 100 100 100 100 100
76 85 63 32 66 99 100 91 57 94 99 78 99 88 13 5 23 68 6 2 5 6 85 100 98 100 100 100 99 100 80 99 100 100 100 100 100 100 99 100 78 53 76 97
73 90 99 100 100 100 100 34 77 98 97 31 5 5 36 99 64 11 4 5 17 23 30 59 100 98 62 58 100 74 90 100 100 100 100 100 100 99 100 58 18 5 5 14
7 42 93 100 100 91 60 99 100 64 5 14 12 6 96 17 6 0 5 47 20 80 100 100 98 100 100 48 55 79 100 100 100 100 100 100 100 100 100 100 94 51 77 43
66 99 95 100 59 34 91 70 30 6 11 8 5 6 5 5 5 5 37 8 50 92 100 100 85 92 45 98 89 57 87 80 100 100 100 100 100 100 100 100 100 99 99 76
100 90 88 57 9 86 68 93 100 91 46 5 5 5 5 5 5 5 5 16 55 86 86 100 91 26 92 100 67 83 100 100 100 100 100 100 100 100 100 100 100 100 100 100
100 100 8 26 48 81 87 100 93 29 5 5 5 5 5 5 5 5 25 56 62 68 96 98 86 95 100 100 100 92 98 97 99 100 100 100 100 100 100 100 100 100 100 100
100 99 84 100 100 81 99 19 33 6 5 5 5 5 5 5 27 6 5 73 82 90 100 100 100 100 91 100 100 95 100 100 100 100 100 100 100 100 100 100 100 100 100 89
100 92 100 100 78 5 5 5 5 6 5 5 5 5 12 33 12 7 71 99 90 91 82 98 100 100 57 99 96 89 100 100 100 100 100 100 100 100 100 100 100 100 100 100
10 15 8 21 7 5 5 5 5 5 5 5 7 51 96 40 39 30 82 85 92 100 98 90 84 13 98 97 50 100 100 100 100 100 100 100 100 100 100 100 100 100 100 100
5 5 5 5 5 5 5 5 27 5 6 26 74 94 28 55 50 75 97 100 83 62 87 99 17 97 100 100 91 98 100 100 100 100 100 100 99 100 100 100 100 100 100 100
5 5 5 5 5 91 71 10 16 53 97 81 37 57 99 100 81 83 92 88 90 85 91 100 67 97 99 100 100 100 94 100 100 100 100 100 100 100 100 100 100 100 100 100
25 5 37 54 100 66 48 66 99 46 31 21 100 100 100 97 70 98 94 64 79 87 77 100 100 100 75 100 100 100 100 100 100 100 100 100 100 100 100 100 100 100 100 100
16 79 100 90 53 92 100 100 74 88 85 99 100 100 100 99 96 94 100 88 93 100 94 100 100 100 100 85 75 99 100 100 100 100 100 100 100 100 100 100 100 100 100 100
100 100 76 99 100 100 80 6 65 80 80 98 100 100 100 63 100 94 76 99 100 62 92 97 83 91 100 100 71 100 100 100 100 100 100 100 100 100 100 100 100 100 100 100
100 100 100 100 86 14 14 52 63 85 86 100 100 80 57 100 100 89 92 100 100 82 82 85 80 97 100 93 99 100 100 100 100 100 100 100 100 100 88 100 100 99 100 99
100 100 100 92 5 13 85 72 100 100 100 100 87 89 100 99 100 99 92 100 99 100 87 98 100 95 100 95 100 100 100 100 100 100 100 100 100 100 100 100 98 100 100 100
100 99 24 5 35 71 83 100 100 98 100 100 99 90 90 100 100 100 100 100 100 100 100 100 100 91 100 99 99 100 100 100 100 100 100 100 100 100 100 100 100 93 100 100

GFSNGP_prec_cloud_030.txt.gz
Cloud_Cover
0 0 0 0 0 0 0 4 75 33 96 100 94 65 83 84 12 9 23 22 31 49 78 87 97 99 88 96 93 67 94 70 41 5 5 3 21 23 44 5 23 60 46 31
0 0 0 0 0 0 3 5 70 99 18 5 80 98 9 5 5 5 5 5 5 5 5 33 99 86 91 100 100 64 5 66 54 100 59 5 21 41 9 78 75 100 6 5
0 2 5 0 5 4 5 62 80 82 92 98 58 5 5 29 20 15 33 90 58 9 43 98 100 100 89 8 35 6 5 62 96 55 49 19 5 58 92 75 100 9 5 6
17 40 5 0 5 5 5 9 54 52 91 100 65 60 89 90 100 77 18 41 51 63 46 100 94 55 61 100 60 5 4 19 18 26 5 3 39 100 99 85 23 5 5 84
75 5 5 0 17 6 5 4 40 82 54 9 5 9 11 5 5 5 33 22 88 100 85 14 39 95 89 75 72 96 13 100 100 100 52 5 6 100 100 88 47 40 98 100
35 39 4 0 7 26 5 5 11 58 57 7 28 72 68 98 95 73 100 100 99 31 86 84 100 100 100 94 98 98 32 100 61 100 100 100 16 77 100 100 70 97 100 100
95 96 13 0 5 5 5 21 11 17 14 5 11 72 30 13 5 64 75 37 54 8 5 5 5 5 5 3 46 6 22 100 98 87 100 100 13 85 100 100 100 100 100 28
80 91 30 10 32 83 56 32 53 83 77 59 5 6 5 5 5 8 5 5 5 5 5 26 5 5 17 56 18 23 4 6 100 100 100 93 95 99 100 100 100 100 17 5
7 5 5 99 85 51 20 87 100 94 94 97 100 38 8 84 70 78 59 5 5 56 68 8 3 96 100 16 33 5 4 11 100 100 100 99 100 97 100 100 100 43 10 28
5 5 10 87 54 72 78 100 82 99 97 22 5 22 54 22 35 5 5 6 84 20 2 4 30 16 5 18 5 2 5 90 87 46 97 81 100 99 99 100 41 61 96 12
20 5 61 55 34 8 88 100 96 78 85 19 7 56 100 98 25 5 5 34 18 5 5 5 10 5 5 41 5 5 19 85 26 68 94 65 95 72 100 27 5 55 42 5
7 11 5 26 22 94 100 100 86 56 14 35 88 98 85 70 8 27 8 6 5 5 5 3 18 5 20 5 5 50 98 88 33 91 86 54 11 42 66 54 5 43 5 13
5 5 10 48 75 62 35 34 37 95 100 100 60 7 5 6 17 6 5 4 4 5 5 5 5 80 100 19 5 93 72 30 10 37 14 45 83 99 100 76 97 43 56 78
12 9 40 96 96 76 97 69 63 100 84 6 9 10 30 5 4 5 4 5 5 5 5 9 49 55 99 88 52 100 91 56 76 100 100 100 99 100 100 100 100 96 91 79
73 11 84 100 100 100 96 79 43 5 8 55 70 24 3 4 5 5 5 5 5 5 5 59 73 92 81 90 100 99 100 100 100 100 100 100 100 100 100 100 100 100 100 100
94 100 100 100 96 100 72 5 22 42 44 9 5 5 0 9 13 5 5 5 5 5 5 92 100 99 100 100 100 100 57 99 99 100 100 100 100 100 100 100 100 100 100 100
100 100 100 89 55 99 92 29 59 30 5 5 5 2 25 17 5 14 20 5 10 21 44 99 100 100 100 100 100 94 78 97 100 100 100 100 100 100 100 100 100 100 100 100
100 81 98 92 100 91 47 64 6 5 5 5 5 31 96 42 13 16 19 16 54 84 50 100 48 97 100 92 94 89 70 99 100 100 100 100 100 100 96 100 100 100 100 100
93 100 100 100 93 99 75 12 5 5 5 15 16 90 50 76 48 82 92 100 100 96 100 80 96 14 19 94 100 9 99 100 100 100 100 100 100 100 100 100 100 100 97 100
82 82 99 100 83 73 39 49 60 76 74 45 40 23 66 99 100 100 100 100 83 99 54 100 30 5 38 54 86 97 99 100 100 100 100 100 100 100 100 100 100 100 100 100
70 99 95 88 99 85 96 100 95 99 94 81 30 92 99 100 100 100 95 99 85 64 86 96 7 5 90 99 76 55 79 100 100 100 98 100 100 99 100 100 100 100 100 100
78 68 94 100 100 100 100 100 100 79 57 71 100 98 100 100 100 100 46 100 67 98 100 99 99 100 100 88 62 5 47 97 100 100 100 100 100 96 100 100 100 100 100 100
100 100 100 100 100 100 100 75 44 71 100 100 99 100 100 100 100 96 96 99 89 100 100 100 68 89 100 93 86 56 85 70 97 100 98 99 100 96 97 100 100 100 85 95
100 100 100 100 97 68 40 56 97 100 100 100 100 100 100 73 33 100 100 100 100 100 100 100 95 71 77 47 85 48 39 84 100 100 100 100 100 100 100 100 100 100 100 99
100 100 95 99 92 33 41 100 100 90 15 100 100 100 100 100 99 72 100 100 100 100 90 100 99 76 86 85 71 58 99 100 100 100 100 100 100 100 100 96 99 100 100 100
100 96 98 81 93 100 93 58 77 42 98 100 73 85 99 100 100 100 100 100 100 100 100 95 100 100 100 100 80 100 100 100 100 100 100 100 100 100 100 100 100 100 92 100
97 100 100 100 100 94 18 57 98 100 100 100 100 90 99 80 95 100 100 100 100 100 100 100 100 100 100 96 91 90 90 100 100 100 100 100 100 100 100 100 100 100 100 98

GFSNGP_prec_cloud_033.txt.gz
Cloud_Cover
0 0 0 0 0 0 0 0 0 0 77 95 21 5 16 76 84 74 97 60 5 5 5 5 5 5 5 41 99 15 5 3 0 3 1 1 5 5 4 0 5 5 58 58
0 0 0 0 0 0 0 0 0 4 68 38 5 6 5 5 5 5 5 5 5 5 11 5 18 74 100 98 14 5 5 93 100 95 100 100 64 64 24 12 60 5 5 88
5 6 1 0 5 4 3 0 1 5 5 5 1 5 5 8 23 45 96 22 13 5 48 46 17 81 13 100 76 38 5 89 96 98 30 58 100 100 100 100 98 14 37 95
9 29 5 0 5 5 5 1 2 4 5 5 5 5 5 28 65 29 5 5 5 5 5 63 89 60 25 7 38 52 100 45 52 20 33 98 100 96 100 100 100 100 31 28
32 10 5 5 5 43 15 5 0 0 1 5 5 5 5 5 6 5 5 5 5 54 100 99 75 33 5 5 5 5 1 0 6 5 94 97 100 100 99 99 99 100 98 68
7 6 5 1 6 5 5 4 5 5 5 17 79 68 79 98 100 99 96 40 96 100 78 5 4 2 18 12 1 4 5 7 4 0 40 100 100 100 100 98 98 100 71 96
26 6 5 0 1 4 3 3 5 5 5 5 6 26 5 9 79 93 10 73 94 86 5 5 5 7 5 0 10 5 5 5 3 3 5 100 100 100 97 97 49 73 99 11
50 41 52 5 5 5 5 5 5 5 35 98 24 7 66 94 97 23 7 30 16 5 5 5 5 2 2 10 16 5 1 1 3 6 50 91 98 100 100 84 32 5 6 5
100 96 8 5 5 32 33 5 19 8 73 89 90 75 96 60 5 5 5 5 5 5 5 5 4 0 5 5 2 2 5 5 5 77 90 100 100 100 89 5 5 5 5 5
57 71 6 4 5 5 5 9 84 19 80 88 92 35 5 5 5 5 5 5 5 5 5 2 0 0 1 5 5 4 5 5 11 5 41 96 88 99 50 5 5 5 5 7
13 62 5 5 5 5 5 52 24 5 10 5 5 43 37 5 5 5 5 5 5 5 4 0 0 4 5 98 60 7 13 37 100 92 100 100 98 49 5 23 5 5 5 28
100 100 9 32 77 83 18 82 45 16 35 5 39 44 14 15 5 5 5 5 2 4 0 1 5 5 21 84 94 72 100 37 99 84 99 80 25 5 27 15 5 5 5 26
100 6 65 100 100 37 59 100 78 99 80 69 66 34 25 8 5 5 5 5 0 5 5 5 5 5 32 82 98 93 88 68 56 63 95 92 90 91 94 48 13 24 90 48
100 100 100 100 96 66 98 81 82 92 86 17 5 5 5 5 5 5 3 2 5 5 5 5 10 25 49 100 100 100 98 100 100 100 100 100 100 100 100 100 87 53 46 7
100 100 97 100 98 76 88 100 100 97 95 32 5 5 5 5 5 5 5 5 5 5 5 23 100 100 100 99 100 100 100 100 100 100 100 100 100 100 100 100 100 100 86 40
94 99 100 100 98 100 100 100 100 99 54 5 5 5 5 5 5 6 5 5 5 17 21 96 100 100 100 100 100 100 98 88 100 100 100 100 100 98 100 100 100 100 100 76
100 100 100 100 98 100 100 100 83 50 7 6 5 5 5 5 14 61 19 32 92 100 100 93 100 99 89 100 100 100 91 95 100 100 100 100 99 100 100 99 100 77 70 94
100 100 100 100 100 100 100 88 37 53 92 27 56 8 18 69 79 70 100 100 100 66 56 98 64 27 100 99 79 84 100 100 100 100 100 100 100 100 99 89 71 79 72 81
100 100 100 80 63 59 40 40 66 62 52 14 5 7 34 94 100 100 100 100 91 96 96 93 100 74 5 6 5 75 100 100 100 100 100 100 100 100 100 96 100 92 97 71
100 100 100 100 94 81 83 99 98 67 61 27 47 96 100 100 100 100 100 100 67 77 33 35 95 88 5 76 88 91 64 100 94 100 100 100 98 100 100 94 97 98 100 84
100 100 100 100 100 100 100 86 44 81 100 98 98 100 75 98 100 100 95 66 5 90 68 84 100 72 94 83 78 97 100 71 38 100 100 100 100 100 100 100 100 100 100 99
100 98 100 97 84 96 100 100 99 100 96 100 100 100 82 100 100 100 35 16 28 100 98 98 100 100 100 100 100 100 100 96 37 72 99 100 100 100 100 92 90 100 100 100
74 79 94 92 93 100 100 100 100 100 100 100 100 100 98 100 100 85 59 23 100 100 100 98 99 99 95 98 89 89 81 81 22 54 97 100 100 100 100 100 86 98 100 100
100 100 100 100 100 100 100 100 100 100 100 100 98 100 100 75 31 90 100 98 100 100 100 100 97 77 91 90 72 75 88 90 14 58 100 100 100 100 100 100 100 100 97 98
100 100 100 100 100 100 100 100 100 100 100 100 100 100 90 98 95 76 100 100 100 100 98 100 100 100 100 88 73 80 74 79 95 89 100 100 100 100 100 100 100 100 100 100
100 100 99 100 100 100 100 100 100 97 86 14 95 84 99 100 100 100 100 100 100 100 100 100 100 100 100 100 100 100 99 99 100 100 100 100 100 100 100 100 100 100 100 100
100 100 100 100 100 100 100 100 98 93 100 86 91 87 98 100 100 100 90 91 79 100 100 100 100 100 100 100 100 100 100 100 100 100 100 100 100 100 100 100 100 100 100 100

GFSNGP_prec_cloud_036.txt.gz
Cloud_Cover
0 0 5 5 0 0 0 0 0 0 0 0 0 4 5 5 5 5 35 45 88 97 100 100 100 100 100 34 16 95 98 26 25 5 40 61 7 55 81 100 100 100 100 100
0 0 4 0 0 0 0 0 0 0 0 0 5 5 5 5 5 87 94 96 78 72 100 100 89 11 14 93 100 100 74 64 81 74 27 6 6 91 31 82 100 100 100 100
5 6 5 5 5 0 0 0 0 0 0 0 0 4 5 5 5 5 5 5 47 80 60 35 5 20 100 100 87 99 75 17 1 0 1 3 5 5 30 100 100 100 100 100
47 14 5 6 24 5 5 5 5 2 0 0 5 5 5 5 5 5 5 7 15 17 16 7 89 68 51 18 5 5 5 1 0 0 4 78 46 56 27 100 100 100 100 99
95 8 33 57 43 8 5 15 5 5 5 2 5 5 5 5 12 77 88 18 41 14 10 22 5 7 14 5 30 23 1 0 3 5 5 2 56 85 16 100 100 100 97 82
90 5 35 98 99 9 5 62 54 82 5 5 5 24 5 5 52 82 8 6 5 5 5 5 5 5 6 5 5 0 0 1 5 5 3 15 98 45 45 98 100 100 71 99
100 93 100 11 5 5 25 66 94 8 5 5 56 30 5 16 40 57 38 5 5 5 5 5 5 5 4 0 0 0 0 5 5 5 5 92 99 83 93 100 100 99 71 5
98 97 18 29 8 6 50 100 99 39 96 5 5 5 5 24 51 9 5 5 5 5 5 5 5 0 0 0 0 2 5 5 5 5 5 11 21 86 98 100 100 59 5 5
100 100 100 100 60 46 15 100 97 100 75 98 100 11 5 5 5 5 5 5 5 5 5 4 0 0 0 0 4 5 86 37 5 27 5 81 86 90 100 100 100 8 26 46
36 78 100 17 15 39 100 59 92 99 100 100 67 5 5 5 5 5 5 12 5 5 4 0 3 0 0 1 12 92 80 100 43 95 99 96 100 100 100 58 21 35 16 23
5 18 5 5 5 10 44 88 100 100 86 74 16 5 5 5 5 5 15 5 5 5 3 5 4 2 4 5 60 100 100 100 100 100 94 100 100 83 5 32 5 5 10 31
39 85 5 15 37 98 99 100 100 99 94 60 5 5 5 5 13 47 8 5 5 5 5 2 2 5 5 30 94 100 100 100 100 100 100 100 100 100 100 78 5 5 42 59
100 100 100 100 100 100 100 100 100 78 83 8 41 12 45 74 37 60 10 5 5 5 5 5 5 5 98 100 100 100 100 100 100 100 100 100 100 100 99 30 5 5 5 5
100 100 100 100 100 100 100 91 90 96 58 29 44 37 61 44 66 25 5 5 5 5 5 5 69 100 100 80 100 100 100 100 100 100 100 100 100 100 100 85 100 46 8 6
100 96 87 78 100 100 99 100 97 64 56 44 42 50 16 5 5 5 5 5 5 8 28 99 100 100 100 100 100 100 100 100 100 100 100 100 100 100 100 99 100 100 67 24
100 98 77 100 100 100 100 100 100 96 91 61 29 5 5 5 5 13 52 30 98 100 100 100 100 100 100 99 100 100 100 98 99 100 100 100 100 100 100 100 100 100 78 78
100 100 100 100 100 100 100 99 100 100 76 5 5 5 5 6 46 64 10 78 100 100 100 100 100 100 74 100 100 84 100 100 100 100 100 100 100 100 100 100 100 95 79 73
100 100 100 100 100 100 100 100 90 66 36 6 5 19 71 86 39 7 69 100 100 100 100 100 100 98 41 71 95 90 31 8 62 100 100 100 100 100 100 97 94 100 98 85
100 100 100 100 100 100 95 79 81 79 61 50 72 98 84 8 28 93 100 100 100 91 39 100 100 100 87 5 5 22 24 93 64 45 100 98 100 100 100 100 100 95 91 87
98 99 100 98 100 100 100 100 100 88 86 83 98 100 78 98 93 100 100 100 68 5 79 92 100 97 83 67 84 100 98 100 100 98 100 100 100 100 98 95 78 92 89 75
100 100 100 100 100 100 94 100 100 100 100 100 76 73 93 100 100 100 98 74 5 5 60 92 88 94 95 100 100 100 100 96 94 100 96 88 100 100 100 100 91 85 79 99
100 100 100 100 100 100 100 100 100 100 100 100 100 100 100 100 100 19 6 20 7 69 96 100 100 81 94 94 100 100 100 99 76 84 79 40 40 100 100 100 96 76 85 82
100 90 91 99 100 100 100 100 100 97 100 100 100 100 100 97 30 92 70 25 65 62 91 97 88 86 100 100 100 99 96 98 78 87 88 59 73 97 100 100 95 87 92 100
99 90 96 99 100 100 100 100 100 100 100 100 100 90 98 62 5 5 8 22 61 29 76 90 98 99 100 100 96 90 94 100 87 78 81 97 100 100 100 100 100 100 100 100
100 100 100 100 100 100 100 100 100 100 100 83 5 8 11 85 55 23 97 99 61 27 92 100 100 100 100 100 100 99 96 97 100 100 100 100 100 100 100 100 100 100 100 100
100 100 100 100 100 100 100 100 65 16 22 26 20 85 96 92 98 94 100 90 60 88 85 100 100 100 100 100 100 100 97 98 100 100 100 100 100 100 100 100 100 100 100 100
100 100 100 82 51 14 16 5 44 75 90 72 64 100 98 100 69 90 74 41 88 54 61 86 42 39 52 85 100 100 100 100 100 94 100 100 100 100 100 100 100 100 100 100

GFSNGP_prec_cloud_039.txt.gz
Cloud_Cover
0 0 0 0 0 0 0 0 0 4 2 0 0 0 0 2 5 5 32 92 100 99 100 100 100 79 5 5 5 5 5 5 5 5 4 1 0 17 9 23 5 5 93 100
5 5 5 5 0 3 5 5 5 5 5 0 0 0 0 3 5 5 60 92 89 100 99 70 5 5 49 5 5 5 5 5 5 5 0 0 0 0 0 0 40 73 100 100
10 8 63 79 7 5 5 5 5 5 5 5 4 5 5 4 5 28 98 75 10 21 25 37 38 58 5 5 5 5 5 12 5 0 0 0 0 2 2 39 76 44 97 100
63 25 98 83 36 5 22 82 5 5 10 22 14 5 5 5 5 5 5 5 5 25 62 17 10 5 5 5 31 79 19 5 5 3 2 0 5 18 29 84 80 71 26 62
100 82 7 100 70 20 11 100 45 76 98 93 15 5 5 5 5 5 5 5 5 5 20 65 8 5 28 29 74 24 5 5 5 5 5 5 34 92 100 91 87 56 94 100
84 6 87 100 6 72 36 98 100 100 100 100 100 67 7 44 98 68 5 5 5 7 13 23 9 52 50 80 83 11 5 5 5 5 5 5 7 22 55 5 86 100 98 74
93 54 100 99 9 6 5 5 50 100 100 64 13 10 78 100 100 64 5 9 68 68 29 18 14 48 90 24 5 5 2 5 66 19 23 5 8 5 34 84 100 100 87 99
95 100 100 100 83 43 10 5 63 81 46 98 100 100 100 100 98 52 40 67 44 37 38 5 27 80 37 5 1 5 5 62 90 8 59 5 82 100 97 100 72 80 94 6
100 100 100 98 9 23 5 27 100 100 99 100 100 100 100 98 65 5 5 27 60 28 7 7 66 19 5 5 5 5 25 89 100 84 5 32 95 83 100 100 86 58 64 69
78 100 100 7 23 5 14 50 93 100 100 100 100 100 90 89 22 10 76 85 56 56 88 92 30 5 5 5 5 33 100 100 100 70 74 100 100 100 100 94 93 46 67 67
75 88 10 27 8 55 75 98 100 100 75 100 99 100 97 88 90 100 95 94 99 97 50 5 5 5 5 6 47 100 35 56 99 66 99 99 100 100 100 100 87 27 13 41
58 91 12 26 79 76 48 46 63 69 93 100 100 100 100 100 100 100 97 96 96 68 5 5 5 5 9 98 100 95 100 100 97 73 99 100 100 99 98 100 100 97 47 34
15 5 19 100 72 93 77 100 100 100 100 100 100 100 100 100 96 93 89 96 27 5 5 5 5 16 100 100 98 100 100 91 95 100 100 100 100 100 100 92 98 99 5 5
100 99 100 100 100 100 100 100 100 100 100 100 100 100 100 100 100 79 80 5 5 5 9 73 100 100 100 100 100 100 89 90 100 100 100 100 100 100 100 100 98 59 28 5
71 100 100 100 100 100 100 100 100 100 100 100 100 100 100 100 100 64 25 9 5 43 98 100 100 67 100 100 100 85 100 99 100 99 100 100 100 100 100 100 100 96 63 13
100 100 100 100 100 100 100 100 100 100 100 100 100 100 100 99 61 84 53 48 9 79 100 100 100 97 100 100 100 100 100 100 100 100 100 100 100 100 100 100 100 100 80 70
100 100 100 100 100 100 100 100 100 100 100 100 100 100 77 83 92 67 90 90 99 100 100 82 100 100 100 99 100 100 100 98 80 86 59 87 100 100 100 94 100 79 64 89
100 100 100 100 100 100 99 100 100 100 100 100 100 100 100 98 85 91 82 100 100 98 100 98 60 100 100 97 98 100 90 73 21 50 5 51 85 100 100 100 86 84 56 65
100 100 100 100 100 100 100 100 100 100 100 100 100 100 100 100 68 69 94 92 59 86 73 5 76 100 100 82 94 100 100 100 97 69 79 92 76 93 98 97 100 91 75 93
100 100 100 100 100 100 100 100 100 100 100 100 100 100 100 100 98 99 40 42 96 9 5 5 11 50 76 98 100 100 100 100 98 94 87 96 100 91 100 84 86 100 100 97
100 100 100 100 100 100 100 100 100 100 100 100 100 100 100 100 83 80 100 65 5 5 42 96 100 100 100 88 76 100 100 99 99 94 98 90 94 90 56 59 98 88 100 100
100 100 100 100 100 100 100 100 100 100 100 100 100 100 90 93 100 60 51 30 5 8 8 93 100 100 100 100 100 100 96 98 100 93 90 80 86 83 95 65 84 100 100 100
100 100 100 100 100 100 100 100 100 100 100 100 100 100 66 13 12 99 21 5 5 42 97 100 100 100 100 100 100 100 100 100 94 100 100 100 100 100 97 100 100 100 100 100
100 100 100 100 100 100 100 100 100 100 100 46 6 5 32 100 89 92 84 30 75 69 78 99 100 100 100 100 100 100 100 100 100 100 100 100 100 100 100 95 90 100 100 100
100 100 100 100 100 100 100 86 17 5 5 5 6 23 49 91 63 17 74 53 91 84 20 7 90 62 63 77 85 89 100 100 100 100 100 100 100 100 100 100 100 100 100 100
72 60 36 20 12 5 6 6 17 5 6 58 92 100 100 98 38 62 80 100 100 89 54 33 47 81 84 96 91 80 77 65 81 94 100 92 100 100 100 100 100 100 100 100
8 25 61 51 28 22 50 90 98 89 75 77 90 66 100 98 65 96 99 83 86 93 96 62 88 97 100 99 100 100 100 100 100 99 100 98 99 100 100 100 100 100 100 100

GFSNGP_prec_cloud_042.txt.gz
Cloud_Cover
5 5 2 4 0 5 2 5 5 5 5 5 5 5 0 4 0 1 5 5 22 95 100 100 100 95 93 31 20 10 5 5 5 5 5 5 5 5 4 0 4 5 79 88
4 5 5 5 5 5 5 5 5 5 5 5 5 4 5 5 5 5 5 10 96 98 100 84 14 5 5 5 5 5 5 5 5 5 5 48 18 5 0 3 33 83 100 67
5 5 19 99 5 5 5 5 5 5 5 5 5 62 100 36 28 88 6 65 97 100 52 5 5 5 5 5 5 5 18 21 14 95 96 24 4 0 14 61 66 68 20 5
24 7 85 94 100 5 5 5 5 5 5 5 6 46 50 9 40 18 56 100 100 99 15 5 5 5 5 6 12 42 60 95 100 100 49 5 5 4 5 48 95 11 72 5
62 45 78 100 100 5 7 84 16 5 5 10 94 98 100 23 21 56 100 100 99 86 84 46 37 9 56 60 86 100 100 100 100 80 5 5 5 5 42 49 99 89 5 5
76 12 77 100 72 9 5 95 52 100 99 56 68 61 80 75 100 100 96 73 100 93 48 90 94 13 74 100 100 100 100 100 51 5 43 36 5 27 62 7 93 72 81 86
82 5 83 95 19 63 100 97 43 89 75 58 69 6 21 97 100 100 100 100 99 100 100 100 99 100 100 100 100 100 62 71 5 5 100 100 59 74 97 91 97 100 95 74
63 10 32 6 35 99 83 40 88 64 64 99 97 98 100 100 100 100 100 100 100 100 100 100 88 100 100 100 78 18 5 5 17 48 93 94 7 84 100 100 97 65 68 74
35 5 5 43 99 100 100 87 87 100 100 100 100 100 100 100 100 100 100 100 100 100 100 100 100 100 100 98 18 5 71 70 96 97 87 56 96 84 98 98 100 86 73 74
5 58 84 100 100 100 100 94 100 100 100 100 100 100 100 100 100 100 100 100 100 100 100 100 100 95 11 5 5 33 100 28 60 97 81 83 100 85 96 76 76 77 73 72
100 100 100 100 100 100 100 100 100 100 100 100 100 100 100 100 100 100 100 100 100 100 100 100 85 22 5 5 83 100 48 68 54 64 70 50 100 87 56 100 99 82 100 48
100 98 84 100 100 100 100 100 100 100 100 100 100 100 100 100 100 100 100 100 100 100 100 74 14 6 17 73 100 100 100 100 98 66 70 26 30 38 79 92 94 100 100 83
33 52 76 32 42 46 90 98 79 71 100 100 100 100 100 100 100 100 100 100 100 98 70 6 77 100 99 100 100 100 100 100 79 100 97 54 7 38 90 88 100 100 100 62
73 10 7 9 43 64 76 92 100 100 100 100 100 100 100 100 100 100 100 100 100 99 51 68 85 100 93 100 100 100 99 94 90 99 95 90 100 91 77 100 100 90 99 86
47 58 90 97 100 100 100 100 100 100 100 100 100 100 100 100 100 100 100 100 99 73 41 11 73 36 58 100 100 100 100 100 93 92 85 86 99 90 100 98 100 100 100 96
100 100 100 100 100 100 100 100 100 100 100 100 100 100 100 100 100 100 100 100 94 100 47 68 25 46 73 100 100 100 100 100 100 100 70 14 77 92 87 86 78 100 100 73
100 100 100 100 100 100 100 100 99 100 100 100 100 100 100 100 100 100 95 100 98 74 89 66 60 10 5 100 100 100 100 100 100 100 11 22 89 98 100 96 78 91 94 90
100 100 100 100 100 100 100 100 100 100 100 100 100 100 100 100 98 100 100 100 100 94 99 99 44 5 62 100 100 98 84 88 100 100 97 60 41 52 49 54 62 69 71 98
100 100 100 100 100 100 100 100 100 100 100 100 100 100 100 100 100 100 85 97 98 45 54 6 20 9 93 100 100 100 100 96 80 100 100 98 96 78 83 98 62 67 92 78
100 100 100 100 100 100 100 100 100 100 100 100 100 100 100 100 100 91 91 85 79 7 5 5 64 24 89 100 100 100 100 100 99 100 96 100 93 85 100 94 82 77 100 100
100 100 100 100 100 100 100 100 100 100 100 100 100 100 100 100 100 99 98 25 5 5 5 19 67 99 100 100 98 95 100 100 100 100 100 100 100 100 100 100 100 100 100 100
91 96 96 100 100 100 97 100 100 100 100 100 100 100 100 93 47 80 78 65 5 30 40 79 100 100 100 100 100 100 100 100 100 100 100 100 100 100 100 100 100 100 100 100
96 100 100 100 100 100 100 100 100 100 100 100 100 72 11 5 9 94 65 5 5 28 45 96 100 94 99 86 97 100 100 100 100 100 99 100 100 100 100 100 100 100 100 100
100 100 100 100 100 100 100 100 100 100 87 10 5 5 68 78 12 94 97 100 100 63 100 92 81 43 75 68 85 99 100 100 89 100 100 99 99 100 98 100 100 100 100 100
100 100 100 100 100 97 78 28 31 13 13 15 11 7 5 20 100 86 100 100 98 100 89 83 99 82 100 96 100 100 100 100 100 100 100 100 100 100 93 86 97 100 100 100
100 100 72 32 71 90 89 91 100 100 100 100 100 97 89 100 89 93 90 100 100 100 97 75 82 67 73 95 100 100 100 100 100 100 100 100 100 100 97 100 100 98 100 100
5 11 29 78 95 93 91 98 92 93 86 100 98 86 93 100 99 98 100 100 100 100 100 94 98 78 92 99 100 100 100 100 100 100 100 100 100 100 100 100 100 100 100 100

GFSNGP_prec_cloud_045.txt.gz
Cloud_Cover
0 3 2 0 0 0 0 0 5 5 5 5 5 5 5 5 5 5 5 5 5 6 87 78 98 100 97 80 5 5 5 5 5 5 8 59 98 42 15 32 34 39 91 100
1 5 5 6 1 3 5 5 5 79 65 5 5 5 5 2 5 5 4 5 6 85 100 100 75 93 100 87 5 5 23 32 86 41 93 99 100 100 73 5 21 47 47 22
5 5 25 100 2 5 5 5 19 76 5 16 22 75 97 36 5 5 10 5 76 100 98 100 100 100 88 37 40 96 93 100 100 100 100 100 79 34 5 11 7 6 9 32
28 5 82 100 64 3 5 5 73 8 5 33 100 100 91 5 5 45 31 54 99 98 59 29 29 64 6 48 58 64 100 100 100 100 100 57 5 5 5 52 99 100 86 5
82 19 53 100 99 5 0 22 5 5 27 100 100 90 60 24 20 94 100 100 100 100 55 5 59 18 88 94 100 100 100 100 100 100 70 18 5 5 11 57 97 100 100 98
65 36 83 100 98 5 5 41 76 100 100 100 90 100 100 96 100 100 100 100 100 100 95 90 100 100 100 100 100 100 100 100 99 59 25 28 22 5 7 5 5 5 65 82
45 81 89 22 9 5 26 63 100 100 100 100 100 100 100 100 100 100 100 100 100 99 100 100 100 100 100 100 100 100 100 78 23 56 98 98 43 5 22 65 88 98 99 78
98 75 15 15 25 89 71 83 100 100 100 100 100 100 100 100 100 100 100 100 100 100 100 100 94 90 96 100 99 92 77 49 5 5 7 100 57 5 17 97 100 90 59 34
28 27 5 21 61 54 20 97 100 100 100 100 100 98 100 100 100 100 100 100 100 100 96 68 68 99 100 84 99 60 37 88 8 5 31 70 67 88 79 73 91 86 81 59
5 5 5 5 5 51 100 100 100 100 73 52 55 96 100 100 100 100 100 100 100 98 99 100 100 100 96 100 100 83 100 86 69 59 36 83 98 79 79 65 46 78 86 94
42 84 98 100 100 100 100 100 100 94 62 96 99 98 98 100 100 100 100 100 100 97 100 100 100 100 99 71 100 84 100 100 100 91 89 68 54 22 23 14 9 97 86 82
100 100 100 100 100 100 100 83 37 44 58 97 100 100 100 100 100 100 100 100 100 100 99 100 100 100 89 100 68 99 100 100 100 100 95 73 61 66 5 6 5 69 92 94
100 86 59 45 36 68 38 21 40 72 100 100 99 100 100 100 100 100 100 100 100 100 100 100 100 100 98 11 5 61 100 100 100 100 97 100 100 97 97 57 5 5 28 96
30 42 66 36 13 59 35 26 92 100 84 99 100 100 100 100 100 100 100 100 100 100 100 91 100 80 8 5 5 75 100 100 100 100 97 85 94 100 100 100 100 97 5 26
74 40 24 21 53 89 100 100 100 100 100 100 100 100 100 100 100 100 100 100 100 100 85 89 99 56 5 5 5 63 100 100 100 100 99 93 48 70 85 80 98 100 90 66
66 68 93 93 100 100 100 100 100 100 100 100 100 100 100 100 100 100 100 100 100 100 97 53 71 59 33 53 16 81 100 100 100 100 100 95 85 86 67 92 99 100 100 97
100 98 100 100 100 100 100 100 100 100 100 100 100 100 100 100 100 100 100 100 100 92 74 88 79 59 8 5 92 100 100 100 97 100 67 95 90 91 61 92 93 82 66 15
100 100 100 100 100 100 100 100 100 100 100 100 100 100 100 100 96 100 98 90 98 100 98 79 42 5 5 12 68 99 99 100 100 100 100 97 99 100 100 90 73 32 88 47
100 100 100 100 100 100 100 100 100 100 100 100 100 100 100 100 89 86 99 100 100 73 44 5 5 5 8 17 55 98 100 100 100 100 100 99 99 100 97 91 84 89 74 76
100 100 100 100 100 100 100 100 100 100 85 93 96 100 100 100 100 100 91 54 9 5 5 5 5 10 5 48 100 100 99 100 100 95 85 100 100 100 100 100 98 100 90 100
100 100 100 100 99 85 80 87 100 100 100 100 100 100 100 100 98 39 91 94 5 28 5 11 6 10 59 67 96 96 100 100 100 100 100 100 100 100 100 100 100 100 100 100
100 100 100 100 94 75 77 88 100 100 100 100 100 100 24 5 5 5 5 44 8 42 77 9 99 100 100 84 74 60 71 96 97 100 100 100 100 100 100 100 100 100 100 100
100 85 74 60 86 100 100 100 100 100 99 38 15 30 64 57 45 85 75 11 97 72 90 93 100 100 86 13 76 89 98 92 80 93 100 100 100 100 98 100 100 100 100 100
99 99 99 100 100 100 100 65 58 8 55 78 91 81 92 98 62 83 82 99 96 100 100 93 100 82 88 71 97 100 100 100 100 100 100 100 100 100 100 100 91 93 99 100
100 83 76 19 22 43 6 5 5 5 5 5 5 28 73 93 100 71 49 85 83 96 100 100 98 80 97 100 100 100 100 100 100 100 100 100 100 100 100 100 100 100 100 100
32 37 9 42 30 5 5 5 15 41 54 68 48 72 96 55 94 86 100 100 100 100 100 100 100 100 94 94 100 100 100 100 100 100 100 100 100 100 100 100 100 100 100 100
46 5 5 5 5 5 5 5 5 5 24 95 99 42 63 99 98 92 98 98 100 100 100 100 100 100 100 100 100 100 100 100 100 100 100 100 100 100 100 100 100 100 100 100

GFSNGP_prec_cloud_048.txt.gz
Cloud_Cover
5 5 2 5 0 0 0 0 2 2 5 5 7 16 17 5 5 5 5 5 5 5 5 62 76 56 92 93 9 95 94 59 11 62 98 95 39 74 100 36 6 14 35 100
5 5 5 5 5 0 0 0 0 4 4 0 5 5 5 5 12 70 5 5 5 5 24 83 82 99 10 72 50 29 91 56 60 89 84 59 99 100 91 21 81 100 81 98
5 5 5 55 1 0 0 0 0 3 5 5 11 16 5 5 77 47 16 60 5 26 68 86 86 94 52 11 77 83 79 81 98 100 100 100 100 77 70 64 96 94 100 100
5 5 41 22 4 0 4 5 0 5 5 5 5 5 5 6 90 98 100 69 91 72 90 96 95 98 100 79 98 99 100 100 100 100 100 100 91 64 55 76 100 100 100 100
62 5 85 76 10 5 5 5 5 5 5 5 5 5 10 99 100 100 98 30 7 42 89 96 99 100 97 98 100 100 100 100 100 100 100 100 65 26 64 97 100 100 98 100
7 67 23 46 5 5 5 6 56 8 5 5 5 5 6 100 100 100 63 6 6 80 100 100 97 100 100 100 100 100 100 96 100 100 100 97 98 69 86 99 100 100 94 97
46 81 5 5 5 7 23 64 48 32 74 90 60 100 100 100 100 61 5 5 61 100 100 100 100 100 100 100 100 100 100 100 100 100 100 91 46 76 89 90 97 100 96 98
38 96 35 5 5 52 46 38 10 16 29 100 100 100 100 62 18 5 32 95 98 99 99 100 100 100 100 100 100 100 100 100 100 98 89 16 82 85 96 98 100 92 100 62
5 5 5 8 82 57 47 53 62 91 99 100 100 74 33 17 74 100 100 100 94 98 100 100 100 100 100 100 100 100 92 83 99 100 69 85 82 82 98 100 100 100 100 98
5 16 5 5 5 5 5 5 100 100 100 46 5 8 49 70 80 100 100 97 100 100 100 100 100 100 100 99 100 86 91 100 100 100 70 72 94 100 100 100 100 100 100 100
78 22 5 5 5 7 31 96 100 62 5 14 20 6 41 71 100 100 100 100 100 100 100 100 100 100 97 100 100 100 100 95 97 100 100 100 98 97 100 98 78 58 84 97
99 100 98 100 100 100 100 55 6 13 26 32 50 82 97 100 100 100 100 100 100 100 100 100 100 100 100 100 100 100 76 80 100 99 100 100 100 100 100 72 10 5 5 15
100 100 95 66 11 36 49 71 71 42 87 73 81 92 100 100 100 100 100 100 100 100 100 100 100 100 100 100 87 77 75 84 98 100 100 100 100 100 100 91 99 80 68 11
17 6 30 98 95 70 77 17 71 85 100 100 100 100 100 100 100 100 100 100 100 100 100 100 100 100 76 8 5 20 42 82 73 100 100 100 100 100 100 100 100 96 100 98
84 100 59 12 47 82 98 100 100 100 100 100 100 100 100 100 100 100 100 100 100 100 100 100 98 79 5 5 6 66 86 100 100 100 100 98 98 100 100 100 100 100 99 100
68 18 89 100 88 100 100 100 100 100 100 100 100 100 100 100 100 100 100 100 100 100 100 79 10 10 53 8 6 79 97 100 100 100 100 100 100 100 100 100 100 100 100 100
100 100 100 100 98 100 100 100 100 100 100 100 100 100 100 100 100 100 100 90 99 100 89 27 89 11 5 5 5 81 86 100 100 100 100 98 100 100 88 100 100 100 100 100
100 100 100 100 100 96 99 100 100 100 100 100 100 100 100 95 63 54 31 63 76 86 90 5 5 5 5 5 21 71 89 95 100 100 100 99 94 100 100 98 100 97 93 98
100 100 99 88 97 100 100 100 100 100 100 100 80 34 67 52 29 28 54 92 49 14 2 5 5 5 5 36 16 89 100 100 100 100 100 100 97 85 100 100 100 100 100 100
100 100 100 100 100 100 100 100 100 100 100 72 76 100 27 78 96 64 6 32 5 5 5 8 87 97 87 87 81 99 100 92 95 100 100 100 100 100 100 100 100 100 100 100
100 100 100 100 100 100 100 100 84 77 58 37 6 28 61 5 5 5 7 5 1 12 89 80 100 100 100 99 89 84 95 99 88 94 100 100 100 100 100 100 100 100 100 100
100 100 100 100 99 85 30 5 17 56 53 46 16 9 6 5 5 5 27 20 5 17 73 92 100 100 100 100 100 100 89 100 100 92 82 100 100 100 100 100 100 100 100 100
100 100 95 56 61 64 42 22 5 5 5 5 5 5 5 5 5 25 43 15 56 54 95 98 100 100 100 100 100 100 91 100 100 100 100 100 100 100 100 100 100 100 100 100
80 82 99 99 59 5 5 5 4 5 5 5 5 4 5 5 5 5 47 29 8 76 97 94 88 100 100 100 100 98 100 100 100 100 100 100 100 100 100 100 100 100 100 100
97 67 8 4 5 4 5 5 5 5 5 5 5 5 6 28 58 8 76 69 93 91 98 100 100 100 100 100 100 100 100 100 100 100 100 100 100 100 100 100 100 100 100 100
62 6 5 4 5 5 5 5 5 5 5 5 5 59 92 100 100 98 99 99 100 100 100 100 100 100 100 100 100 100 100 100 100 100 100 100 100 100 100 100 100 100 100 100
40 5 5 5 7 34 68 37 5 5 37 87 91 100 100 100 100 100 100 100 100 100 100 100 100 100 100 100 100 100 100 100 100 100 100 100 100 100 100 100 100 100 100 100

GFSNGP_prec_cloud_051.txt.gz
Cloud_Cover
1 1 1 1 2 0 0 0 5 0 0 0 5 5 5 5 5 5 5 5 5 29 12 96 48 5 47 80 20 98 53 12 24 60 89 57 79 83 91 99 60 8 49 58
0 0 5 0 5 0 0 0 5 0 0 0 5 5 5 5 5 5 5 5 5 6 99 96 8 39 74 64 98 6 99 98 100 68 73 82 88 100 100 41 6 66 84 98
0 0 5 5 0 0 1 5 5 5 5 5 4 2 5 5 5 5 5 5 5 85 61 5 5 71 70 89 87 98 100 100 82 99 100 100 100 99 63 53 28 69 94 85
1 1 47 7 1 1 5 5 5 5 5 20 5 5 5 5 5 5 5 5 46 94 59 6 41 94 100 91 100 100 100 100 100 100 100 100 100 98 50 22 50 93 86 99
69 5 33 6 5 5 14 6 10 5 5 5 5 5 5 16 5 5 5 66 100 93 5 10 61 97 100 100 92 91 100 100 100 100 100 100 100 73 42 36 99 100 70 91
6 67 76 6 5 5 5 5 16 5 5 5 5 5 1 5 4 6 100 100 86 39 42 11 38 82 100 100 89 100 100 100 100 100 100 100 97 100 100 100 100 90 19 100
6 78 5 6 7 5 5 5 5 5 5 5 2 5 5 5 61 100 100 92 22 16 80 87 87 97 100 100 100 100 100 100 100 100 100 100 98 100 100 100 62 5 96 82
37 96 63 17 27 76 37 5 5 5 5 5 5 5 37 100 100 100 84 71 70 78 89 78 100 100 100 100 100 100 100 100 100 100 100 100 100 100 98 95 97 98 100 40
11 5 7 51 33 40 14 5 12 9 21 12 35 96 100 100 80 45 95 82 71 77 100 100 100 100 100 100 100 100 100 100 100 100 100 100 100 80 93 96 100 100 98 95
5 5 15 71 64 61 77 94 86 100 98 100 100 96 87 54 40 41 86 74 69 100 100 100 100 100 100 100 100 100 100 100 100 100 100 98 74 79 100 100 100 100 90 66
47 17 13 38 87 42 85 100 100 100 100 64 24 49 7 10 66 67 71 100 100 100 100 100 100 100 100 100 100 100 100 100 100 100 80 100 100 100 93 95 100 72 64 64
92 100 97 100 100 100 100 93 27 54 87 100 72 24 55 74 80 100 100 100 100 100 100 100 100 100 100 100 100 100 100 97 34 82 100 100 100 100 100 100 77 22 5 5
100 100 100 100 100 35 8 36 98 100 96 56 31 37 70 99 100 100 100 100 100 100 100 100 100 100 100 100 100 100 21 5 25 93 100 100 100 100 100 100 100 100 81 53
100 93 35 36 56 99 98 100 89 40 40 91 100 100 100 100 99 100 100 100 100 100 100 99 96 100 88 29 8 8 11 39 76 100 100 100 100 100 100 100 100 100 100 99
29 17 47 98 80 78 93 88 93 100 100 100 100 100 100 100 100 100 100 100 100 100 100 82 48 17 5 5 5 31 66 77 68 90 100 100 100 100 100 100 100 99 100 98
58 99 100 83 88 99 84 98 91 86 96 99 96 99 100 100 100 100 100 100 100 84 30 16 13 5 5 5 11 74 90 99 94 99 79 94 98 100 100 100 99 98 100 100
100 100 100 100 99 90 87 97 96 83 98 95 97 97 100 100 100 100 69 55 17 92 5 8 5 5 5 5 10 82 92 94 8 43 81 78 96 100 100 100 100 100 100 100
100 100 96 93 100 92 66 92 98 97 97 86 100 100 100 96 56 45 6 26 17 10 5 5 4 6 4 7 76 67 85 32 67 71 82 100 98 100 98 100 100 100 100 100
99 100 91 82 90 100 99 94 96 100 100 100 100 94 78 87 40 62 6 5 16 7 2 5 44 37 86 94 99 92 100 100 86 78 87 91 95 98 98 100 100 100 100 100
100 100 100 100 100 100 100 100 100 100 100 100 86 96 100 91 46 5 5 7 4 5 5 71 24 25 27 36 100 100 100 100 100 100 100 99 100 95 100 100 100 100 100 100
100 100 100 100 100 100 100 100 100 100 99 100 98 76 92 5 5 5 5 5 5 23 10 5 12 53 96 14 97 100 100 100 100 100 100 100 100 100 98 100 100 100 100 100
100 100 100 100 100 100 100 100 100 100 97 51 15 6 5 3 5 4 5 5 5 5 5 5 5 22 97 9 87 100 100 100 100 100 100 100 100 100 95 92 99 100 100 100
100 100 100 100 100 100 86 81 67 17 5 5 5 5 5 5 5 5 5 38 5 18 29 34 72 62 64 93 100 100 100 100 100 100 100 100 100 100 100 100 100 100 100 100
100 100 100 90 35 5 5 5 2 2 2 3 5 5 5 5 46 80 80 65 72 97 91 100 100 100 100 100 100 100 100 100 100 100 100 100 100 100 100 100 100 100 100 100
85 84 95 10 5 5 4 3 2 5 5 5 8 16 49 95 95 89 100 100 100 100 100 100 100 100 100 100 100 100 100 100 100 100 100 100 100 100 100 100 100 100 100 100
100 60 11 4 2 3 5 5 5 27 5 40 45 99 100 100 100 100 100 100 100 100 100 100 100 100 100 100 100 100 100 100 100 100 100 100 100 100 100 100 100 100 100 100
100 34 4 4 5 7 28 7 9 40 83 100 100 100 100 100 100 100 100 100 100 100 100 100 100 100 100 100 100 100 100 100 100 100 100 100 100 100 100 100 100 100 100 100

GFSNGP_prec_cloud_054.txt.gz
Cloud_Cover
27 6 81 2 62 79 5 5 3 0 0 0 4 5 0 0 0 0 5 1 5 5 5 5 15 5 5 18 57 77 100 98 94 43 66 82 78 87 90 90 96 95 100 88
5 5 4 5 1 0 0 0 3 0 0 0 1 0 4 4 5 15 6 5 5 5 24 50 22 14 37 32 100 65 100 96 84 86 100 88 100 100 100 82 88 70 99 98
11 5 5 5 0 0 0 0 0 0 2 0 0 5 0 5 5 29 5 5 5 11 74 40 40 95 7 80 90 100 100 100 94 100 100 100 100 100 100 100 100 100 100 92
8 6 38 5 0 0 0 0 1 5 5 5 5 5 4 5 5 5 5 5 5 5 10 18 98 48 50 82 76 88 99 100 100 100 100 100 100 100 100 100 100 99 100 100
76 52 22 5 4 1 5 4 5 5 5 5 5 5 5 5 5 5 5 5 5 5 19 100 90 13 35 84 100 79 69 100 100 100 100 100 100 100 100 100 100 100 100 100
9 67 35 5 5 4 5 5 5 5 5 5 5 5 5 9 29 7 5 5 5 73 100 59 6 38 52 84 100 100 100 100 100 100 100 100 100 100 100 100 100 100 100 55
5 68 53 5 5 3 1 5 5 5 5 7 5 5 5 5 5 5 6 79 100 98 8 35 52 34 86 100 100 100 100 100 100 100 100 100 100 100 100 94 100 84 36 18
33 98 86 5 5 5 5 5 5 5 6 6 8 18 28 64 69 99 100 100 89 53 85 61 92 99 100 100 100 100 100 99 96 100 100 100 100 100 100 100 83 84 100 84
53 9 33 21 5 5 5 5 16 65 10 79 30 97 100 100 100 100 100 100 96 95 89 96 100 100 100 100 100 100 100 100 100 100 100 100 100 100 17 65 59 5 8 18
24 5 33 21 26 11 12 56 67 91 100 100 100 100 100 100 83 78 80 87 73 100 100 100 100 100 100 100 100 100 100 100 100 100 100 100 43 24 12 59 100 57 39 57
65 5 5 35 19 5 28 69 100 100 100 100 100 89 100 76 82 50 97 100 100 100 100 100 100 100 100 100 100 100 100 100 100 75 6 5 56 92 100 97 90 98 100 100
18 98 5 26 40 85 94 100 100 100 100 99 76 90 71 62 100 100 98 98 100 100 95 94 99 100 97 100 100 100 100 49 6 5 5 6 83 99 92 91 93 100 99 100
10 9 46 69 99 100 100 100 100 100 100 88 100 78 94 96 100 100 100 100 100 100 99 100 100 100 99 97 73 28 5 5 5 5 5 5 31 97 73 5 98 100 100 94
5 20 81 100 100 100 100 88 81 96 100 100 75 100 100 100 99 100 100 100 100 100 100 88 89 96 50 23 5 5 4 5 5 5 5 25 76 17 79 32 24 12 5 21
75 45 11 75 99 60 96 75 100 100 80 73 79 76 84 98 98 88 71 90 100 97 93 75 55 40 5 5 5 3 5 5 5 5 5 24 5 5 10 25 75 34 5 5
100 100 94 82 74 84 92 100 32 33 86 65 7 36 46 65 69 99 100 100 100 100 54 54 34 5 5 4 2 5 5 5 63 87 5 40 58 46 77 97 98 100 81 30
100 100 100 100 77 98 74 85 100 97 10 79 99 80 72 93 100 100 100 100 54 63 31 5 5 23 54 45 51 47 66 67 97 100 100 100 100 100 96 82 72 95 93 98
100 100 100 100 100 98 100 100 93 85 89 90 83 100 100 98 90 98 74 83 84 5 5 5 9 5 3 5 5 5 30 68 89 74 100 94 100 100 98 54 100 80 69 72
100 100 100 100 100 97 100 94 96 100 100 100 100 100 99 70 64 94 86 10 5 5 29 5 5 5 5 5 48 27 22 84 100 100 100 67 76 94 98 100 100 100 100 100
100 100 100 94 99 99 100 100 100 100 100 100 100 100 100 100 83 29 5 5 5 48 5 5 5 5 46 86 23 90 45 14 96 100 84 93 100 100 100 100 100 100 100 100
100 100 100 100 100 100 100 100 100 100 100 100 100 98 39 5 5 5 5 5 82 5 5 5 75 92 5 5 6 9 24 48 95 100 100 100 100 100 100 100 100 100 100 100
100 100 100 100 100 100 100 100 100 100 100 77 13 6 5 5 4 5 12 37 5 29 6 74 60 17 15 43 100 100 100 100 100 100 100 100 100 100 100 100 98 100 100 100
100 100 100 100 100 100 100 100 100 85 8 5 5 5 5 5 44 59 91 69 58 83 17 100 8 5 79 99 90 95 100 100 100 100 100 100 100 100 100 100 100 100 91 100
100 100 100 100 100 100 92 11 5 3 5 2 5 5 5 56 35 63 25 61 39 10 94 80 13 16 100 100 99 81 100 100 100 100 100 100 100 100 100 100 100 100 100 100
100 100 100 100 89 70 13 4 0 1 4 45 22 62 61 87 77 45 77 93 100 98 100 100 99 53 100 100 100 100 99 100 100 100 100 100 100 100 100 100 100 100 100 100
95 72 96 81 71 33 1 1 5 15 9 79 23 19 53 79 93 96 79 100 100 100 100 100 100 98 98 100 100 100 100 100 100 100 100 100 100 100 100 100 100 100 100 98
98 97 99 49 8 4 5 28 85 75 86 80 29 46 97 94 100 100 100 100 100 99 100 100 100 99 98 100 100 100 100 100 100 100 100 100 100 100 100 100 100 100 100 98

GFSNGP_prec_cloud_057.txt.gz
Cloud_Cover
5 5 6 19 37 31 36 88 48 4 0 0 0 5 8 4 0 0 0 0 5 31 59 26 12 11 13 7 3 32 93 100 100 100 89 66 46 99 100 100 100 100 100 100
55 5 41 37 5 0 5 5 5 0 2 3 1 5 5 5 0 2 5 2 3 5 18 5 5 5 5 5 48 88 72 85 90 100 99 100 100 100 100 100 100 98 93 100
47 5 5 21 0 5 5 5 1 0 0 0 0 0 0 0 4 5 5 5 5 5 5 5 6 13 16 31 62 63 33 99 100 97 100 100 100 100 100 100 97 95 93 100
8 5 87 3 5 5 5 5 5 4 4 0 0 0 0 1 2 1 4 5 5 5 5 5 18 62 61 52 38 44 93 100 84 100 100 100 100 100 100 100 100 100 100 100
46 5 54 5 7 5 5 5 5 5 4 5 5 2 0 5 5 5 8 37 12 5 5 5 5 20 13 27 38 55 59 84 100 100 100 100 100 100 100 100 100 100 100 100
61 40 69 7 29 5 5 83 5 5 5 5 5 5 5 5 5 7 41 5 13 38 73 39 24 100 56 57 75 72 88 100 100 100 100 100 100 100 100 100 100 100 100 96
15 81 62 25 22 5 5 5 5 5 5 5 5 5 5 5 71 12 5 11 88 72 53 100 100 100 100 100 90 100 100 100 100 100 100 100 100 100 100 100 100 77 37 26
78 67 95 5 89 6 5 5 5 5 5 5 5 5 12 8 10 28 100 100 100 100 100 100 97 100 100 100 100 100 100 100 100 100 100 100 100 100 100 54 6 73 100 100
74 31 45 70 79 61 5 5 25 5 5 5 5 8 42 49 96 100 100 100 100 100 100 100 100 100 99 100 96 95 100 100 100 100 100 100 96 100 49 5 5 5 40 31
16 5 28 88 97 5 5 5 5 5 6 18 18 21 99 100 100 100 100 100 100 100 100 98 89 98 85 76 80 98 100 100 100 100 94 37 6 5 5 5 5 5 17 96
36 5 5 29 50 29 8 5 23 54 40 69 100 100 100 100 100 100 100 100 100 92 97 92 96 91 97 100 100 100 100 100 100 55 5 5 2 5 5 5 5 13 6 70
6 33 5 5 27 84 68 40 43 33 90 100 100 100 100 100 100 100 100 100 98 98 98 86 81 92 100 100 100 100 98 78 35 5 0 0 2 5 4 2 4 5 5 62
44 5 24 51 6 8 83 100 100 100 100 100 100 77 98 100 100 100 100 90 95 80 72 87 88 100 100 99 64 48 6 5 5 5 5 5 5 5 5 3 4 5 5 5
16 44 85 98 42 46 55 36 45 97 98 74 47 50 99 98 99 96 71 66 71 74 61 82 98 100 82 77 52 6 5 4 4 0 0 4 6 31 9 5 26 5 5 5
98 100 100 100 100 99 95 100 100 100 100 98 69 94 100 100 80 20 66 71 85 83 100 100 100 100 95 14 14 5 5 8 27 34 32 79 95 100 100 79 100 90 92 96
100 100 100 99 100 100 100 100 100 100 96 75 100 100 100 98 52 34 52 68 99 100 100 100 100 95 88 53 5 1 5 5 5 15 47 93 100 99 100 100 100 100 64 80
100 100 100 100 100 100 100 100 100 96 93 100 100 100 100 68 92 98 99 100 100 100 100 100 50 28 5 0 3 29 84 23 64 92 52 100 100 100 100 100 100 100 24 14
100 100 100 100 100 100 100 100 100 100 100 100 98 85 90 100 100 100 100 100 100 100 99 11 5 5 4 5 56 59 19 39 36 19 7 6 100 100 100 100 100 50 53 100
100 100 100 100 100 100 100 100 100 100 100 97 100 100 100 100 100 100 100 100 100 56 19 5 10 55 5 4 4 47 68 73 84 90 81 96 86 100 100 100 100 100 100 100
100 100 100 100 100 100 100 100 100 100 100 100 100 100 100 100 100 100 100 81 81 34 5 53 54 6 5 38 78 100 100 100 100 100 100 85 100 100 100 100 100 100 100 100
100 100 100 100 100 100 100 100 100 100 100 100 100 100 100 100 100 100 81 34 41 49 5 89 5 5 53 93 97 100 100 99 97 100 100 100 100 100 100 100 100 100 100 100
100 100 100 100 100 100 100 100 100 100 100 100 100 100 100 100 65 41 23 38 92 18 95 77 5 5 23 83 99 96 100 94 95 100 100 100 100 100 100 100 100 100 100 100
100 100 100 100 100 100 100 100 100 100 100 100 100 95 59 30 40 42 75 97 28 5 87 75 38 5 5 58 81 75 100 93 100 100 100 100 100 100 100 100 100 100 100 100
100 100 100 100 100 100 100 100 100 100 100 95 49 54 28 30 39 5 46 14 41 48 65 82 26 17 5 5 81 6 85 100 100 96 100 100 100 100 100 100 100 100 100 100
100 100 100 100 100 100 100 100 100 100 96 60 17 5 5 5 16 22 21 24 38 17 70 94 98 82 55 53 57 70 89 71 45 78 97 100 100 100 100 100 100 100 100 100
100 100 100 100 100 100 100 100 45 17 19 21 11 16 100 37 5 22 53 52 26 64 69 64 96 95 76 62 58 69 67 80 9 99 91 11 92 99 94 100 100 100 100 100
100 100 100 100 100 96 46 33 52 52 90 58 36 39 94 100 69 57 18 6 43 98 99 70 68 50 40 98 76 81 71 26 15 97 99 17 39 82 100 100 100 100 100 100

GFSNGP_prec_cloud_060.txt.gz
Cloud_Cover
100 76 90 97 5 5 4 5 5 1 0 0 0 0 3 2 2 0 0 0 0 0 16 35 95 67 31 100 100 100 85 17 14 84 70 89 92 97 35 98 80 92 94 98
82 100 78 82 91 2 0 5 5 6 4 0 0 0 0 0 0 0 0 0 1 74 4 4 44 5 30 67 10 5 5 9 100 100 12 5 5 95 75 99 94 86 100 100
54 100 29 98 1 5 0 0 1 5 22 5 4 0 0 1 0 0 1 5 5 5 5 5 5 5 5 5 5 5 12 98 100 56 5 30 100 90 99 100 96 100 100 89
12 31 68 42 5 2 0 0 5 5 2 0 0 2 0 3 5 5 5 5 5 5 5 5 5 5 5 5 33 100 100 100 95 67 81 98 96 99 100 100 100 100 100 100
17 26 60 8 5 5 4 1 5 5 5 5 4 0 5 5 5 5 0 0 1 4 5 5 5 5 26 81 100 100 99 64 63 99 98 98 93 97 100 100 100 100 100 100
100 55 84 82 5 6 5 44 5 5 5 5 5 5 5 5 5 5 5 5 5 5 7 32 55 94 90 100 99 92 78 100 100 100 100 100 95 94 95 100 84 66 100 34
100 98 100 98 6 66 64 6 5 5 10 5 5 5 5 5 5 5 22 41 8 50 47 100 100 100 100 98 91 96 100 88 80 83 90 100 100 99 76 62 38 25 29 18
100 100 100 100 100 6 7 6 32 81 9 5 34 35 21 6 21 36 61 61 75 73 100 100 100 100 88 71 100 93 93 90 92 78 99 100 100 100 88 34 5 7 15 5
100 100 99 100 99 5 13 51 9 5 5 32 52 14 39 7 5 7 32 53 95 100 100 100 99 100 100 100 99 100 100 100 100 100 100 92 82 40 6 5 5 5 5 5
100 100 100 100 70 12 100 97 21 18 53 30 14 18 16 24 35 26 39 100 100 100 100 99 100 99 91 95 82 63 90 100 99 99 99 92 18 5 5 5 5 5 5 5
100 100 100 100 100 79 22 42 28 62 36 5 5 5 44 95 99 88 100 100 100 100 100 99 92 90 78 66 80 91 90 100 100 100 84 62 10 1 2 5 4 5 5 5
100 100 100 100 100 100 92 82 90 58 30 13 6 6 39 91 100 100 100 100 100 99 88 89 77 84 34 44 84 92 100 100 100 100 80 54 90 46 5 5 3 14 11 5
100 100 100 100 91 65 57 99 100 100 100 100 100 100 100 100 100 100 100 100 100 98 87 56 21 16 32 56 96 100 100 100 38 28 7 5 6 65 87 5 5 38 100 100
100 100 100 100 100 91 96 97 100 100 100 100 100 100 99 85 95 100 99 96 100 86 96 76 32 56 74 100 100 100 84 33 5 5 5 11 42 53 98 100 90 68 75 90
100 100 100 100 100 100 100 100 100 100 100 100 100 58 80 96 100 100 100 93 91 100 76 70 95 98 100 100 100 100 37 12 9 9 43 59 98 64 46 100 100 86 87 100
100 100 100 100 100 100 100 100 100 100 100 100 100 99 100 100 100 100 100 100 98 82 76 99 97 99 100 100 81 8 5 5 5 5 7 29 11 5 10 18 86 100 100 100
100 100 100 100 100 100 100 100 100 100 100 100 100 100 100 100 100 100 100 96 98 99 100 100 100 100 100 13 5 6 31 73 72 80 93 90 100 100 95 100 100 100 100 100
100 100 100 100 100 100 100 100 100 100 100 100 100 100 100 100 100 98 100 98 100 87 98 100 100 77 5 5 84 100 100 100 96 100 100 100 100 100 100 100 100 100 100 88
100 100 100 100 100 100 100 100 100 100 100 100 100 100 100 100 100 100 100 100 100 100 100 100 36 5 5 44 60 96 100 89 97 100 100 99 100 100 99 100 100 100 100 100
100 100 100 100 100 100 100 100 100 100 100 100 100 100 100 100 100 100 100 100 100 100 94 30 5 5 90 99 20 99 90 62 100 100 100 100 100 100 100 100 100 100 100 100
100 100 100 100 100 100 100 100 100 100 100 100 100 100 100 100 100 100 100 100 100 71 87 5 5 5 6 70 5 87 94 54 96 100 100 100 100 100 100 97 100 100 100 97
100 100 100 100 100 100 100 100 100 100 100 100 100 100 100 100 100 100 100 69 45 78 53 15 5 33 24 58 5 35 99 30 73 97 100 100 100 100 100 100 100 100 100 100
100 100 100 100 100 100 100 100 100 100 100 100 100 100 100 100 100 92 70 46 5 46 45 63 53 18 48 60 83 65 84 69 93 100 100 100 100 100 100 100 100 100 100 100
100 100 100 100 100 100 100 100 100 100 100 100 100 100 100 100 73 53 18 65 84 48 85 97 91 82 64 79 98 100 100 95 65 98 87 48 71 100 65 100 100 100 100 100
100 100 100 100 100 100 100 100 100 100 100 100 100 100 100 86 61 48 59 65 72 63 52 76 100 100 82 100 100 100 100 95 55 98 98 35 66 89 22 99 100 100 100 100
100 100 100 100 100 100 100 100 100 100 100 100 100 66 92 100 98 91 84 72 70 97 62 91 86 82 97 99 82 100 98 44 26 99 91 37 55 55 50 92 99 100 100 100
100 100 100 100 100 100 100 100 100 100 98 86 80 77 82 100 100 91 71 16 64 94 80 97 87 42 7 83 90 99 100 60 34 100 58 84 53 63 56 78 86 100 93 100

GFSNGP_prec_cloud_063.txt.gz
Cloud_Cover
5 8 22 5 5 14 5 5 2 0 2 2 5 5 5 3 4 2 0 0 0 0 4 10 38 5 28 79 43 90 46 89 97 98 100 100 33 100 100 96 94 100 76 97
5 2 5 5 20 20 5 5 0 4 2 0 4 5 2 0 0 2 2 0 0 0 0 3 5 42 34 34 80 95 92 71 98 13 100 100 100 100 100 100 73 69 78 99
5 0 54 37 100 4 0 0 0 4 0 0 5 5 5 5 4 0 0 0 0 1 4 5 8 5 5 56 32 82 100 74 30 60 100 100 100 100 99 82 99 100 100 98
5 1 1 84 97 32 11 5 0 3 1 0 0 5 5 5 5 4 2 4 5 5 10 5 18 83 78 61 83 59 7 31 96 100 100 100 100 98 97 99 100 100 100 100
5 3 1 75 100 100 66 14 12 1 2 2 0 3 5 5 5 5 5 5 6 19 41 30 14 8 5 60 12 6 71 98 100 100 100 100 100 100 100 100 100 100 100 100
39 1 5 100 98 89 5 64 5 5 5 5 5 5 5 5 5 5 5 5 5 5 5 5 5 5 5 5 40 100 100 100 100 100 100 100 100 100 100 80 83 100 50 6
25 6 25 100 100 37 99 86 5 5 21 5 5 9 48 5 5 5 5 5 5 6 5 5 5 5 17 79 100 100 100 100 100 100 100 100 100 100 100 88 46 16 5 42
12 5 37 100 100 100 82 35 20 67 8 5 6 38 15 18 17 5 5 22 41 15 5 5 6 60 90 100 100 99 100 100 100 100 99 77 70 92 90 49 38 21 39 42
3 5 4 21 88 100 100 71 23 67 38 5 16 5 6 10 44 59 37 25 11 35 60 100 98 100 100 82 96 100 100 100 94 64 48 86 86 84 37 81 26 62 27 5
49 100 72 5 59 100 100 100 84 87 100 98 91 49 25 53 57 58 28 26 72 100 95 98 100 100 100 100 100 100 100 69 83 97 91 79 60 11 7 10 31 73 67 8
100 100 55 11 27 100 100 100 100 100 100 100 50 44 46 58 46 18 67 99 86 91 100 100 100 100 100 100 100 87 34 63 52 71 90 82 96 63 37 79 63 89 93 75
100 100 100 40 12 100 100 100 100 100 100 100 79 84 96 95 98 100 100 100 100 100 100 100 100 100 100 79 11 5 63 61 92 95 77 97 70 41 99 57 5 5 6 85
100 100 67 100 100 100 100 100 100 100 100 100 100 100 100 90 100 100 100 100 100 100 100 100 94 50 18 5 5 22 45 42 37 38 88 77 30 85 97 27 21 6 2 17
100 94 44 100 21 93 100 100 100 100 100 100 100 100 100 100 100 100 100 100 100 100 100 67 43 16 5 58 96 87 76 35 45 52 32 5 81 16 8 9 50 5 5 47
98 60 83 36 37 6 17 71 99 100 100 100 100 100 100 100 100 100 100 100 100 95 76 40 34 64 99 100 97 64 63 94 92 76 80 91 88 95 100 100 100 100 97 28
91 99 100 69 8 81 100 78 5 77 100 100 100 100 100 100 100 100 100 100 92 73 74 89 100 100 100 99 88 100 100 100 74 87 89 100 95 83 69 98 100 100 100 100
100 100 100 100 100 93 97 100 100 100 100 100 100 100 100 100 100 100 100 89 76 98 100 100 100 100 100 100 100 100 99 84 9 91 100 96 100 100 100 100 100 83 100 100
100 100 100 100 100 100 100 100 100 100 100 100 100 100 100 100 100 98 86 100 100 100 100 100 100 100 100 100 100 96 58 31 72 100 98 100 95 100 99 100 100 100 100 100
100 100 100 100 100 100 100 100 100 100 100 100 100 100 100 100 96 98 98 100 100 100 100 100 100 100 100 98 72 99 33 31 75 93 94 100 86 99 95 100 100 100 100 100
100 100 100 100 100 100 100 100 100 100 98 99 100 100 100 100 100 99 90 100 100 100 100 100 100 100 96 92 52 84 30 35 68 92 97 100 81 100 93 76 100 100 100 100
100 100 100 100 100 100 100 100 100 100 100 100 100 100 100 100 100 99 100 100 100 100 100 100 100 100 96 47 22 53 76 61 66 90 100 100 89 100 81 75 89 84 100 100
100 100 100 100 100 100 100 100 100 100 100 100 100 100 100 100 100 100 99 95 93 92 100 100 100 73 44 80 22 70 60 64 86 93 99 88 91 100 92 83 100 100 100 100
100 100 100 100 100 100 100 100 100 100 100 100 100 100 100 99 98 96 97 94 100 100 100 86 72 40 67 89 99 100 99 94 99 100 100 92 65 100 68 67 100 89 100 100
100 100 100 100 100 100 98 100 100 100 100 100 100 93 94 100 96 97 100 100 95 81 86 98 100 94 85 100 100 100 100 100 72 100 98 25 74 77 58 37 95 83 88 100
100 100 100 100 100 100 100 100 100 100 100 100 99 100 100 80 74 58 70 72 95 84 60 93 100 100 100 100 100 100 100 85 46 99 100 89 69 80 51 37 36 74 95 99
100 100 100 100 100 100 100 100 100 100 100 100 100 100 100 99 86 82 99 100 94 96 83 100 100 85 63 100 100 100 100 90 38 100 98 70 63 20 20 14 6 26 90 93
99 97 100 100 100 100 100 100 100 100 100 100 98 98 98 100 100 100 100 100 94 100 100 100 100 88 44 56 100 92 94 96 73 100 100 80 18 57 38 57 56 54 67 62

GFSNGP_prec_cloud_066.txt.gz
Cloud_Cover
0 0 4 4 2 5 5 92 80 66 27 5 0 0 0 4 3 0 0 0 0 0 2 0 3 10 81 84 81 100 94 55 100 100 99 95 100 94 97 100 100 100 99 95
5 4 1 5 0 3 61 100 100 52 100 0 0 0 0 0 5 0 0 0 0 0 5 4 38 5 5 5 5 65 100 100 100 100 100 100 100 77 100 100 98 90 78 97
7 5 4 5 0 6 85 25 52 72 46 5 0 0 1 2 5 4 5 5 0 0 0 2 5 5 8 64 61 98 100 100 100 100 100 99 92 86 98 99 68 80 93 66
98 72 81 5 0 0 0 8 2 51 9 0 0 2 5 5 0 5 5 5 5 5 5 5 5 6 79 76 45 100 100 100 100 100 98 100 100 100 85 79 100 100 96 84
94 100 79 100 1 0 0 0 4 17 5 5 57 8 5 5 2 0 5 5 5 13 62 95 100 100 96 98 100 100 100 100 100 86 100 93 99 87 99 99 97 48 51 61
100 84 63 100 14 0 0 3 3 5 5 15 54 66 5 5 5 5 5 5 5 5 5 5 29 81 96 100 100 100 100 100 100 100 94 98 100 100 99 64 87 75 47 5
97 10 69 100 57 0 0 0 5 29 58 82 62 49 15 5 5 5 5 5 5 5 5 6 34 100 100 95 100 100 100 89 100 100 99 100 100 83 6 43 51 40 24 29
97 10 100 47 91 4 0 0 3 5 50 97 98 90 62 19 11 6 5 5 5 5 5 13 45 64 100 100 100 90 98 100 95 98 98 45 54 47 30 6 24 63 34 6
30 17 100 100 91 5 5 1 0 0 5 99 100 100 63 21 28 60 51 38 58 89 59 34 87 68 12 39 76 100 100 90 98 55 41 74 71 40 31 73 60 5 5 5
100 63 97 96 100 7 14 6 5 0 5 99 100 100 100 100 91 80 58 91 100 63 54 70 66 54 71 100 100 100 98 34 42 85 81 70 29 18 45 38 9 22 38 67
56 99 100 100 100 23 94 38 5 5 37 100 100 100 100 100 100 98 88 97 85 75 60 63 76 98 100 100 100 97 36 60 79 72 85 34 73 82 99 100 100 100 99 83
100 100 100 100 100 100 99 47 17 5 49 100 86 84 88 100 100 100 100 100 100 100 100 100 100 100 100 100 82 32 56 57 57 64 59 81 84 100 100 100 100 100 99 18
100 100 100 100 100 100 100 100 99 22 54 48 65 62 98 99 100 100 100 100 100 100 100 100 100 100 100 64 46 68 54 30 31 61 22 86 100 99 95 97 100 100 67 82
100 100 100 100 100 78 57 100 100 95 37 5 9 47 97 100 100 100 100 100 100 100 100 100 100 100 19 51 72 35 5 20 65 92 95 99 100 100 95 57 12 11 8 72
100 100 100 100 100 61 40 100 100 98 80 26 47 83 97 100 100 100 100 100 100 100 100 100 55 11 68 57 22 49 71 100 87 94 97 100 100 92 89 100 100 100 88 19
100 100 100 100 100 89 100 100 100 98 61 96 100 100 98 100 100 100 100 100 100 100 84 67 58 64 74 74 76 98 100 82 61 94 100 100 100 82 100 97 100 100 100 100
100 100 100 100 100 88 97 100 99 100 100 100 100 100 100 100 100 100 100 100 100 100 100 100 96 88 71 89 100 100 100 79 100 100 100 100 91 100 88 99 100 100 100 100
100 100 100 100 100 100 100 100 100 100 100 100 100 100 100 100 100 100 100 100 100 100 100 100 100 100 100 100 100 100 85 100 100 95 90 100 78 97 82 73 100 100 94 100
100 100 100 100 100 100 100 100 100 100 100 100 100 100 100 100 100 100 100 100 100 100 100 100 100 100 100 100 100 100 100 100 74 37 65 81 58 56 96 56 99 91 74 100
100 100 100 100 100 100 100 100 100 100 100 100 100 100 100 100 100 100 100 100 100 100 100 100 100 100 100 100 100 100 94 62 50 28 71 70 78 80 97 37 62 95 76 96
100 100 100 100 100 100 100 100 100 100 100 100 100 100 100 100 100 100 100 100 100 100 100 100 100 100 100 100 96 79 72 58 77 100 100 100 92 74 97 35 25 82 97 82
100 100 100 100 100 100 100 100 100 100 100 100 100 100 100 100 100 100 100 100 100 100 100 100 100 100 100 97 97 79 31 8 42 100 100 96 60 100 100 66 31 73 88 57
100 100 100 100 100 100 100 100 100 100 100 100 100 100 100 100 100 100 100 100 100 100 100 100 100 100 99 100 100 100 98 70 60 100 100 100 86 81 100 61 21 50 67 64
100 100 100 100 100 100 100 100 100 100 100 100 100 100 100 100 100 100 100 100 100 100 100 100 100 100 100 100 100 100 100 100 62 100 100 80 84 72 6 13 25 5 5 34
100 100 100 100 100 100 100 100 100 100 100 100 100 100 100 100 100 100 100 100 100 100 100 100 100 100 100 100 100 100 100 100 100 98 100 100 93 86 5 5 17 52 56 24
100 100 100 100 100 100 100 100 100 100 100 100 100 100 100 100 100 100 100 100 100 100 100 100 100 100 100 100 100 100 100 100 100 100 100 100 85 7 17 5 5 44 34 43
100 100 100 100 100 100 100 100 100 100 100 100 100 100 100 100 100 100 100 100 97 100 100 100 100 100 99 96 87 98 100 100 100 100 100 100 100 51 11 18 39 14 45 55

GFSNGP_prec_cloud_069.txt.gz
Cloud_Cover
5 1 0 28 7 5 5 1 0 5 56 40 12 5 5 5 7 10 7 25 18 5 3 5 7 14 21 68 100 100 100 100 100 100 97 100 100 100 100 100 62 66 62 81
5 3 2 21 6 5 5 5 0 2 92 15 9 97 50 0 3 5 5 0 4 2 5 5 5 16 61 99 100 100 100 100 100 100 100 100 100 100 100 68 58 100 64 92
34 5 3 98 5 5 5 5 5 0 51 100 100 73 6 5 5 0 0 0 0 0 4 11 11 23 60 76 47 58 96 100 100 100 100 97 100 100 9 94 93 81 100 75
6 6 56 100 55 4 3 5 3 5 5 11 16 22 100 36 5 2 5 4 2 0 3 21 28 32 19 29 78 100 99 100 100 100 100 100 96 50 100 98 72 71 34 5
38 24 69 100 92 4 5 82 2 4 5 4 0 11 79 100 89 29 5 7 5 17 21 5 5 5 18 56 96 100 95 100 100 99 100 100 100 100 26 5 19 5 29 39
98 50 100 100 100 79 5 95 12 0 0 3 0 0 5 81 100 100 74 78 80 74 14 5 39 74 71 62 100 100 100 100 100 100 92 66 71 30 27 72 59 30 10 5
100 7 100 100 100 74 33 34 100 14 0 5 1 0 1 5 31 59 100 100 97 90 74 42 64 35 100 100 100 85 100 98 54 63 94 100 56 62 48 6 35 5 24 58
61 57 82 100 100 100 99 100 100 87 27 1 4 5 0 3 5 33 48 86 100 100 98 100 99 100 100 99 89 70 81 99 100 100 97 16 5 5 5 14 13 31 46 70
92 12 8 98 100 100 81 100 100 100 100 1 5 5 5 0 3 81 99 93 98 100 100 100 100 100 99 98 98 100 100 100 100 100 62 6 5 5 13 20 25 39 42 8
67 21 29 100 100 100 16 43 100 100 100 47 5 5 5 5 5 10 90 97 92 62 94 100 100 100 100 100 100 100 100 100 100 53 30 5 5 26 50 20 26 16 7 6
56 97 100 100 100 100 84 86 88 100 100 98 44 89 16 5 7 89 35 5 5 7 32 73 92 98 100 100 100 100 100 100 80 22 5 14 61 77 35 6 5 39 72 92
95 100 100 100 100 100 100 81 68 100 98 100 81 100 100 86 99 6 55 64 5 6 39 97 100 100 100 100 100 100 93 69 37 29 76 90 84 46 60 54 32 5 75 72
100 100 100 100 100 100 100 100 93 98 100 100 100 100 100 100 77 21 56 50 99 100 100 100 100 100 100 98 95 98 68 50 59 100 79 54 77 89 87 94 47 36 62 76
100 100 100 100 100 90 100 100 100 100 100 100 100 100 100 100 99 55 50 53 84 100 100 100 100 100 98 94 100 100 100 90 70 66 69 93 74 89 62 62 66 57 60 76
100 100 100 100 100 100 100 100 98 100 100 100 100 100 79 100 47 97 100 100 100 100 100 99 96 100 100 100 100 95 85 80 58 93 76 74 82 42 77 42 66 75 21 34
100 100 100 96 100 100 94 100 100 100 100 100 86 93 100 100 98 96 100 100 100 100 100 100 100 100 100 100 99 84 65 78 97 76 68 32 53 69 92 81 83 98 83 95
100 100 100 100 100 100 99 100 100 100 100 100 100 100 100 100 100 100 100 100 100 100 100 100 100 100 100 100 100 100 89 99 85 67 82 100 82 99 100 100 100 100 100 96
100 100 100 100 100 100 100 100 100 100 100 100 100 100 100 100 100 100 100 100 100 100 100 100 100 99 100 100 100 100 100 100 100 100 100 100 83 99 100 100 100 100 100 90
100 100 100 100 100 100 100 100 100 100 100 100 100 100 100 100 100 100 100 100 100 100 100 100 100 100 100 100 100 100 100 100 100 100 100 99 100 100 100 100 99 100 100 97
100 100 100 100 100 100 100 100 100 100 100 100 100 100 100 100 100 100 100 100 100 100 100 100 100 100 100 100 100 100 100 100 100 100 100 100 100 97 99 51 27 60 99 100
100 100 100 100 100 99 100 100 100 100 100 100 100 100 100 100 100 100 100 100 100 100 100 100 100 100 100 100 100 100 100 100 100 100 100 100 97 90 96 88 81 88 98 100
100 100 100 100 100 100 100 100 100 100 100 100 100 100 100 100 100 100 100 100 100 100 100 100 100 100 100 100 100 100 100 100 100 100 100 99 100 100 100 96 68 66 98 100
100 100 100 100 100 100 100 100 100 100 100 100 100 100 100 100 100 100 100 100 100 100 100 100 100 100 100 100 100 100 100 100 100 100 94 100 100 100 100 99 15 29 70 100
100 100 100 100 100 100 100 100 100 100 100 100 100 100 100 100 100 100 95 97 100 100 100 100 100 100 100 100 100 100 94 100 100 99 98 86 100 100 100 96 47 10 60 92
100 100 100 100 100 100 100 100 100 100 100 100 97 97 99 97 98 100 100 100 100 100 100 100 100 100 100 100 100 100 100 89 99 100 100 100 100 100 100 100 94 75 73 91
100 100 100 100 100 100 100 100 100 100 100 100 100 100 100 100 100 100 100 100 100 100 100 100 100 100 100 100 100 92 87 99 100 100 100 100 100 100 100 100 97 95 96 99
100 100 100 100 100 100 100 100 100 100 100 100 99 100 100 100 100 100 100 100 100 100 100 100 100 100 100 100 100 100 100 100 98 100 100 100 100 100 100 100 99 91 99 100

GFSNGP_prec_cloud_072.txt.gz
Cloud_Cover
38 5 5 83 5 5 5 33 52 5 4 11 0 4 74 12 5 6 14 18 3 0 2 2 13 66 75 65 52 91 100 100 100 100 100 100 100 100 100 100 100 100 100 99
100 88 5 96 25 5 5 14 45 6 5 5 0 3 5 5 6 14 87 100 10 5 4 5 26 80 100 98 100 100 100 100 100 100 100 100 100 100 100 100 100 92 100 100
100 91 28 100 31 11 4 5 5 9 5 5 3 4 5 80 73 96 68 88 89 68 6 1 38 70 100 100 100 100 100 99 100 100 100 100 100 98 100 100 98 99 100 100
100 36 97 100 74 70 56 100 5 5 5 5 5 5 5 4 0 9 70 100 98 99 97 44 61 96 100 100 100 98 93 82 83 66 98 100 100 52 100 100 100 100 100 100
100 100 100 100 100 22 25 100 7 5 5 5 5 5 5 5 5 3 2 0 23 93 100 100 93 82 73 72 78 56 42 36 79 100 100 79 64 100 99 100 100 100 100 98
73 99 100 100 100 55 9 100 5 81 8 5 59 61 5 5 5 5 5 1 3 6 46 100 100 100 100 100 100 100 100 100 94 66 70 100 90 100 100 100 100 100 96 7
88 100 100 100 100 70 20 100 47 85 80 98 98 45 100 28 18 28 26 5 5 6 5 32 40 91 100 95 81 93 100 100 100 100 95 100 91 94 100 100 96 26 13 32
79 96 100 100 99 26 63 62 98 100 100 100 100 36 98 100 100 67 49 24 26 17 8 5 26 59 90 98 94 100 100 100 100 100 100 100 100 100 95 94 99 81 86 10
100 100 100 100 100 96 95 13 7 90 100 100 100 100 100 100 100 95 56 85 6 42 26 90 87 98 100 91 47 24 91 100 100 100 100 100 100 96 61 35 64 69 80 65
86 98 100 100 100 92 28 80 75 63 100 100 100 100 71 100 100 100 88 98 5 96 24 5 22 32 85 8 5 9 70 91 98 97 92 98 56 46 47 99 83 19 33 30
100 99 100 100 100 71 93 84 43 84 87 100 100 52 8 94 100 100 100 98 100 100 100 23 6 27 19 5 6 62 89 100 100 100 100 100 94 94 85 81 34 15 18 33
100 100 100 96 96 92 100 100 100 100 100 97 86 15 19 92 94 100 100 100 100 100 100 38 8 65 64 56 93 89 100 97 100 100 100 90 53 96 91 11 5 5 58 72
100 100 100 100 100 100 100 100 99 13 88 86 94 100 76 82 100 100 100 100 100 79 61 8 99 100 99 98 100 89 85 93 96 100 100 100 100 100 64 54 7 18 11 54
98 86 89 100 100 100 100 100 77 100 95 94 72 100 98 80 98 65 51 76 58 29 49 100 100 100 100 100 100 96 97 100 100 100 100 100 95 80 44 46 58 73 80 91
56 36 23 94 100 100 100 98 100 100 99 90 98 100 94 93 67 55 52 54 76 100 100 100 100 100 100 100 100 99 100 100 100 100 100 92 90 78 69 86 100 94 63 71
6 34 87 91 100 100 92 76 100 100 94 76 100 98 90 100 93 100 100 100 100 100 100 100 100 100 100 100 100 96 100 99 100 100 97 88 74 94 80 78 75 93 94 100
5 7 36 91 96 54 51 34 55 100 100 100 100 96 100 100 100 100 100 100 100 100 100 100 100 100 100 100 100 100 100 100 100 100 80 85 79 77 95 100 100 100 100 100
29 41 80 94 98 60 100 95 95 100 100 100 100 100 100 100 100 100 100 100 100 100 100 100 100 100 100 100 100 100 100 100 100 100 95 100 97 91 96 100 100 100 100 100
50 83 96 100 100 100 100 100 100 100 100 100 100 100 100 100 100 100 100 100 100 100 100 100 100 100 100 100 100 100 100 100 100 100 98 97 100 100 100 100 100 100 100 100
100 63 100 100 100 100 100 100 100 100 100 100 100 100 100 100 100 100 100 100 100 100 100 100 100 100 100 100 100 100 100 100 99 100 100 100 100 100 100 100 100 100 100 100
100 100 100 100 100 100 100 100 100 100 100 100 100 100 100 100 100 100 100 100 100 100 100 100 100 100 100 100 100 100 100 100 100 100 100 100 100 100 100 100 100 100 100 100
100 100 100 100 100 100 100 100 100 100 100 100 100 100 100 100 100 100 100 100 100 100 100 100 100 100 100 100 98 100 100 100 100 100 100 100 100 100 100 100 100 100 100 100
100 100 100 100 98 100 100 100 100 100 100 100 100 100 100 100 100 100 100 100 100 100 100 100 100 100 100 100 100 100 100 100 100 100 100 100 100 100 100 100 100 100 100 100
100 100 100 100 85 88 100 100 100 99 100 97 95 100 100 100 100 100 100 100 100 99 95 100 100 100 100 100 100 100 100 100 100 100 100 100 100 100 100 100 100 100 100 100
100 100 100 100 100 100 98 98 100 100 100 100 100 100 100 100 100 100 100 100 100 99 100 100 100 100 100 100 100 100 100 100 100 100 100 100 100 100 100 100 100 100 100 100
100 100 100 100 100 100 100 100 100 100 100 100 100 100 100 100 100 100 100 99 100 98 100 100 99 95 100 100 100 100 100 100 100 100 100 100 100 100 100 100 100 100 100 100
100 100 100 100 100 100 100 100 100 100 100 100 100 100 100 100 100 100 100 100 100 100 100 100 100 100 100 100 100 100 100 100 100 100 100 100 100 100 100 100 100 100 100 100

GFSNGP_prec_cloud_075.txt.gz
Cloud_Cover
100 100 100 100 75 16 77 98 88 18 37 5 100 98 15 33 70 13 5 5 5 10 30 21 6 5 3 50 100 100 100 100 100 100 100 100 100 100 100 100 100 100 100 100
100 100 100 100 100 81 24 47 5 5 21 97 89 7 5 4 2 3 7 95 18 5 8 100 100 66 93 100 100 100 100 100 100 100 100 100 100 100 100 100 100 100 100 100
100 100 100 100 100 100 42 47 5 6 13 96 95 11 5 5 0 1 5 1 0 0 0 4 59 100 100 100 100 100 100 100 100 100 100 100 100 100 100 100 100 100 100 96
100 100 76 100 100 100 100 100 20 100 99 54 20 5 5 5 5 2 2 0 0 0 0 15 99 100 94 100 100 100 100 100 100 100 100 95 75 93 84 90 100 96 90 100
100 100 100 100 100 100 100 100 98 53 100 100 81 100 70 5 100 5 5 5 5 5 12 76 100 100 100 100 100 100 100 100 100 100 100 100 100 100 100 99 100 100 100 100
100 100 100 100 100 100 100 100 5 12 91 99 94 100 97 100 100 54 91 100 55 15 22 58 98 100 99 100 100 100 62 97 100 100 100 98 95 96 67 100 100 100 100 100
99 92 100 100 100 100 87 100 76 16 7 43 7 96 99 62 100 86 79 100 98 53 27 6 23 45 99 98 78 5 5 62 68 78 57 76 87 60 86 97 99 100 100 100
100 100 100 100 100 100 100 100 18 5 5 5 5 45 98 100 100 100 100 100 99 11 27 93 6 6 12 33 17 9 49 58 62 55 82 82 90 98 83 81 100 100 100 100
100 100 100 100 100 100 100 53 5 5 10 17 39 60 63 85 99 89 100 92 15 22 100 95 98 100 100 100 52 22 15 65 100 57 10 16 64 78 99 100 100 100 100 100
100 99 100 100 100 100 100 35 10 56 77 54 100 74 55 100 100 98 100 36 23 15 100 100 100 100 100 98 86 100 47 12 13 24 85 95 90 100 99 100 100 81 77 95
100 100 100 90 100 100 100 84 100 97 22 64 41 100 100 100 100 100 100 100 69 99 100 100 95 78 98 84 100 96 18 5 52 89 70 83 99 100 100 100 71 64 84 100
100 100 100 100 100 94 100 100 100 79 47 5 44 78 94 91 100 97 89 93 89 91 71 70 100 66 6 76 85 75 67 41 75 100 100 100 96 100 82 20 11 71 90 67
100 100 100 100 100 100 100 99 88 64 49 25 82 60 100 97 99 99 42 100 62 14 77 89 74 62 54 100 100 96 97 100 100 100 100 100 100 99 100 100 98 58 66 52
100 100 100 100 100 100 100 100 91 57 90 89 12 33 54 66 91 64 68 84 81 91 100 100 99 73 68 99 100 100 100 100 100 100 100 100 100 100 100 96 56 81 94 98
100 100 100 100 100 100 100 58 62 27 10 30 84 99 96 93 71 79 80 99 79 40 80 97 100 100 100 100 100 100 100 100 100 100 100 100 100 100 100 100 100 100 100 97
100 100 100 100 100 99 68 16 5 53 50 100 94 91 99 72 73 98 100 98 100 100 100 100 100 100 100 100 100 100 100 100 100 100 100 100 100 100 100 100 100 100 100 100
100 100 100 100 100 100 15 5 74 86 62 94 86 100 99 100 98 100 100 100 100 100 100 100 100 100 100 100 100 100 100 100 100 100 100 100 100 100 100 100 100 100 100 100
100 100 100 100 100 57 62 47 88 62 80 100 100 100 100 100 100 100 100 100 100 100 100 100 100 100 100 100 100 100 100 100 100 100 100 100 100 100 100 100 100 100 100 100
100 100 100 62 21 35 97 100 100 100 100 100 100 100 100 100 100 100 100 100 100 100 100 100 100 100 100 100 100 100 100 100 100 100 100 100 100 100 100 100 100 100 100 100
100 77 98 99 100 100 100 100 100 100 100 100 100 100 100 100 100 100 100 100 100 100 100 100 100 100 100 100 100 100 100 100 100 100 100 100 100 100 100 100 100 100 100 100
100 100 100 100 100 100 100 100 100 100 100 100 100 100 100 100 100 100 100 100 100 100 100 100 100 100 100 100 100 100 100 100 100 100 100 100 100 100 100 100 100 100 100 100
100 100 100 100 100 100 100 100 100 100 100 100 100 100 100 100 100 100 100 98 99 100 100 100 100 100 100 100 100 100 100 100 100 100 100 100 100 100 100 100 100 100 100 100
100 100 100 100 100 100 100 100 100 100 100 100 100 100 100 100 100 100 100 100 100 100 100 100 100 100 100 100 100 100 100 100 100 100 100 100 100 100 100 100 100 100 100 100
100 100 100 100 100 100 100 100 100 98 94 81 96 95 98 100 100 100 100 100 100 100 97 100 100 100 75 100 100 100 100 100 100 100 100 100 100 100 100 100 100 100 100 100
100 100 100 100 100 100 100 100 98 100 100 99 100 100 100 100 100 100 100 100 98 100 100 75 44 46 100 100 100 100 100 100 100 100 100 100 100 100 100 100 100 100 100 100
100 100 100 100 100 100 100 100 100 100 100 100 100 100 100 100 100 100 100 99 100 100 100 100 100 100 100 100 100 100 100 100 100 100 100 100 100 100 100 100 100 100 100 100
100 100 100 100 100 100 100 100 100 100 100 100 100 100 100 100 97 100 99 100 100 100 100 100 100 100 100 100 100 100 100 100 100 100 100 100 100 100 100 100 100 100 100 100

GFSNGP_prec_cloud_078.txt.gz
Cloud_Cover
100 100 100 89 100 100 100 64 54 4 9 5 89 51 10 44 90 19 100 100 39 2 5 5 0 0 0 96 72 31 14 78 100 100 100 100 100 100 100 100 100 99 100 100
100 49 100 100 100 100 100 100 100 57 5 5 5 62 9 92 20 5 5 5 5 0 0 0 0 0 0 14 5 44 100 100 100 100 100 100 100 100 98 100 100 100 100 100
46 100 99 66 100 100 100 100 100 96 73 8 96 100 84 88 34 5 5 14 6 0 0 0 0 1 1 0 9 36 100 100 100 100 100 100 100 100 100 100 100 100 100 100
100 100 30 96 100 100 100 100 100 100 100 95 29 100 90 52 5 5 5 57 17 4 4 97 4 1 1 4 32 94 100 100 100 100 100 100 100 100 100 100 100 100 100 100
100 100 85 97 100 100 100 100 100 100 100 100 100 100 49 5 7 9 100 100 68 5 6 100 35 5 25 99 100 97 100 100 100 100 100 100 100 100 100 100 100 100 79 76
100 100 42 100 100 100 100 100 100 100 100 100 100 96 15 5 5 5 6 53 86 6 61 98 13 8 98 78 100 100 100 100 100 100 100 100 100 100 100 100 100 70 92 61
100 100 100 100 100 100 100 100 100 100 88 91 83 82 17 27 15 17 8 43 98 100 72 98 24 74 93 100 100 100 100 100 100 100 100 100 100 100 75 100 96 31 46 58
100 100 54 100 100 100 100 100 100 100 90 28 40 98 66 100 80 68 76 10 13 90 100 100 100 100 58 97 100 100 100 100 100 100 100 100 100 99 99 96 6 72 100 100
100 97 82 100 100 100 100 100 100 89 37 5 90 14 22 66 60 100 66 5 6 99 100 100 100 100 100 99 100 100 98 98 100 65 100 100 100 100 23 76 98 96 100 100
100 100 100 100 100 100 100 100 100 70 6 64 54 6 79 100 92 15 5 5 7 7 77 97 99 96 100 100 100 97 100 100 84 100 99 100 100 94 100 100 100 100 100 100
100 100 100 100 100 100 100 80 90 90 65 42 38 100 100 100 74 21 5 7 6 21 26 50 53 59 83 92 100 94 100 100 100 91 85 82 96 100 100 100 100 100 100 100
84 100 100 100 100 100 100 100 100 71 80 94 89 98 100 72 87 13 84 40 5 49 29 37 96 97 100 100 100 100 100 100 100 100 100 100 100 100 100 100 100 100 100 100
100 100 100 100 100 99 100 100 100 100 100 97 64 44 67 6 78 63 96 90 79 44 46 53 91 100 100 100 100 100 100 100 100 100 100 100 100 100 100 100 100 100 100 100
100 96 100 100 100 100 100 100 100 100 82 80 95 37 86 100 100 98 81 89 86 100 100 100 100 100 98 100 100 100 100 100 100 100 100 100 100 100 100 100 100 100 100 100
100 100 100 100 100 100 98 57 100 100 100 100 100 100 100 100 93 76 98 100 100 100 100 100 100 100 100 100 100 100 100 100 100 100 100 100 100 100 100 100 100 100 100 100
100 100 100 100 100 100 100 100 100 100 100 100 100 100 100 100 82 85 100 100 100 100 100 100 100 100 100 100 100 100 100 100 100 100 100 100 100 100 100 100 100 100 100 100
100 99 92 98 100 100 100 100 100 100 100 100 100 100 98 100 100 100 100 100 100 100 100 100 100 100 100 100 100 100 100 100 100 100 100 100 100 100 100 100 100 100 100 100
69 62 55 43 72 99 100 100 100 100 100 100 100 100 100 100 100 100 100 100 100 100 100 100 100 100 100 100 100 100 100 100 100 100 100 100 100 100 100 100 100 100 100 100
17 52 68 80 90 100 100 100 100 100 100 100 100 100 100 100 100 100 100 100 100 100 100 100 100 100 100 100 100 100 100 100 100 100 100 100 100 100 100 100 100 100 95 95
86 97 98 100 100 100 100 100 100 100 100 100 100 100 100 100 100 100 100 100 100 100 100 100 99 100 100 100 100 100 100 100 100 100 100 100 100 100 100 100 100 100 100 100
100 100 100 100 100 100 100 100 100 100 100 100 100 100 100 100 100 100 100 100 100 100 100 100 95 100 100 87 83 84 98 100 100 100 100 100 100 100 100 100 100 100 100 100
100 100 100 100 100 100 100 100 100 100 100 100 100 100 100 100 100 100 100 100 95 100 100 100 100 96 100 99 100 100 100 100 98 100 100 100 100 100 100 100 100 100 100 100
100 100 100 100 100 100 100 100 100 100 100 100 100 100 96 100 100 100 100 100 96 100 100 99 100 100 98 78 99 98 98 100 100 100 100 100 100 100 100 100 100 100 100 100
100 100 100 100 100 100 100 100 100 99 100 100 100 100 100 100 100 98 98 100 100 97 88 69 78 81 52 94 100 99 100 100 99 100 100 99 100 100 100 100 100 100 100 100
100 100 100 100 100 100 100 100 100 100 100 100 100 100 100 100 100 100 100 88 56 94 78 39 55 44 74 100 98 97 100 100 100 100 100 100 100 100 100 100 100 100 100 100
100 100 100 100 100 100 100 100 100 100 100 100 100 100 100 98 100 94 45 76 44 38 96 99 100 100 100 100 51 98 100 100 100 100 100 100 100 100 100 100 100 100 100 100
100 100 100 100 100 100 100 100 100 100 100 96 97 95 91 100 91 95 99 99 92 100 100 100 100 100 100 100 100 100 100 100 100 100 100 100 100 100 100 100 100 100 100 100

GFSNGP_prec_cloud_081.txt.gz
Cloud_Cover
100 100 100 100 100 100 29 100 99 92 87 31 45 47 42 4 5 3 5 5 5 5 2 0 0 0 0 0 4 4 40 76 96 99 100 100 100 100 98 100 93 100 90 100
100 100 100 100 79 97 86 100 100 100 100 100 97 5 13 100 67 27 8 5 5 5 8 36 0 0 3 37 55 73 100 100 100 100 100 100 100 100 100 100 100 100 100 100
91 100 100 100 82 97 100 100 100 100 100 100 100 96 36 90 7 4 37 5 4 5 44 5 5 11 83 99 98 100 100 100 100 100 100 100 100 100 100 100 100 100 100 100
99 100 82 100 100 100 100 100 100 100 100 100 100 100 100 100 99 79 28 4 0 5 4 1 4 40 54 73 98 96 100 100 100 100 100 100 100 100 100 100 100 100 100 100
100 100 25 95 100 100 100 100 100 100 100 100 100 78 36 99 100 70 53 8 5 5 7 17 41 18 43 80 98 100 100 100 100 100 100 100 100 100 100 100 100 100 100 93
100 100 24 100 100 100 100 100 100 100 100 100 100 100 100 100 100 90 94 21 5 5 5 6 5 5 18 100 100 100 100 100 100 100 100 100 100 100 100 100 100 100 100 84
100 100 94 100 100 100 100 100 100 100 100 100 100 100 100 100 100 83 6 5 7 7 78 85 13 5 6 68 100 100 100 100 100 100 100 100 100 100 100 100 100 91 59 81
100 100 99 100 100 100 100 100 100 100 100 100 100 100 100 100 100 100 30 5 24 97 100 83 78 5 5 25 56 51 54 95 100 100 100 100 100 100 100 100 100 100 94 100
100 100 100 100 100 100 100 100 98 26 5 45 11 21 76 100 99 97 80 5 62 100 100 69 34 5 5 55 37 5 73 92 100 100 100 100 100 100 100 100 100 100 100 97
100 100 100 100 100 100 100 100 100 27 91 100 99 100 100 76 16 74 77 16 99 96 17 72 54 5 10 5 18 66 99 100 100 100 100 100 100 100 100 100 100 100 100 100
100 100 100 100 100 100 100 100 98 98 96 64 90 88 75 78 66 57 99 100 80 56 76 51 60 43 50 91 37 96 100 100 100 100 100 100 100 100 100 100 100 100 100 100
99 100 100 100 100 100 100 100 100 100 100 68 99 94 79 72 84 100 93 79 95 94 100 97 60 96 68 96 100 100 100 100 100 100 100 100 100 100 100 100 100 100 100 100
100 100 100 100 100 100 100 100 100 100 75 83 91 98 99 100 100 84 99 95 100 100 100 100 100 100 100 100 100 100 100 100 100 100 100 100 100 100 100 100 100 100 100 100
100 100 100 100 100 100 100 100 100 100 100 100 72 88 99 99 99 100 85 62 100 100 100 100 100 100 100 100 100 100 100 100 100 100 100 100 100 100 100 100 100 100 100 100
100 100 100 100 100 100 100 100 100 100 100 100 100 100 100 100 82 89 86 95 100 100 100 100 100 100 100 100 100 100 100 100 100 100 100 100 100 100 100 100 100 100 100 100
100 100 100 100 100 100 100 100 100 100 100 100 100 100 100 100 100 100 100 100 100 100 100 100 100 100 100 100 100 100 100 100 100 100 100 100 100 100 100 100 100 100 100 100
100 100 100 100 100 100 100 100 100 100 100 100 100 100 100 100 100 100 100 100 100 100 100 100 100 100 100 100 100 100 100 100 100 100 100 100 100 100 100 100 100 100 100 100
100 100 100 100 100 100 100 100 100 100 100 100 100 100 100 100 100 100 100 100 100 100 100 100 100 100 100 100 100 100 100 100 100 100 100 100 100 100 100 100 100 100 100 100
100 100 100 100 100 100 100 100 100 100 100 100 100 100 100 100 100 100 100 100 100 100 100 100 100 100 100 100 100 100 100 100 100 98 100 100 100 100 100 100 98 99 99 88
100 100 100 100 100 100 100 100 100 100 100 100 100 100 100 100 100 97 99 100 100 100 100 100 100 100 100 100 100 100 100 100 97 97 100 100 95 78 81 92 100 100 100 100
100 100 100 100 100 97 100 100 100 100 100 100 100 100 100 100 100 100 100 100 100 100 100 100 100 100 100 100 100 100 100 81 67 54 42 72 80 75 96 99 100 100 100 99
100 100 100 100 100 100 100 100 100 100 100 100 100 100 100 100 100 100 100 100 100 100 100 100 100 100 100 100 96 38 6 7 45 69 94 98 96 98 100 96 93 100 98 99
100 100 100 100 100 100 100 100 100 100 100 100 100 100 100 100 100 100 100 100 100 100 100 100 100 100 100 90 93 90 78 41 69 98 100 100 100 99 92 100 100 100 100 100
100 100 100 100 100 100 100 100 100 100 100 100 100 100 100 100 100 100 100 100 100 100 100 100 100 73 59 36 76 76 70 89 92 76 93 91 98 100 100 92 99 100 100 96
100 100 100 100 100 100 100 100 100 100 100 100 100 100 100 100 100 100 100 100 100 100 100 100 24 52 7 5 10 73 33 33 95 96 100 98 84 99 80 91 97 98 99 87
100 100 100 100 100 100 100 100 100 100 100 100 100 100 100 100 100 100 100 100 90 47 90 89 64 14 5 19 47 30 28 62 93 88 56 48 47 95 93 75 60 13 35 45
100 100 100 100 100 100 100 100 100 100 100 100 100 100 100 100 100 100 82 10 5 5 14 40 27 5 5 46 19 13 50 80 25 8 5 50 96 73 17 5 14 43 57 79

GFSNGP_prec_cloud_084.txt.gz
Cloud_Cover
100 100 100 100 100 100 91 89 100 100 100 5 60 85 96 73 94 83 5 2 0 0 0 4 2 3 1 0 0 0 0 77 100 100 100 100 100 100 100 100 100 100 100 100
5 100 100 100 100 100 100 100 100 100 56 31 86 100 100 100 91 55 46 1 3 5 0 0 3 5 25 19 26 5 1 93 100 100 100 100 100 100 100 100 100 100 100 100
1 100 100 100 80 85 85 100 100 100 100 100 100 100 100 100 100 100 9 5 5 5 5 1 2 1 63 100 91 86 100 100 100 100 100 100 100 100 100 100 100 100 100 100
98 22 83 5 100 100 100 100 100 100 100 100 100 100 100 100 100 60 36 80 5 8 85 68 96 98 100 100 100 100 100 100 100 100 100 100 100 100 100 100 100 100 100 100
93 10 4 4 100 100 100 100 100 100 100 100 100 65 99 100 100 15 5 11 94 27 58 100 100 100 100 100 100 100 100 100 100 100 100 100 100 100 100 100 100 100 100 100
100 100 14 98 100 100 100 100 100 100 100 100 100 100 81 100 100 68 6 100 100 98 78 62 76 78 100 100 100 100 100 100 100 100 100 100 100 100 100 100 100 100 100 100
91 100 76 100 100 100 100 93 100 100 100 100 100 100 100 100 100 100 100 100 100 99 96 56 62 38 76 96 100 100 100 98 100 100 100 100 100 100 100 100 100 100 100 100
100 100 78 100 100 100 95 100 100 100 100 100 100 100 100 100 100 100 100 100 67 99 100 92 62 99 100 51 53 64 99 98 100 100 100 100 100 100 100 100 100 100 100 100
6 28 100 100 100 100 100 100 100 100 100 100 100 100 100 100 95 87 7 19 96 100 100 100 100 100 100 98 100 100 78 100 100 100 100 100 100 100 100 100 100 100 100 100
2 22 100 100 100 100 100 100 100 100 100 100 100 100 100 99 99 46 30 100 100 100 100 100 100 100 100 81 98 99 100 100 100 100 100 100 100 100 100 100 100 100 100 100
82 100 100 100 100 100 100 100 100 100 100 100 100 100 94 96 82 96 44 75 100 100 100 100 100 100 98 82 100 100 99 100 100 100 100 100 100 100 100 100 100 100 100 100
100 100 100 100 100 100 100 100 100 100 100 100 100 100 100 85 36 64 90 100 99 64 77 100 100 100 100 100 100 100 100 100 100 100 100 100 100 100 100 100 100 100 100 100
100 100 100 100 100 100 100 100 100 100 100 100 100 100 100 97 99 99 100 100 100 98 100 100 87 94 100 100 100 100 100 100 100 100 100 100 100 100 100 100 100 100 100 100
98 100 100 100 100 100 100 100 100 100 100 100 100 100 100 100 100 100 100 98 98 100 100 80 48 96 100 100 100 100 100 100 100 100 100 100 100 100 100 100 100 100 100 100
39 100 100 100 100 100 100 100 100 100 100 98 88 87 86 100 94 100 91 78 100 100 97 87 100 100 100 100 100 100 100 100 100 100 100 100 100 100 100 100 100 100 100 100
92 100 100 100 100 100 100 100 100 100 100 100 100 100 97 100 84 99 100 100 100 100 100 100 100 100 100 100 99 93 99 100 100 100 100 100 100 100 100 100 100 100 100 100
100 100 100 100 100 100 100 100 100 100 100 100 100 100 100 100 100 100 100 100 100 100 100 100 100 100 99 99 96 99 100 100 100 100 100 100 100 100 100 100 100 100 99 100
100 100 100 100 100 100 100 100 100 100 100 100 100 100 100 100 100 100 100 100 100 100 100 100 100 100 100 98 94 100 100 100 100 100 100 100 100 100 100 100 100 100 100 100
100 100 100 100 100 100 99 100 100 100 100 100 100 100 100 100 100 100 100 100 100 100 100 100 100 100 100 87 96 100 100 100 100 100 100 100 100 100 100 98 90 100 100 100
100 100 100 100 100 100 100 100 100 100 100 100 100 100 100 100 100 100 100 100 100 100 100 90 96 96 100 100 100 100 100 100 100 100 100 100 85 96 78 78 96 91 85 94
100 100 100 100 100 100 100 100 100 100 100 100 100 100 100 100 100 100 100 100 100 100 100 100 100 100 100 100 100 100 100 100 100 100 96 86 82 89 99 98 89 94 99 100
100 100 100 100 100 100 100 100 100 100 100 100 100 100 100 100 100 100 100 100 100 100 100 100 100 100 100 100 100 100 100 100 98 60 73 76 86 86 89 92 100 100 100 100
100 100 100 100 100 100 100 100 100 100 100 100 100 100 100 100 100 100 100 100 100 100 100 100 100 100 100 100 100 100 95 94 98 92 93 96 100 100 100 100 99 96 97 100
100 100 100 100 100 100 100 100 100 100 100 100 100 100 100 100 100 100 100 100 100 100 100 100 100 100 100 100 100 78 99 100 98 100 79 64 97 100 100 97 99 75 72 88
100 100 100 100 100 100 100 100 100 100 100 100 100 100 100 100 100 100 100 100 100 100 100 100 100 97 72 73 74 90 100 100 95 58 73 100 100 100 76 75 98 66 77 93
100 100 100 100 100 100 100 100 100 100 100 100 100 100 100 100 100 100 100 100 100 100 100 81 47 54 16 5 60 100 61 40 12 53 88 100 100 100 92 79 95 99 99 100
100 100 100 100 100 100 100 100 100 100 100 100 100 100 100 100 100 100 94 71 47 35 66 54 53 38 5 16 95 100 72 7 35 62 100 100 100 100 100 100 100 90 81 34

GFSNGP_prec_cloud_087.txt.gz
Cloud_Cover
5 1 5 91 100 100 32 5 5 12 61 100 58 93 100 100 90 99 88 48 37 5 0 0 0 1 0 0 0 0 0 0 2 1 5 28 84 93 100 100 100 100 100 100
5 5 25 100 99 95 78 27 5 5 12 100 94 72 100 100 100 100 100 66 8 5 1 0 4 3 0 3 1 5 5 5 31 55 63 78 91 100 100 100 100 100 100 100
34 11 100 98 0 21 74 89 51 12 82 100 100 26 66 100 100 100 100 100 72 8 5 5 2 5 6 28 19 7 67 100 100 100 100 100 100 100 100 100 100 100 100 100
100 93 73 1 54 99 87 91 100 98 100 98 100 54 100 100 100 100 100 100 86 21 2 100 99 94 88 89 100 100 100 100 100 100 100 100 100 100 100 100 100 100 100 100
100 100 2 0 86 100 99 100 100 100 99 66 98 93 100 100 100 100 100 97 5 3 77 100 100 100 100 100 100 100 100 100 100 100 100 100 100 100 100 100 100 100 100 100
100 100 16 72 94 100 100 100 100 100 100 100 100 100 100 100 100 100 100 95 57 98 100 100 100 100 100 100 100 100 100 100 100 100 100 100 100 100 100 100 100 100 100 100
100 100 83 58 55 67 58 48 100 100 100 100 100 100 100 100 100 100 100 100 84 38 100 100 100 100 100 100 100 100 100 100 100 100 100 100 100 100 100 100 100 100 100 100
100 100 95 100 42 7 27 100 100 100 100 100 100 98 100 100 100 100 100 100 100 99 100 100 100 94 100 98 100 100 100 100 100 100 100 100 100 100 100 100 100 100 100 100
100 100 59 83 49 98 96 92 100 100 100 100 100 98 100 100 100 100 100 100 100 100 100 100 100 33 32 96 100 100 100 100 100 100 100 100 100 100 100 100 100 100 100 100
100 100 100 86 98 94 100 100 100 100 100 100 100 100 99 100 100 100 100 100 100 100 100 88 60 92 94 100 100 100 100 100 100 100 100 100 100 100 100 100 100 100 100 100
96 100 100 100 100 90 100 100 100 100 100 100 100 100 97 100 100 100 100 100 100 100 79 92 49 40 87 78 68 78 88 93 100 100 100 100 100 100 100 100 100 100 100 100
100 100 91 100 100 100 100 100 100 100 100 100 100 100 100 100 100 100 100 100 100 97 100 85 58 87 100 82 52 81 99 100 100 100 100 100 100 100 100 100 100 100 100 100
100 100 55 64 100 100 100 100 100 100 100 100 100 100 100 100 100 100 100 100 100 100 100 59 100 100 100 100 100 100 100 100 100 100 100 100 100 100 100 100 100 100 100 100
8 5 42 64 100 100 100 100 100 100 100 100 100 100 100 100 100 100 100 100 100 97 93 99 97 100 100 100 100 100 100 100 100 100 100 100 100 100 100 100 100 100 100 100
0 2 7 98 100 100 100 100 100 100 100 100 100 100 100 100 100 100 100 99 63 100 97 92 100 100 100 100 100 100 100 100 100 100 100 100 100 100 94 90 100 100 100 100
5 56 4 99 100 100 100 100 100 100 100 100 100 100 100 100 100 99 98 100 100 100 100 100 100 100 100 99 100 100 100 100 100 100 100 100 97 70 76 88 100 100 100 100
67 86 100 100 100 100 100 100 100 100 100 100 100 100 100 100 100 100 100 100 100 100 100 100 100 99 100 100 100 100 100 100 100 100 100 64 100 69 54 100 100 100 100 100
100 42 100 100 100 100 100 100 100 100 100 100 100 100 100 100 100 100 100 100 100 100 100 100 100 100 100 100 100 100 100 100 93 89 71 76 97 98 100 100 100 100 100 100
11 14 95 100 100 100 100 100 100 100 100 100 100 100 100 100 100 100 100 100 100 100 100 100 100 100 100 100 100 100 90 70 86 82 77 96 100 100 100 99 100 100 87 77
97 100 98 100 100 100 100 100 100 100 100 100 100 100 100 100 100 100 100 100 100 100 100 100 100 100 100 100 100 98 48 31 71 100 100 100 100 95 100 99 82 84 93 92
100 100 100 100 100 100 100 100 100 100 100 100 100 100 100 100 100 100 100 100 100 100 100 100 100 100 100 91 91 100 93 100 100 100 100 100 63 77 98 99 63 94 87 94
100 100 100 100 100 100 100 100 100 100 100 100 100 100 100 100 100 100 100 100 100 100 100 99 98 97 97 100 100 100 100 99 86 71 86 96 100 100 100 100 100 99 85 68
100 100 100 100 100 100 100 100 100 100 100 100 100 100 100 100 100 100 100 100 100 100 100 100 99 100 100 100 100 100 84 98 100 100 100 100 100 100 100 100 100 98 100 92
100 100 100 100 100 100 100 100 100 100 100 100 100 100 100 100 100 100 100 100 98 84 100 100 100 100 100 100 64 99 100 98 100 100 88 100 100 99 73 90 74 80 86 97
100 100 100 100 100 100 100 100 100 100 100 100 100 100 100 100 100 100 100 100 100 100 100 100 100 91 45 92 94 100 99 95 87 97 100 100 100 100 100 100 100 99 100 100
100 100 100 100 100 100 100 100 100 100 100 100 100 100 100 100 100 100 100 100 100 100 92 57 48 55 79 94 97 70 24 46 86 100 100 100 100 100 100 96 100 100 97 82
100 100 100 100 100 100 100 100 100 100 100 100 100 100 100 100 100 100 100 100 85 82 80 78 46 36 78 99 100 98 64 93 100 100 100 100 100 100 100 100 100 75 44 40

GFSNGP_prec_cloud_090.txt.gz
Cloud_Cover
99 100 100 100 100 100 87 69 4 82 77 100 20 49 100 100 100 100 100 10 75 56 5 0 2 9 5 2 0 0 0 0 0 0 0 0 0 2 66 100 96 100 99 100
94 86 100 6 5 8 5 5 0 2 7 100 75 58 99 74 100 100 100 94 89 49 100 5 0 0 3 1 0 0 0 0 0 0 0 0 0 5 34 91 100 100 100 100
51 70 100 97 5 5 3 5 5 5 33 77 92 100 98 100 100 100 100 100 100 100 100 100 38 1 0 0 2 2 1 5 20 16 14 59 66 84 95 100 100 100 100 100
97 100 91 9 1 0 0 0 5 5 43 49 100 100 75 80 100 100 100 100 100 100 100 100 98 87 99 98 82 44 88 98 100 100 100 100 100 100 100 100 100 100 100 100
95 100 72 100 53 0 0 0 4 4 36 39 100 44 100 100 100 100 100 100 100 100 100 100 100 100 100 100 100 100 100 100 100 100 100 100 100 100 100 100 100 100 100 100
100 100 96 100 100 95 5 0 100 98 78 100 100 86 100 100 100 100 100 100 100 100 100 100 100 100 100 100 100 100 100 100 100 100 100 100 100 100 100 100 100 100 100 100
100 100 86 100 96 96 12 6 100 90 100 100 100 100 100 100 99 100 100 100 100 100 100 100 100 100 100 100 100 100 100 100 100 100 100 100 100 100 100 100 100 100 100 100
100 100 100 100 100 100 90 78 77 27 100 100 100 100 100 100 100 100 100 100 100 100 100 100 100 100 100 100 100 100 100 100 100 100 100 100 100 100 100 100 100 100 100 100
100 100 100 100 100 100 100 100 88 42 100 100 100 100 100 100 100 100 100 100 100 100 100 100 100 100 100 100 100 100 100 100 100 100 100 100 100 100 100 100 100 100 100 100
100 100 100 100 100 88 77 16 52 99 99 100 100 100 100 100 100 100 100 100 100 100 100 100 100 100 88 100 100 100 100 99 100 100 100 100 100 100 100 100 100 100 100 100
100 100 100 100 48 8 32 34 98 92 100 100 100 100 100 100 100 100 100 100 100 100 100 100 100 100 100 100 100 88 24 94 100 100 100 100 100 100 100 100 100 100 100 100
100 100 100 100 99 100 23 74 100 87 75 100 100 100 100 100 100 100 100 100 100 100 88 100 95 91 100 100 76 61 76 100 97 100 100 100 100 100 100 100 100 100 100 100
100 100 100 50 5 17 18 80 81 93 94 100 100 100 100 100 100 100 100 100 100 100 100 100 100 100 99 87 98 100 99 100 100 100 99 100 85 100 100 100 100 100 100 100
100 100 100 100 5 62 63 100 100 90 100 100 100 100 100 100 100 100 100 100 100 100 100 100 100 100 100 100 100 100 94 84 95 90 89 100 100 100 100 100 100 100 100 100
89 100 100 82 19 97 100 97 100 100 100 100 100 100 100 100 100 100 100 100 100 100 100 100 100 100 100 100 95 88 81 93 92 100 100 100 100 100 100 100 100 100 100 100
6 94 100 100 96 100 100 100 100 100 100 100 100 100 100 100 100 100 100 100 100 100 100 100 100 100 98 100 92 67 78 98 100 100 100 100 100 100 100 100 100 100 100 100
99 100 100 100 100 100 100 100 100 100 100 100 100 100 100 100 100 100 100 100 100 100 100 100 100 100 100 100 100 100 100 100 80 94 100 100 100 96 69 58 88 100 100 43
100 100 100 100 98 100 100 100 100 100 100 100 100 100 100 100 100 100 100 100 100 100 100 100 100 100 100 100 100 100 100 97 99 100 100 100 97 78 90 91 94 98 94 43
100 100 100 100 91 100 100 100 100 100 100 100 100 100 100 100 100 100 100 100 100 100 100 100 100 100 100 100 100 100 100 100 100 100 99 67 12 41 50 76 97 100 99 98
100 100 100 100 99 84 100 100 100 100 100 100 100 100 100 100 100 100 100 100 100 100 100 100 100 100 99 100 100 100 100 100 88 65 35 12 17 59 47 59 75 86 86 88
100 100 100 100 100 100 100 100 100 100 100 100 100 100 100 100 100 100 100 100 100 100 100 100 100 100 100 100 100 100 80 55 26 62 47 89 95 98 100 100 100 100 91 91
100 100 100 100 100 100 100 100 100 100 100 100 100 100 100 100 100 100 100 100 100 100 100 100 100 100 100 97 73 68 41 12 40 11 70 82 100 100 100 100 100 96 100 99
100 100 100 100 100 100 100 100 100 100 100 100 100 100 100 100 100 100 100 100 100 100 100 100 100 100 96 94 31 9 5 36 98 100 100 100 100 100 100 95 68 100 100 100
100 100 100 100 100 100 100 100 100 100 100 100 100 100 100 100 100 100 100 100 100 100 100 100 100 97 41 17 5 26 13 97 100 100 100 100 100 93 89 100 97 100 100 99
100 100 100 100 100 100 100 100 100 100 100 100 100 100 100 100 100 100 100 100 100 100 100 92 93 53 5 6 6 63 82 98 99 100 100 100 100 100 100 100 100 94 85 78
100 100 100 100 100 100 100 100 100 100 100 100 100 100 100 100 100 100 100 100 100 99 94 70 76 47 46 60 69 76 99 80 100 100 100 100 100 48 100 69 90 89 96 84
100 100 100 100 100 100 100 100 100 100 100 100 100 100 100 100 100 100 100 100 100 98 72 94 96 72 100 100 100 100 100 100 100 100 100 73 70 100 100 100 100 90 68 62

GFSNGP_prec_cloud_093.txt.gz
Cloud_Cover
100 100 100 100 100 100 100 66 5 99 100 100 100 100 100 7 52 86 43 100 100 39 5 100 82 4 4 0 0 0 2 0 0 0 0 0 0 0 0 0 37 92 47 93
47 99 100 100 100 100 100 100 100 100 100 100 100 100 100 6 6 100 96 100 100 100 72 98 99 85 5 2 1 0 0 0 0 0 0 0 0 1 25 34 84 99 100 100
96 19 32 49 86 6 20 88 88 7 98 100 100 100 100 99 5 100 70 99 100 100 87 24 100 55 28 11 15 3 0 0 0 5 5 5 5 99 100 59 71 79 99 100
78 94 75 4 20 27 5 5 12 5 10 41 98 100 100 96 7 96 100 100 100 100 100 72 98 100 100 100 100 9 6 33 25 20 56 84 92 80 94 100 100 100 100 100
21 81 2 1 93 24 22 15 5 5 7 27 5 58 100 100 100 100 100 90 100 100 100 90 98 100 100 100 100 100 100 100 100 98 100 100 100 100 100 100 100 100 100 100
29 97 4 0 10 59 68 7 5 5 3 0 10 9 98 100 100 83 95 100 100 100 100 100 100 100 100 100 100 100 100 100 100 100 100 100 100 100 100 100 100 100 100 100
49 100 18 98 100 100 100 74 9 22 5 5 5 3 60 100 100 100 100 100 100 100 100 100 100 100 100 100 100 100 100 100 100 100 100 100 100 100 100 100 100 100 100 100
89 100 99 100 98 100 100 100 100 92 32 5 5 8 97 100 100 100 100 100 100 100 100 100 100 100 100 100 100 100 100 100 100 100 100 100 100 100 100 100 100 100 100 100
100 100 100 100 100 100 100 100 100 99 63 54 70 100 100 100 100 100 100 100 100 100 100 100 100 100 100 100 100 100 100 100 100 100 100 100 100 100 100 100 100 100 100 100
100 100 100 100 100 99 100 100 100 100 88 61 100 100 100 100 100 100 100 100 100 100 100 100 100 100 100 100 100 100 100 100 100 100 100 100 100 100 100 100 100 100 100 100
100 100 100 100 100 100 100 100 100 98 90 100 100 100 100 100 100 100 100 100 100 100 100 100 100 100 100 100 96 85 92 100 100 100 100 100 100 100 100 100 99 95 100 100
100 100 100 100 100 100 99 100 99 83 16 76 82 100 100 100 100 100 100 100 100 100 100 100 100 100 100 100 95 90 99 100 100 92 100 100 100 100 100 100 100 80 85 85
100 100 100 100 99 50 100 61 90 89 99 100 100 100 100 100 100 100 100 100 100 100 100 100 100 100 100 100 100 100 100 100 100 100 100 89 98 100 100 100 100 100 100 100
74 100 100 100 100 100 99 100 97 97 99 97 100 100 100 100 100 100 100 100 100 100 100 100 100 100 100 100 100 100 100 100 100 100 94 99 100 98 100 100 100 100 100 100
0 99 100 100 100 100 100 90 98 60 100 100 100 100 100 100 100 100 100 100 100 100 100 100 100 100 100 100 100 100 100 100 100 100 100 81 90 100 100 99 100 100 100 100
0 0 36 100 100 100 100 100 100 100 100 100 100 100 100 100 100 100 100 100 100 100 100 100 100 100 100 100 100 100 100 100 100 100 100 100 100 100 100 100 100 100 100 100
0 0 0 0 91 100 100 100 100 100 100 100 100 100 100 100 100 100 100 100 100 100 100 100 100 100 100 100 100 100 100 100 100 100 100 100 100 100 78 99 100 100 100 95
0 0 2 13 100 100 100 100 100 100 100 100 100 100 100 100 100 100 100 100 100 100 100 100 100 100 100 100 100 100 100 100 100 100 100 97 75 58 78 77 79 84 100 100
5 5 24 99 100 100 100 100 100 100 100 100 100 100 100 100 100 100 100 100 100 100 100 100 100 100 100 100 100 100 100 100 100 100 61 32 5 42 68 74 89 99 100 100
82 22 35 100 100 100 100 100 100 100 100 100 100 100 100 100 100 100 100 100 100 100 100 100 100 100 100 100 100 100 100 100 90 47 9 8 24 76 77 37 76 90 83 96
100 100 98 100 100 100 100 100 100 100 100 100 100 100 100 100 100 100 100 100 100 100 100 100 100 100 100 100 100 100 96 88 76 35 98 78 62 59 62 53 7 30 68 90
100 100 100 100 100 100 100 100 100 100 100 100 100 100 100 100 100 100 100 100 100 100 100 100 100 100 100 100 100 100 78 29 70 100 50 46 16 5 5 24 71 97 100 100
100 100 100 100 100 100 100 100 100 100 100 100 100 100 100 100 100 100 100 100 100 100 100 100 100 100 100 98 92 89 100 100 100 70 43 5 5 42 75 86 94 98 94 94
100 100 100 100 100 100 100 100 100 100 100 100 100 100 100 100 100 100 100 100 100 100 100 84 77 76 98 100 100 100 99 66 57 22 9 58 73 85 79 76 74 87 97 90
100 100 100 100 100 100 100 100 100 100 100 100 100 100 100 100 100 100 100 100 97 100 97 98 100 100 100 100 82 21 16 48 62 67 75 70 70 70 77 82 90 100 100 100
100 100 100 100 100 100 100 100 100 100 100 100 100 100 100 100 100 100 100 100 100 100 100 100 100 98 87 77 48 44 66 62 81 74 51 60 63 82 93 100 100 100 100 100
100 100 100 100 100 100 100 100 100 100 100 100 100 100 100 100 100 100 100 100 100 100 98 96 90 85 76 71 81 88 94 91 62 38 51 64 81 100 100 100 100 100 100 100

GFSNGP_prec_cloud_096.txt.gz
Cloud_Cover
21 100 100 100 100 100 98 71 9 90 99 100 100 100 100 100 100 100 100 100 100 75 76 100 48 5 5 5 5 0 0 0 0 0 0 0 4 5 5 49 85 81 33 5
40 90 100 100 94 98 100 100 100 100 99 100 100 100 100 100 100 100 80 93 85 80 9 100 100 100 86 53 5 0 0 1 0 0 0 0 0 2 0 0 0 0 1 18
22 57 76 32 100 83 94 100 16 4 88 100 100 100 100 100 100 100 100 98 100 92 36 100 100 100 100 88 4 5 5 0 2 1 5 5 13 39 75 73 86 56 80 100
72 72 82 51 100 100 100 100 100 50 100 100 100 100 100 100 100 100 100 62 70 100 100 63 95 100 100 99 100 30 37 12 4 6 25 52 89 100 100 100 100 100 100 100
96 4 1 21 54 95 100 65 13 5 18 100 100 100 100 100 100 100 98 49 100 57 99 88 100 100 96 90 94 100 100 100 98 95 99 98 100 100 100 100 100 100 100 100
100 95 16 14 82 92 83 89 52 6 78 100 5 5 94 100 100 100 100 100 100 55 63 90 33 100 100 100 100 100 100 100 100 100 100 100 100 100 100 100 100 100 100 100
97 100 97 28 24 8 28 93 24 5 82 99 69 2 7 6 99 100 100 100 100 100 100 100 100 100 100 100 100 100 100 100 100 100 100 100 100 100 100 100 100 100 100 100
99 100 90 15 16 90 89 19 57 17 76 100 63 0 16 100 100 100 100 100 100 100 100 100 100 100 100 100 100 100 100 100 100 100 100 100 100 100 100 100 100 100 100 100
60 62 73 30 100 100 98 100 100 12 100 100 100 56 100 100 100 100 100 100 100 100 100 100 100 100 100 100 100 100 100 100 100 100 100 100 100 100 100 100 100 100 100 100
100 100 100 100 100 100 100 100 100 100 100 100 100 97 100 100 100 100 100 100 100 100 100 100 100 100 100 100 100 100 100 100 100 100 100 100 100 100 100 100 100 100 100 100
100 100 100 100 100 100 100 100 100 100 100 98 80 100 100 100 100 100 100 100 100 100 100 100 100 100 100 100 100 100 100 100 100 100 100 100 99 100 100 100 100 100 100 100
100 100 100 100 100 100 100 100 100 100 100 100 100 100 100 100 100 100 100 100 100 100 100 100 100 100 100 100 100 100 100 100 100 100 100 100 100 100 100 100 100 100 100 100
9 100 100 100 100 100 66 94 100 100 100 100 100 100 100 100 100 100 100 100 100 100 100 100 100 100 100 100 92 100 100 100 100 100 100 100 100 100 100 100 100 100 100 100
6 78 100 100 100 79 96 100 100 100 100 100 100 100 100 100 100 100 100 100 100 100 100 100 100 100 100 100 100 100 100 100 100 100 100 100 100 100 100 100 100 100 100 100
24 37 39 100 100 90 92 100 99 89 100 100 100 100 100 100 100 100 100 100 100 100 100 100 100 100 100 100 100 100 100 100 99 100 100 100 100 100 100 100 100 100 100 97
75 10 5 14 100 100 100 93 74 98 100 100 100 100 100 100 100 100 100 100 100 100 100 100 100 100 100 100 100 100 100 100 100 100 100 100 100 100 100 100 100 100 82 80
5 5 3 5 0 58 100 100 100 98 100 100 100 100 100 100 100 100 100 100 100 100 100 100 100 100 100 100 100 100 100 100 100 100 100 100 100 100 100 100 88 99 100 86
5 0 0 0 0 0 40 100 100 100 100 100 100 100 100 100 100 100 100 100 100 100 100 100 100 100 100 100 100 100 100 100 100 100 100 100 100 100 100 100 100 96 100 91
58 0 1 0 0 0 18 83 100 100 100 100 100 100 100 100 100 100 100 100 100 100 100 100 100 100 100 100 100 100 100 100 100 100 100 100 100 100 100 100 100 100 100 100
100 100 30 28 46 49 65 100 100 100 100 100 100 100 100 100 100 100 100 100 100 100 100 100 100 100 100 100 100 100 100 97 95 97 100 98 100 100 74 66 90 100 100 100
100 100 100 100 100 100 100 100 99 100 100 100 100 100 100 100 100 100 100 100 100 100 100 100 100 100 100 100 100 100 97 100 88 100 100 94 100 100 100 100 100 100 100 100
100 100 100 100 100 100 100 100 100 100 100 100 100 100 100 100 100 100 100 100 100 100 100 100 100 100 100 96 92 100 100 98 100 100 100 99 100 100 100 100 100 100 100 100
100 100 100 100 100 100 100 100 100 100 100 100 100 100 100 100 100 100 100 100 100 100 100 100 93 100 100 100 97 98 100 100 99 94 97 100 100 100 100 100 100 100 100 100
100 100 100 100 100 100 100 100 100 100 100 100 100 100 100 100 100 100 100 100 100 100 100 92 84 98 100 89 82 93 85 91 100 100 99 84 100 100 100 100 100 100 100 100
100 100 100 100 100 100 100 100 100 100 100 100 100 100 100 100 100 100 100 100 100 100 100 99 100 100 97 77 87 97 100 100 100 100 100 100 100 100 100 100 100 100 100 100
100 100 100 100 100 100 100 100 100 100 100 100 100 100 100 100 100 100 100 100 100 100 100 100 100 100 99 95 100 100 98 92 99 96 90 100 100 100 100 100 100 100 100 100
100 100 100 100 100 100 100 100 100 100 100 100 100 100 100 100 100 100 100 100 100 100 100 100 100 100 100 100 100 100 100 98 60 77 100 100 100 100 100 100 100 100 100 100

GFSNGP_prec_cloud_099.txt.gz
Cloud_Cover
32 100 100 100 100 100 100 100 100 100 100 100 100 96 100 100 100 95 98 71 78 41 5 33 5 1 17 11 0 0 0 0 0 0 7 18 37 43 46 48 28 35 30 29
78 98 43 100 100 100 100 100 100 100 84 65 100 85 97 84 100 100 99 100 100 93 51 45 8 16 5 52 23 5 4 0 0 0 1 15 10 15 44 60 85 88 100 96
79 75 98 6 100 100 100 100 100 100 100 100 86 100 100 100 100 100 100 86 99 100 92 88 81 100 24 100 96 100 25 5 5 3 13 40 70 100 100 100 100 100 100 100
5 96 54 96 39 79 100 100 100 100 7 97 99 54 97 100 90 100 100 100 99 58 74 85 98 100 100 84 90 100 100 100 22 27 41 82 100 100 100 100 100 100 100 100
62 8 21 90 89 98 98 99 100 100 74 100 100 97 98 100 100 92 65 100 100 100 99 85 98 94 80 80 96 17 96 100 100 100 100 100 100 100 100 100 100 100 100 100
95 100 92 44 72 35 99 100 70 100 98 100 100 100 100 100 86 5 30 62 24 9 13 100 100 100 72 54 75 98 100 100 100 100 100 100 100 100 100 100 100 100 100 100
98 100 87 5 47 43 100 56 85 87 98 9 95 70 100 100 100 100 100 100 99 100 100 100 100 100 100 100 100 100 100 100 100 100 100 100 100 100 100 100 100 100 100 100
100 100 99 88 69 19 50 43 60 95 98 89 46 100 100 92 100 100 100 100 100 100 100 99 100 100 100 100 100 100 100 100 100 100 100 100 100 100 100 100 100 100 100 100
82 71 71 88 57 96 5 5 52 69 89 98 88 100 40 100 100 100 100 100 100 100 100 100 100 100 100 100 100 100 100 100 100 100 100 100 100 100 100 100 100 100 100 100
75 70 100 100 74 24 100 100 96 100 22 84 100 100 100 100 100 100 100 100 100 100 100 100 100 100 100 100 100 100 100 100 100 100 100 100 100 100 100 100 100 100 100 100
100 100 100 95 100 100 100 100 100 97 100 53 100 100 100 100 100 100 100 100 100 100 100 100 100 100 100 100 100 100 100 100 100 100 100 100 100 100 100 100 100 100 100 100
100 100 100 100 100 100 100 100 100 100 100 100 100 100 100 100 100 100 100 100 100 100 100 100 100 100 100 100 100 100 100 100 100 100 100 100 100 100 100 100 100 100 100 100
100 100 100 100 100 100 100 100 100 100 100 100 100 100 100 100 100 100 100 100 100 100 100 100 100 100 100 100 100 100 100 100 100 100 100 100 100 100 100 100 100 100 100 100
97 100 100 100 100 100 100 100 100 100 100 100 100 100 100 100 100 100 100 100 100 100 100 100 100 100 100 100 100 100 100 100 100 100 100 100 100 100 100 100 100 100 100 100
69 100 100 100 100 100 100 99 100 100 100 100 100 100 100 100 100 100 100 100 100 100 100 100 100 100 100 100 100 100 100 100 100 100 100 100 100 100 100 100 100 100 100 100
54 100 74 97 100 100 100 13 76 74 100 100 100 100 100 100 100 100 100 100 100 100 100 100 100 100 100 100 100 100 100 100 100 100 100 100 100 100 100 100 100 100 100 100
11 24 5 75 98 11 78 100 49 76 100 100 100 100 100 100 100 100 100 100 100 100 100 100 100 100 100 100 100 100 100 100 100 100 100 100 100 100 100 100 100 100 100 98
36 27 46 32 5 18 0 5 100 77 100 100 100 100 100 100 100 100 100 100 100 100 100 100 100 100 100 100 100 100 100 100 100 100 100 100 100 100 100 100 100 100 100 94
5 23 60 44 18 45 23 65 96 100 100 100 100 100 100 100 100 100 100 100 100 100 100 100 100 100 100 100 100 100 100 100 100 100 100 100 100 100 100 100 100 100 100 100
79 100 100 100 74 96 100 100 100 100 100 100 100 100 100 100 100 100 100 100 100 100 100 100 100 100 100 100 100 100 100 100 100 100 100 100 99 100 100 100 100 100 100 100
100 100 100 100 100 100 100 100 100 100 100 100 100 100 100 100 100 100 100 100 100 100 100 100 100 100 100 100 100 100 100 100 100 100 100 100 100 100 100 100 100 100 100 100
100 100 100 100 100 100 100 100 100 100 100 100 100 100 100 100 100 100 100 100 100 100 100 100 100 100 100 100 100 100 100 100 100 100 100 100 100 100 100 100 100 100 100 100
100 100 100 100 100 100 100 100 100 100 100 100 100 100 100 100 100 100 100 100 100 100 100 100 100 100 100 100 100 100 100 100 100 100 100 100 100 100 100 100 100 100 100 100
100 100 100 100 100 100 100 100 100 100 100 100 100 100 100 100 100 100 100 100 100 100 100 100 100 100 100 100 100 100 100 100 100 100 100 100 100 100 100 100 100 100 100 100
100 100 100 100 100 100 100 100 100 100 100 100 100 100 100 100 100 100 100 100 100 100 100 100 98 100 100 100 100 100 100 100 100 100 100 100 100 100 100 100 100 100 100 100
100 100 100 100 100 100 100 100 100 100 100 100 100 100 100 100 100 100 100 100 100 100 100 100 100 100 100 100 100 100 100 100 100 99 100 100 100 100 100 100 100 100 100 100
100 100 100 100 100 100 100 100 100 100 100 100 100 100 100 100 100 100 100 100 100 100 100 100 100 100 100 100 100 100 100 100 79 95 100 100 100 100 100 100 100 100 100 100

GFSNGP_prec_cloud_105.txt.gz
Cloud_Cover
0 0 0 5 100 100 100 100 100 100 100 100 100 100 100 100 100 100 100 100 98 100 100 56 79 28 52 6 5 5 0 0 6 79 0 0 14 89 100 100 100 100 100 100
0 0 0 4 98 100 91 72 100 100 100 100 100 100 100 100 100 100 100 78 100 100 99 100 97 48 47 26 18 5 0 0 0 0 0 1 0 0 10 88 100 100 100 100
4 1 0 0 43 11 18 97 100 100 100 100 100 100 100 100 92 54 90 100 100 100 71 100 100 38 88 73 65 5 5 1 1 36 4 2 2 7 22 99 100 100 100 100
3 92 60 0 0 0 5 98 100 100 94 100 100 100 77 100 99 100 100 99 100 100 55 100 100 89 17 43 44 19 5 5 5 15 5 11 88 100 100 100 100 100 100 100
100 98 16 0 100 16 43 53 100 100 100 100 100 100 100 100 100 100 99 87 99 59 93 100 100 79 100 100 100 84 48 45 6 5 23 50 100 100 100 100 100 100 100 100
99 98 5 99 100 100 92 98 100 97 100 100 100 100 75 100 100 100 100 100 100 100 100 100 100 100 97 100 100 99 42 100 100 100 100 100 100 100 100 100 100 100 100 100
94 100 6 100 59 100 100 30 100 100 100 100 100 100 100 75 88 65 93 100 100 100 100 100 93 68 100 98 100 100 100 100 100 100 100 100 100 100 100 100 100 100 100 100
88 100 99 32 4 43 49 10 21 100 100 100 100 100 100 100 100 99 100 100 100 100 100 100 97 99 100 100 100 100 100 100 100 100 100 100 100 100 100 100 100 100 100 100
6 99 69 100 92 98 62 5 0 71 100 100 100 100 100 100 100 100 100 100 100 100 100 100 100 100 100 100 100 100 100 100 100 100 100 100 100 100 100 100 100 100 100 100
97 74 49 100 88 98 21 5 4 99 100 100 100 100 100 100 100 100 100 100 100 100 100 100 100 100 100 100 100 100 100 100 100 100 100 100 100 100 100 100 100 100 100 100
100 100 100 100 100 98 51 16 24 99 21 99 100 100 100 100 100 100 100 100 100 100 100 100 100 100 100 100 100 100 100 100 100 100 100 100 100 100 100 100 100 100 100 100
100 100 100 100 79 87 99 90 100 78 100 100 98 100 100 100 100 100 100 100 100 100 100 100 100 100 100 100 100 100 100 100 100 100 100 100 100 100 100 100 100 100 100 100
100 100 80 100 100 84 100 100 99 99 100 86 99 100 100 100 100 100 100 100 100 100 100 100 100 100 100 100 100 100 100 100 100 100 100 100 100 100 100 100 100 100 100 100
100 100 89 100 100 100 100 100 100 100 100 97 100 100 100 100 100 100 100 100 100 100 100 100 100 100 100 100 100 100 100 100 100 100 100 100 100 100 100 100 100 100 100 100
100 100 100 100 100 100 100 100 100 100 98 100 100 100 100 100 100 100 100 100 100 100 100 100 100 100 100 100 100 100 100 100 100 100 100 100 100 100 100 100 100 100 100 100
100 100 100 100 100 100 100 100 97 100 100 100 100 100 100 100 100 100 100 100 100 100 100 100 100 100 100 100 100 100 100 100 100 100 100 100 100 100 100 100 100 100 100 100
100 100 100 100 100 100 100 100 100 100 48 100 100 100 100 100 100 100 100 100 100 100 100 100 100 100 100 100 100 100 100 100 100 100 100 100 100 100 100 100 100 100 100 100
92 100 92 97 100 99 100 100 100 100 100 100 100 100 100 100 100 100 100 100 100 100 100 100 100 100 100 100 100 100 100 100 100 100 100 100 100 100 100 100 100 100 100 100
78 88 62 49 40 25 82 82 96 100 100 100 100 100 100 100 100 100 100 100 100 100 100 100 100 100 100 100 100 100 100 100 100 100 100 100 100 100 100 100 100 100 100 100
100 98 75 77 100 100 100 100 100 100 100 100 100 100 100 100 100 100 100 100 100 100 100 100 100 100 100 100 100 100 100 100 100 100 100 100 100 100 100 100 67 79 55 35
100 99 91 100 100 100 100 100 100 100 100 100 100 100 100 100 100 100 100 100 100 100 100 100 100 100 100 100 100 100 100 100 100 100 100 100 100 100 100 100 100 100 100 100
83 80 85 87 99 100 100 100 100 100 100 100 100 100 100 100 100 100 100 100 100 100 100 100 100 100 100 95 100 100 100 100 100 100 100 100 100 100 100 100 100 100 100 100
61 58 59 69 87 99 100 100 100 100 100 100 100 100 100 100 100 100 100 100 100 100 100 100 100 100 100 100 100 100 100 100 100 100 100 100 100 95 99 100 100 100 88 86
59 60 86 95 83 85 100 100 100 100 100 100 100 100 100 100 100 100 100 100 100 100 100 100 100 100 100 100 100 100 100 100 100 100 98 100 100 100 100 100 87 30 22 63
99 98 100 100 96 99 93 100 100 100 100 100 100 100 100 100 100 100 100 100 100 100 100 100 100 100 100 100 100 100 100 100 100 100 100 100 100 97 74 72 34 84 94 58
100 100 100 100 100 100 100 100 100 100 100 100 100 100 100 100 100 100 100 100 100 100 100 100 100 100 100 100 100 100 100 100 100 100 100 100 100 99 93 99 69 42 34 28
100 100 100 100 100 100 100 100 100 100 100 100 100 100 100 100 100 100 100 100 100 100 100 100 100 100 100 100 100 100 100 100 100 100 100 100 100 100 100 63 14 7 37 16

GFSNGP_prec_cloud_108.txt.gz
Cloud_Cover
0 0 0 0 13 100 100 100 5 89 100 100 100 100 100 100 100 100 100 100 87 100 100 100 78 86 65 36 26 5 18 78 59 9 2 0 16 22 100 100 100 100 100 100
0 0 0 0 0 23 42 100 97 100 100 100 100 100 100 100 100 100 100 100 100 100 100 100 100 100 100 100 89 75 5 5 41 51 67 0 0 2 2 7 99 100 100 100
1 0 1 0 0 0 0 83 100 100 100 100 100 100 100 100 100 100 100 100 100 96 99 100 100 100 100 100 100 72 5 11 5 2 58 15 4 42 73 21 51 86 100 100
5 14 20 0 2 5 9 100 67 94 100 100 100 100 100 100 100 100 100 100 100 100 96 100 100 100 94 100 100 100 97 100 96 24 11 18 75 100 100 92 80 100 100 100
5 7 0 0 68 38 97 100 1 90 100 100 100 100 100 100 100 100 100 100 100 100 96 100 90 95 100 100 100 100 100 100 100 100 98 98 99 100 100 100 100 100 100 100
56 16 81 86 75 100 100 96 79 100 100 100 100 100 100 100 100 100 100 100 100 100 98 100 100 100 100 100 100 100 100 100 100 100 100 100 100 100 100 100 100 100 100 100
24 24 23 100 100 96 100 100 92 100 100 100 100 100 100 100 100 100 100 67 90 93 22 100 100 100 100 100 100 100 100 100 100 100 100 100 100 100 100 100 100 100 100 100
98 94 100 75 100 68 92 100 100 100 100 100 100 100 100 100 100 100 100 47 9 51 51 100 100 100 100 100 100 100 100 100 100 100 100 100 100 100 100 100 100 100 100 100
48 100 82 34 100 100 100 22 11 17 100 100 100 100 100 100 100 100 100 100 96 93 91 100 100 100 100 100 100 100 100 100 100 100 100 100 100 100 100 100 100 100 100 100
50 26 60 90 100 100 100 6 7 39 84 100 100 100 100 100 100 100 100 100 100 100 100 100 100 100 100 100 100 100 100 100 100 100 100 100 100 100 100 100 100 100 100 100
100 100 100 100 100 98 84 84 5 34 6 100 100 100 100 100 100 100 100 100 100 100 100 100 100 100 100 100 100 100 100 100 100 100 100 100 100 100 100 100 100 100 100 100
100 100 100 100 98 100 97 36 7 61 66 73 100 100 100 100 100 100 100 100 100 100 100 100 100 100 100 100 100 100 100 100 100 100 100 100 100 100 100 100 100 100 100 100
100 68 79 95 74 80 98 78 100 98 6 86 100 100 100 100 100 100 100 100 100 100 100 100 100 100 100 100 100 100 100 100 100 100 100 100 100 100 100 100 100 100 100 100
56 100 100 100 100 100 100 74 92 100 62 92 100 99 100 100 100 100 100 100 100 100 100 100 100 100 100 100 100 100 100 100 100 100 100 100 100 100 100 100 100 100 100 100
100 100 100 100 100 100 99 97 100 100 100 100 100 93 95 99 100 100 100 100 100 100 100 100 100 100 100 100 100 100 100 100 100 100 100 100 100 100 100 100 100 100 100 100
100 100 100 94 100 100 100 99 100 100 93 79 99 94 98 100 100 100 93 89 94 100 100 100 100 100 100 100 100 100 100 100 100 100 100 100 100 100 100 100 100 100 100 100
100 100 100 100 100 100 100 100 100 100 100 100 100 92 100 100 100 100 100 100 100 100 100 100 100 100 100 100 100 100 100 100 100 100 100 100 100 100 100 100 100 100 100 100
100 100 100 100 100 100 100 100 72 98 100 100 100 100 100 100 100 100 100 100 100 100 100 100 100 100 100 100 100 100 100 100 100 100 100 100 100 100 100 100 100 100 100 100
100 100 99 100 100 100 100 100 100 100 100 100 100 100 100 100 100 100 100 100 99 100 100 100 100 100 100 100 100 100 100 100 100 100 100 100 100 100 100 100 100 100 100 100
70 80 91 83 84 99 100 100 100 100 100 100 100 100 100 100 100 100 100 100 100 100 100 100 100 100 100 100 100 100 100 100 100 100 100 100 100 100 100 100 100 100 100 100
79 96 89 99 92 84 100 100 100 100 100 100 100 100 100 100 100 100 100 100 100 100 100 100 100 100 100 100 100 100 100 100 100 100 100 100 100 100 100 100 100 100 99 95
79 94 90 76 79 94 87 98 100 100 100 100 100 100 100 100 100 100 100 100 100 100 100 100 100 100 100 100 100 100 100 100 100 100 100 100 100 100 100 100 100 100 100 100
96 89 85 86 82 99 93 99 100 99 100 100 100 100 100 100 100 100 100 100 100 100 100 100 100 100 100 100 100 100 100 100 100 100 100 100 100 100 100 100 100 100 92 100
98 77 87 88 86 90 87 100 94 100 99 100 100 100 100 100 100 100 100 100 100 100 100 100 99 100 100 100 100 100 100 100 100 100 100 100 100 100 100 100 100 100 100 100
91 100 100 83 70 100 88 100 99 100 100 100 100 100 100 100 100 100 100 100 100 100 100 99 100 100 100 100 100 100 100 100 100 100 100 100 100 100 100 100 100 100 100 99
93 83 100 100 77 84 88 79 100 100 100 100 100 100 100 100 100 100 100 100 100 100 100 100 100 100 100 100 97 98 100 100 100 100 100 100 100 100 100 100 100 98 78 92
100 94 99 100 100 83 88 95 95 100 100 100 100 100 100 100 100 100 100 100 100 100 100 100 100 100 100 100 95 100 100 95 100 100 100 100 100 100 100 100 100 77 79 88

GFSNGP_prec_cloud_111.txt.gz
Cloud_Cover
5 4 6 6 5 1 26 5 95 90 19 1 1 100 98 100 100 100 100 100 100 100 100 100 100 100 100 90 100 100 65 33 100 100 100 93 100 75 100 98 100 100 100 100
100 15 3 0 0 0 0 0 67 35 2 6 16 100 100 100 100 100 100 100 100 100 100 100 100 100 100 78 82 100 56 100 100 100 100 100 88 79 77 100 87 98 100 100
22 0 5 2 0 0 0 0 2 43 2 51 15 100 100 100 100 100 100 100 100 100 100 100 100 100 100 100 100 46 51 93 100 98 98 45 47 68 100 99 100 100 100 100
4 0 2 0 0 0 0 0 0 3 0 48 100 100 100 100 100 100 100 100 100 100 100 100 100 100 100 100 100 100 96 93 100 100 81 85 76 87 100 100 100 100 100 100
5 3 0 0 3 4 25 18 5 4 15 100 100 100 100 100 100 100 100 100 100 100 100 100 100 100 100 100 100 100 100 100 76 96 100 100 100 100 100 100 100 100 100 100
78 14 3 0 4 86 82 82 38 3 62 100 100 100 100 100 100 100 100 100 100 100 99 100 100 100 100 100 100 100 100 100 100 100 100 100 100 100 100 100 100 100 100 100
100 32 2 46 93 42 70 100 100 98 100 100 100 100 100 100 100 100 100 100 100 100 83 100 100 100 100 100 100 100 100 100 100 100 100 100 100 100 100 100 100 100 100 100
100 90 45 12 8 82 99 100 100 100 100 100 100 100 100 100 100 88 100 100 100 100 100 100 100 100 100 100 100 100 100 100 100 100 100 100 100 100 100 100 100 100 100 100
100 100 100 99 98 100 100 65 100 100 100 100 100 100 100 100 100 100 95 100 100 100 100 100 100 100 100 100 100 100 100 100 100 100 100 100 100 100 100 100 100 100 100 100
83 87 100 98 100 100 100 100 100 100 100 100 100 100 100 100 100 100 100 100 100 100 100 100 100 100 100 100 100 100 100 100 100 100 100 100 100 100 100 100 100 100 100 100
100 100 100 98 100 100 97 100 90 76 72 100 100 100 100 100 100 100 100 100 100 100 100 100 100 100 100 100 100 100 100 100 100 100 100 100 100 100 100 100 100 100 100 100
100 100 100 100 100 100 100 100 98 91 96 100 100 100 100 100 100 100 100 100 100 100 100 100 100 100 100 100 100 100 100 100 100 100 100 100 100 100 100 100 100 100 100 100
100 100 100 100 100 100 97 84 100 99 98 100 100 100 100 100 100 100 100 100 100 100 100 100 100 100 100 100 100 100 100 100 100 100 100 100 100 100 100 100 100 100 100 100
100 100 94 100 100 100 100 100 86 100 100 100 100 100 100 100 100 95 100 100 100 100 100 100 100 100 100 100 100 100 100 100 100 100 100 100 100 100 100 100 100 100 100 100
96 94 100 95 95 94 100 100 92 100 100 78 86 92 100 100 100 100 100 98 100 100 100 100 100 100 100 100 100 100 100 100 100 100 100 100 100 100 100 100 100 100 100 100
100 100 100 100 100 100 100 100 100 77 100 100 92 100 100 100 100 100 98 68 92 98 100 100 100 100 100 100 100 100 100 100 100 100 100 100 100 100 100 100 100 100 100 100
100 100 99 100 100 100 100 100 100 100 100 100 100 100 100 100 94 100 100 100 95 100 100 100 100 100 100 100 100 100 100 100 100 100 100 100 100 100 100 100 100 100 100 100
100 100 100 100 100 100 100 59 100 100 100 100 100 100 100 100 100 100 100 100 100 98 100 100 100 100 100 100 100 100 100 100 100 100 100 100 100 100 100 100 100 100 100 100
88 98 100 100 100 100 100 100 100 100 100 100 100 100 100 100 100 100 98 94 100 98 100 100 100 100 100 100 100 100 100 100 100 100 100 100 100 100 100 100 100 100 100 100
75 47 96 100 90 93 100 100 100 100 100 100 100 100 100 100 100 100 100 99 100 100 100 100 100 100 100 100 100 100 100 100 100 100 100 100 100 100 100 100 100 100 100 100
34 56 93 99 90 82 88 82 86 97 100 100 100 100 100 100 100 100 100 100 100 100 100 100 100 100 100 100 100 100 100 100 100 100 100 100 100 100 100 100 100 100 100 100
74 88 91 74 70 81 91 76 84 86 94 99 97 100 100 100 100 98 99 100 100 100 100 100 100 100 100 100 99 100 100 100 100 100 100 100 97 99 100 100 100 100 100 100
99 96 90 92 90 95 73 71 80 95 86 94 93 95 93 100 100 99 92 99 100 100 100 100 100 100 100 100 100 99 94 89 100 100 100 100 100 100 92 98 93 88 97 94
81 70 88 78 81 73 69 97 85 91 97 100 99 98 93 90 100 100 100 97 100 100 100 100 100 100 100 100 100 100 100 100 100 100 100 100 100 96 85 60 58 74 93 84
56 57 6 24 38 99 86 87 75 87 84 100 100 100 100 98 100 100 100 100 100 100 100 100 100 100 100 98 100 100 100 98 87 96 95 92 82 94 82 84 90 100 100 100
88 87 84 72 86 70 92 74 84 84 87 100 100 100 100 100 100 100 100 100 100 100 100 100 100 99 100 100 100 100 100 99 99 91 95 97 99 100 100 100 100 100 100 100
84 68 73 84 79 81 94 100 92 91 91 96 100 100 100 100 100 100 100 100 100 100 100 100 100 96 94 99 92 84 99 99 100 100 100 100 100 100 100 100 100 100 100 100

GFSNGP_prec_cloud_114.txt.gz
Cloud_Cover
100 100 100 98 100 100 98 26 4 2 0 6 4 67 9 0 0 0 90 100 100 100 100 93 100 100 100 100 100 100 69 90 100 100 100 100 100 100 100 100 100 100 100 100
100 100 100 100 100 100 100 3 0 0 0 0 0 96 5 5 2 2 100 100 100 100 100 100 100 100 100 100 100 97 83 100 100 100 100 100 100 100 100 100 100 100 100 100
95 100 100 7 24 20 0 0 0 0 0 0 1 99 18 59 30 96 100 100 100 100 100 100 100 100 100 100 100 100 95 100 100 100 100 100 100 100 100 100 100 100 100 100
5 6 16 2 0 0 0 0 0 0 0 0 4 64 62 100 100 100 100 100 100 100 100 100 100 100 100 100 100 100 100 100 100 100 100 100 100 100 100 100 100 100 100 100
5 4 0 0 0 0 4 2 0 5 3 4 48 100 29 100 100 100 100 100 100 100 100 100 100 100 100 100 100 100 100 98 97 94 100 100 100 100 100 100 100 100 100 100
100 68 60 1 0 4 5 11 10 95 14 2 69 100 100 100 100 100 100 100 100 100 100 100 100 100 100 100 100 100 100 100 100 100 100 100 100 100 100 100 100 100 100 100
100 100 82 0 0 89 100 100 100 99 98 100 96 100 92 100 100 100 100 100 100 100 100 100 100 100 100 100 100 100 100 100 100 100 100 100 100 100 100 100 100 100 100 100
100 100 68 9 24 33 84 100 100 100 100 99 95 100 100 100 100 100 100 100 100 100 100 100 100 100 100 100 100 100 100 100 100 100 100 100 100 100 100 100 100 100 100 100
100 83 8 12 90 98 75 100 100 100 100 100 100 100 100 100 100 100 100 100 100 100 100 100 100 100 100 100 100 100 100 100 100 100 100 100 100 100 100 100 100 100 100 100
100 100 100 93 87 100 100 100 100 96 100 100 100 100 100 100 100 100 100 100 100 100 100 100 100 100 100 100 100 100 100 100 100 100 100 100 100 100 100 100 100 100 100 100
100 100 92 96 100 100 96 94 100 100 90 100 98 100 100 100 100 100 100 100 100 100 100 100 100 100 100 100 100 100 100 100 100 100 100 100 100 100 100 100 100 100 100 100
100 100 100 100 100 100 100 100 100 100 100 100 100 100 100 100 100 100 100 100 100 100 100 100 100 100 100 100 100 100 100 100 100 100 100 100 100 100 100 100 100 100 100 100
100 100 100 100 100 100 100 100 100 100 100 100 86 100 100 100 100 100 100 100 100 78 100 100 100 100 100 100 100 100 100 100 100 100 100 100 100 100 100 100 100 100 100 100
100 100 100 100 100 100 100 100 100 100 100 100 100 100 100 100 100 100 100 100 100 100 99 100 100 100 100 100 100 100 100 100 100 100 100 100 100 100 100 100 100 100 100 100
100 100 100 100 100 100 100 100 95 98 100 100 100 100 100 100 100 100 100 100 100 96 87 100 100 100 100 100 100 100 100 100 100 100 100 100 100 100 100 100 100 100 100 100
100 100 100 100 100 100 100 100 99 100 100 100 100 100 100 100 100 100 100 100 100 100 100 100 97 100 100 100 100 100 100 100 100 100 100 100 100 100 100 100 100 100 100 100
100 100 100 91 100 100 100 100 100 100 100 100 100 100 100 100 100 100 100 100 100 100 100 100 100 100 100 100 100 100 100 100 100 100 100 100 100 100 100 100 100 100 100 100
100 100 100 100 100 100 100 100 100 100 100 100 100 100 100 100 100 100 100 99 100 100 100 100 100 100 100 100 100 100 100 100 100 100 100 100 100 100 100 100 100 100 100 100
100 100 100 100 100 100 100 100 99 100 100 100 100 100 100 100 100 100 100 100 95 89 100 100 100 100 100 100 100 100 100 100 100 100 100 100 100 100 100 100 100 100 100 100
13 26 73 98 97 98 99 100 100 100 100 100 100 100 100 100 100 100 100 100 100 100 100 100 100 100 100 100 100 100 100 100 100 100 100 100 100 100 100 100 100 100 100 100
42 65 81 96 85 82 92 92 92 93 91 94 98 100 100 100 100 100 100 100 100 100 100 100 99 100 100 99 100 100 100 100 100 100 100 100 100 100 100 100 100 100 100 100
68 95 96 78 72 79 95 88 89 87 86 85 93 99 100 99 100 99 100 95 100 100 97 100 100 100 100 100 100 100 99 100 99 100 100 100 100 100 100 100 100 100 100 100
100 98 91 89 93 96 77 76 89 85 74 88 87 87 98 100 100 100 100 100 100 100 100 100 100 100 100 100 100 100 100 100 100 100 100 100 100 100 100 100 100 100 100 100
58 59 79 63 84 72 74 98 81 83 74 82 90 92 88 92 99 100 100 100 100 100 100 100 100 100 100 100 100 100 100 100 100 100 100 100 100 100 100 100 93 86 99 100
60 55 43 45 66 100 84 84 85 86 86 97 96 98 100 98 99 100 100 100 100 100 100 100 100 99 100 100 100 100 100 100 100 100 100 100 100 100 100 100 100 100 100 100
93 100 100 98 92 87 86 84 88 86 89 88 99 100 100 100 100 100 100 100 100 100 100 100 100 100 100 100 100 100 100 100 100 100 100 100 100 100 100 100 100 100 100 100
85 82 74 80 83 80 90 99 98 96 98 100 100 100 100 100 100 100 100 100 100 100 100 100 100 100 100 100 100 100 100 100 100 100 100 100 100 100 100 100 100 100 100 100

GFSNGP_prec_cloud_117.txt.gz
Cloud_Cover
100 100 100 100 92 48 24 14 29 5 1 5 5 5 36 88 14 6 47 79 87 4 86 100 100 100 100 100 100 100 100 100 87 54 42 100 100 100 100 100 100 100 100 100
18 100 100 100 100 100 88 100 3 0 0 3 0 1 5 5 0 5 31 5 13 16 100 100 100 100 100 100 100 100 100 100 100 66 99 100 100 100 100 100 100 100 100 100
1 79 100 52 100 91 45 25 59 2 0 0 0 0 0 5 8 99 19 42 30 100 100 100 100 100 100 100 100 100 100 100 100 97 100 100 100 100 100 100 100 100 100 100
5 7 42 0 10 92 88 33 81 0 0 0 0 0 0 0 12 64 44 41 69 96 100 100 100 100 100 100 100 100 100 100 100 100 100 100 100 100 100 100 100 100 100 100
71 14 2 0 0 0 0 0 0 0 3 3 0 0 3 44 14 73 46 39 100 100 100 100 100 100 100 100 100 100 100 100 100 100 100 100 100 100 100 100 100 100 100 100
100 95 96 100 51 0 0 2 3 98 96 100 28 1 4 65 98 100 64 98 100 100 100 100 100 100 100 100 100 100 100 100 100 100 100 100 100 100 100 100 100 100 100 100
100 100 97 100 53 11 17 99 100 100 100 100 98 89 87 100 100 100 100 100 100 100 100 100 100 100 100 100 100 100 100 100 100 100 100 100 100 100 100 100 100 100 100 100
100 100 97 24 78 62 100 100 100 100 100 100 100 100 100 84 100 100 100 100 100 100 100 100 100 100 100 100 100 100 100 100 100 100 100 100 100 100 100 100 100 100 100 100
100 100 14 16 15 100 100 100 100 100 100 100 100 100 100 100 100 100 100 100 100 100 100 100 100 100 100 100 100 100 100 100 100 100 100 100 100 100 100 100 100 100 100 100
100 100 100 100 100 100 100 100 100 100 99 96 100 100 100 100 100 100 100 100 100 100 100 100 100 100 100 100 100 100 100 100 100 100 100 100 100 100 100 100 100 100 100 100
100 100 100 100 100 100 100 100 100 100 98 100 100 100 100 100 100 100 100 100 100 100 100 100 100 100 100 100 100 100 100 100 100 100 100 100 100 100 100 100 100 100 100 100
100 100 100 100 100 100 100 100 100 98 95 100 100 100 100 100 100 100 100 100 100 100 100 100 100 100 100 100 100 100 100 100 100 100 100 100 100 100 100 100 100 100 100 100
100 100 100 100 100 100 100 100 100 100 100 100 84 100 100 100 100 100 100 100 100 100 100 100 100 100 100 100 100 100 100 100 100 100 100 100 100 100 100 100 100 100 100 100
100 100 100 100 100 100 98 100 100 100 96 100 100 100 100 100 100 100 100 100 100 96 100 100 100 100 100 100 100 100 100 100 100 100 100 100 100 100 100 100 100 100 100 100
85 100 100 100 100 100 100 100 100 100 100 100 100 100 100 100 100 100 100 100 100 93 90 95 92 100 100 100 100 100 100 100 100 100 100 100 100 100 100 100 100 100 100 100
100 100 100 100 100 100 100 100 100 100 100 100 100 100 100 100 100 100 100 100 100 100 100 100 99 100 100 99 100 100 100 100 100 100 100 100 100 100 100 100 100 100 100 100
93 97 87 100 100 100 100 100 100 100 100 100 100 100 100 100 100 100 99 100 100 100 100 100 100 100 100 100 100 100 100 100 100 100 100 100 100 100 100 100 100 100 100 100
100 100 100 100 100 100 92 100 100 100 100 100 100 100 100 100 100 100 100 100 100 83 100 100 100 100 100 100 100 100 100 100 100 100 100 100 100 100 100 100 100 100 100 100
100 100 100 100 100 100 100 100 100 100 100 100 90 100 100 100 100 100 100 100 100 100 100 100 100 100 100 100 100 100 100 100 100 100 100 100 100 100 100 100 100 100 100 100
72 73 76 94 99 100 98 100 99 91 100 84 99 100 100 100 100 100 100 100 100 100 100 100 100 100 100 100 100 100 100 100 100 100 100 100 100 100 100 100 100 100 100 100
15 10 59 80 90 90 95 100 79 84 85 78 79 69 88 100 83 84 99 100 100 100 100 100 100 100 100 100 100 100 100 100 100 100 100 100 100 100 100 100 100 100 100 100
73 84 84 68 68 68 94 98 93 76 76 89 87 88 74 100 95 100 100 100 100 99 100 100 100 100 100 100 100 100 100 100 100 100 100 100 100 100 100 100 100 100 100 100
62 66 62 69 90 96 84 86 76 87 81 98 99 100 100 100 100 100 100 100 100 99 100 100 100 100 100 100 100 100 100 100 100 100 100 100 100 100 100 100 100 100 100 100
45 40 28 41 5 7 72 100 99 99 99 100 100 100 100 100 100 100 100 92 100 100 100 100 100 100 100 100 100 100 100 100 100 100 100 100 100 100 100 100 100 100 100 100
61 55 18 56 89 92 95 100 90 100 97 100 100 100 100 100 100 100 100 100 100 100 100 100 100 100 100 100 100 100 100 100 100 100 100 99 100 100 100 100 100 100 100 100
97 90 88 97 99 99 100 100 100 100 100 100 100 100 100 100 100 100 100 100 100 100 100 100 99 100 99 100 100 100 100 100 100 95 88 86 81 90 99 100 100 98 100 95
99 100 100 100 100 100 100 98 100 100 100 100 100 100 100 100 100 100 100 100 100 100 100 100 98 100 100 100 100 100 100 100 100 100 100 100 100 100 100 87 85 78 70 67

GFSNGP_prec_cloud_120.txt.gz
Cloud_Cover
100 14 100 99 100 100 100 100 57 60 44 100 100 71 5 5 5 12 25 5 6 5 21 35 24 31 93 6 100 100 100 100 100 100 100 100 100 47 85 68 93 100 100 99
84 5 55 100 98 100 100 100 99 91 11 15 5 12 42 5 5 5 5 5 18 100 100 96 25 15 100 17 100 100 100 100 100 100 100 100 90 58 100 100 100 100 100 100
100 100 96 33 3 100 100 54 47 8 1 0 0 1 5 5 5 5 14 93 46 100 100 96 38 37 100 100 100 100 100 100 100 100 100 100 92 92 100 100 100 100 100 100
98 98 92 5 5 47 100 100 96 3 0 0 0 0 3 5 5 13 100 55 27 28 37 58 60 76 80 100 100 100 100 100 100 100 100 100 100 100 100 100 100 100 100 100
100 100 99 79 17 1 7 37 15 0 4 0 5 5 5 65 94 98 64 36 47 59 58 64 93 93 100 100 100 100 100 100 100 100 100 100 100 100 100 100 100 100 100 100
100 100 100 100 96 98 12 2 9 17 66 100 100 62 97 100 100 96 81 68 61 67 83 100 100 100 100 100 100 100 100 100 100 100 100 100 100 100 100 100 100 100 100 100
100 100 100 100 84 34 98 57 44 83 100 100 100 100 100 100 100 100 100 100 89 98 100 100 100 100 100 100 100 100 100 100 100 100 100 100 100 100 100 100 100 100 100 100
100 100 100 68 76 100 100 100 100 100 100 100 100 100 100 100 100 100 100 100 90 100 100 100 100 100 100 100 100 100 100 100 100 100 100 100 100 100 100 100 100 100 100 100
100 100 100 100 100 100 100 100 100 100 100 100 100 100 100 100 100 100 100 99 100 100 100 100 100 100 100 100 100 100 100 100 100 100 100 100 100 100 100 100 100 100 100 100
100 94 100 100 100 100 100 100 100 100 100 100 100 100 100 100 100 100 100 100 100 100 100 100 100 100 100 100 100 100 100 100 100 100 100 100 100 100 100 100 100 100 100 100
100 100 100 100 100 100 100 100 100 100 99 100 100 100 99 100 100 100 100 100 100 100 100 100 100 100 100 100 100 100 100 100 100 100 100 100 100 100 100 100 100 100 100 100
100 100 100 100 100 100 100 100 100 99 93 80 100 100 100 100 100 100 100 100 100 100 100 100 100 100 100 100 100 100 100 100 100 100 100 100 100 100 100 100 100 100 100 100
100 95 100 100 100 100 100 100 100 100 100 99 96 100 100 100 100 100 100 100 100 100 100 100 100 100 100 100 100 100 100 100 100 100 100 100 100 100 100 100 100 100 100 100
100 100 100 100 100 100 100 100 99 100 100 100 100 100 100 100 100 100 100 100 100 100 100 100 100 100 100 100 100 100 100 100 100 100 100 100 100 100 100 100 100 100 100 100
100 100 100 100 99 100 100 82 94 100 100 100 100 100 100 100 100 100 100 100 100 100 100 100 100 100 100 100 100 100 100 100 100 100 100 100 100 100 100 100 100 100 100 100
89 82 90 84 94 93 100 100 100 100 100 100 100 100 100 100 100 100 100 100 100 100 100 100 100 100 100 100 100 100 100 100 100 100 100 100 100 100 100 100 100 100 100 100
55 90 91 83 100 100 99 100 100 100 100 100 100 99 98 100 100 100 100 100 100 100 100 100 100 100 100 100 100 100 100 100 100 100 100 100 100 100 100 100 100 100 100 100
48 72 98 96 100 99 100 100 100 100 100 100 100 100 100 100 100 100 100 100 100 100 100 100 100 100 100 100 100 100 100 100 100 100 100 100 100 100 100 100 100 100 100 100
100 100 100 100 100 100 100 100 100 100 100 100 100 100 100 100 100 100 100 100 100 100 100 100 100 100 100 100 100 100 100 100 100 100 100 100 100 100 100 100 100 100 100 100
100 100 100 73 86 100 100 100 100 100 98 100 100 100 100 100 100 100 100 100 100 100 100 100 100 100 100 100 100 100 100 100 100 100 100 100 100 100 100 100 100 100 100 100
30 5 5 6 66 96 100 100 100 100 100 100 100 100 100 100 100 100 100 100 100 100 100 100 100 100 100 100 100 100 100 100 100 100 100 100 99 100 100 100 100 100 100 100
74 65 80 85 95 100 100 100 100 100 100 100 100 100 100 100 100 99 99 100 100 100 100 100 98 96 95 98 100 100 100 100 100 100 94 87 83 98 100 100 100 100 100 100
81 87 92 76 98 100 100 100 100 100 100 100 100 100 100 100 100 100 100 100 100 100 100 100 100 100 100 100 100 100 100 100 100 100 98 100 100 100 100 100 100 100 100 100
87 98 94 83 74 100 100 100 100 100 100 100 100 100 100 100 100 100 100 100 100 100 100 100 100 100 100 100 100 100 100 100 100 99 99 100 100 100 100 100 100 100 100 100
100 99 100 99 100 100 100 100 98 100 100 100 100 100 100 100 100 100 100 100 100 100 100 100 100 100 100 100 100 100 100 100 99 91 88 98 99 100 100 100 100 100 100 100
100 100 98 100 100 100 100 100 100 100 100 100 100 100 100 100 100 100 100 100 100 100 100 100 100 100 100 100 100 100 87 100 93 99 100 99 100 100 100 98 98 100 100 100
100 76 100 100 100 100 100 99 100 100 98 100 100 100 100 100 100 100 100 100 100 100 100 100 100 100 100 100 96 100 100 97 100 100 100 100 100 100 100 100 100 100 100 99

GFSNGP_prec_cloud_123.txt.gz
Cloud_Cover
97 10 96 100 100 100 100 100 100 100 100 100 100 100 100 99 11 100 100 90 25 9 86 100 100 100 100 66 75 98 24 100 100 100 100 100 100 100 100 100 100 90 87 83
100 100 100 100 100 100 100 100 100 100 100 100 100 100 30 7 2 25 65 30 7 67 63 100 91 88 70 42 11 80 93 100 100 100 100 100 100 100 100 100 98 91 100 100
100 100 96 88 0 56 100 100 100 100 100 100 100 59 13 10 61 54 10 2 9 56 100 94 81 22 9 43 47 93 100 100 100 100 100 100 100 100 100 100 100 100 100 100
100 100 100 100 100 100 97 100 100 100 100 100 100 10 2 5 11 15 15 67 95 100 100 70 58 37 40 61 100 100 99 100 100 100 100 100 100 100 100 100 100 100 100 100
100 100 94 82 100 79 96 73 86 63 20 3 5 5 5 39 72 32 2 90 96 96 60 58 56 93 66 100 100 97 100 100 100 100 100 100 100 100 100 100 100 100 100 100
100 100 100 100 95 100 100 26 50 57 9 10 31 91 35 100 69 39 51 39 49 71 92 99 88 92 61 98 100 80 73 100 100 100 100 100 100 100 100 100 100 100 100 100
100 100 100 100 100 56 99 100 99 57 84 100 100 100 100 100 100 82 100 88 100 94 100 100 100 100 74 99 100 93 96 100 100 100 100 100 100 100 100 100 100 100 100 100
100 100 100 100 14 98 100 100 100 100 100 100 100 100 100 100 97 85 100 97 100 86 100 77 97 100 100 100 100 89 100 99 100 100 100 100 100 100 100 100 100 100 100 100
100 100 100 100 100 100 100 100 100 100 100 100 100 100 100 100 100 100 99 69 65 64 82 100 99 99 100 100 100 100 100 100 100 100 100 100 100 100 100 100 100 100 100 100
100 100 100 100 100 100 100 100 100 100 100 100 100 100 100 100 87 98 94 99 81 54 67 95 100 97 100 100 100 100 100 100 100 100 100 100 100 100 100 100 100 100 100 100
100 100 100 100 100 100 100 100 100 100 100 100 100 100 100 100 100 83 100 100 100 89 96 100 100 100 95 100 100 100 100 100 100 100 100 100 100 100 100 100 100 100 100 100
100 100 100 100 100 100 100 100 100 100 100 100 87 90 100 100 100 98 99 100 100 100 100 100 100 100 100 100 100 100 100 100 100 100 100 100 100 100 100 100 100 100 100 100
100 100 100 100 100 100 100 100 100 99 99 94 100 99 99 100 100 100 100 100 100 100 100 100 100 100 100 100 100 100 100 100 100 100 100 100 100 100 100 100 100 100 100 100
100 100 100 100 100 100 100 100 100 100 100 100 100 99 100 100 100 100 100 100 100 100 100 100 100 100 100 100 100 100 100 100 100 100 100 100 100 100 100 100 100 100 100 100
100 100 100 94 88 86 80 100 100 100 100 100 100 100 100 100 97 100 100 100 100 100 100 100 100 100 100 100 100 100 100 100 100 100 100 100 100 100 100 100 100 100 100 100
83 96 100 86 96 90 85 91 99 100 100 100 100 100 100 100 100 100 100 100 100 100 100 100 100 100 100 100 100 100 100 100 100 100 100 100 100 100 100 100 100 100 100 100
13 28 30 51 38 51 97 91 100 100 100 100 100 100 100 100 100 100 100 100 100 100 100 100 100 100 100 100 100 100 100 100 100 100 100 100 100 100 100 100 100 100 100 100
36 35 40 75 96 59 100 100 99 100 100 100 100 100 100 100 100 100 100 100 100 100 100 100 100 100 100 100 100 100 100 100 100 100 100 100 100 100 100 100 100 100 100 100
100 100 100 100 100 100 100 100 100 100 100 100 100 100 100 100 100 100 100 100 100 100 100 100 100 100 100 100 100 100 100 100 100 100 100 100 100 100 100 100 100 100 100 100
100 100 100 100 77 57 79 100 100 100 100 100 100 100 100 100 98 100 100 100 100 100 100 100 100 100 100 100 100 100 100 100 100 100 100 100 100 100 100 100 100 100 100 100
82 9 7 5 21 98 100 100 100 100 100 100 100 100 100 100 100 100 100 100 100 100 100 100 100 100 100 100 100 100 100 100 100 100 100 100 100 100 100 100 100 100 100 100
97 89 99 85 92 100 100 100 100 100 100 100 100 100 100 100 100 100 100 100 100 99 100 100 100 100 100 100 100 100 100 100 100 100 100 100 100 100 100 100 100 100 100 100
100 100 100 100 100 98 100 100 100 100 100 100 100 100 100 100 100 100 100 100 100 100 100 100 100 100 100 100 100 100 100 100 100 100 100 100 100 100 100 100 100 100 100 100
100 100 100 100 97 100 100 100 100 100 100 100 100 100 100 100 100 100 100 100 100 100 100 100 100 100 100 100 100 100 100 100 100 100 100 100 100 100 100 100 100 100 100 100
100 100 100 99 100 100 100 100 100 100 100 100 100 100 100 100 100 100 100 100 100 100 100 100 100 100 100 100 100 100 100 100 100 100 100 100 100 100 100 100 100 100 100 100
100 100 100 100 100 100 100 100 100 100 100 100 100 100 100 100 100 100 100 100 100 100 100 100 100 100 100 100 100 100 100 100 100 100 100 100 100 100 100 100 100 100 100 100
100 95 100 100 100 100 100 100 100 100 100 100 100 100 100 100 100 100 100 100 100 100 100 100 100 100 100 100 100 100 100 100 100 100 100 100 100 100 100 100 100 100 100 100

GFSNGP_prec_cloud_126.txt.gz
Cloud_Cover
5 22 100 100 100 99 100 100 96 100 100 100 100 100 100 100 66 18 100 100 100 100 100 100 100 100 100 100 100 100 100 100 100 100 100 100 100 100 100 100 100 100 100 100
100 40 57 97 4 9 100 100 100 100 100 100 100 100 100 100 100 23 100 100 100 100 100 100 100 100 100 100 100 100 100 100 100 100 100 100 100 100 100 100 100 100 100 96
100 83 47 4 100 100 30 100 100 100 100 100 100 100 100 100 100 35 86 31 100 100 100 100 100 100 86 99 100 100 100 100 100 100 100 100 100 100 100 100 100 100 100 100
100 98 100 97 85 20 98 56 100 100 100 100 100 100 100 76 99 100 97 75 36 29 99 100 100 100 97 53 98 100 100 100 100 94 100 100 100 100 100 100 100 100 100 100
88 97 100 18 91 90 26 47 100 100 100 100 89 99 26 98 43 100 100 81 39 5 10 41 8 54 93 80 100 99 100 100 100 100 100 100 100 100 100 100 100 100 100 100
90 100 100 100 100 94 95 68 100 100 100 100 100 100 65 100 100 100 97 100 49 22 32 36 66 77 100 100 100 100 100 93 95 100 100 100 100 100 100 100 100 100 100 100
100 100 100 100 74 28 87 100 100 100 100 100 100 100 100 100 100 98 90 61 50 6 20 42 18 11 82 100 100 100 96 81 98 98 100 100 100 100 100 100 100 100 100 100
100 100 100 100 68 100 100 100 100 100 100 100 100 100 100 100 100 100 65 23 65 23 26 88 51 43 27 92 100 100 100 91 100 100 100 100 100 100 100 100 100 100 100 100
100 100 100 100 100 100 100 100 100 100 100 100 100 100 100 100 99 97 95 74 77 64 39 61 99 79 99 84 100 100 100 100 100 100 100 100 100 100 100 100 100 100 100 100
100 100 100 100 100 100 100 100 100 100 100 100 100 100 100 100 100 100 71 71 68 72 72 92 80 95 66 98 100 100 100 100 100 100 100 100 100 100 100 100 100 100 100 100
100 100 100 100 100 100 100 100 100 100 100 100 100 100 100 91 100 100 95 84 88 98 100 100 99 75 100 99 100 100 100 100 100 100 100 100 100 100 100 100 100 100 100 100
100 100 100 100 100 100 100 100 100 100 95 92 100 98 98 100 98 97 100 100 100 100 100 100 100 100 100 100 100 100 100 100 100 100 100 100 100 100 100 100 100 100 100 100
100 100 100 100 100 100 100 100 100 99 100 100 100 100 100 100 100 100 100 100 99 96 100 100 100 100 100 100 100 100 100 100 100 100 100 100 100 100 100 100 100 100 100 100
100 100 100 100 100 100 100 100 100 100 100 100 100 100 100 100 100 100 100 96 100 100 100 100 100 100 100 100 100 100 100 100 100 100 100 100 100 100 100 100 100 100 100 100
100 100 100 100 100 96 92 88 95 100 100 100 100 100 100 100 100 100 100 97 100 100 100 100 100 100 100 100 100 100 100 100 100 100 100 100 100 100 100 100 100 100 100 100
100 100 100 46 100 43 96 100 98 93 100 100 100 100 100 100 100 100 100 100 100 100 100 100 100 100 100 100 100 100 100 100 100 100 100 100 100 100 100 100 100 100 100 100
47 62 46 18 26 17 75 98 93 96 100 100 100 100 100 100 100 100 100 100 100 100 100 100 100 100 100 100 100 100 100 100 100 100 100 100 100 100 100 100 100 100 100 100
71 45 17 21 9 57 41 86 99 99 100 99 98 100 100 100 100 100 100 100 100 100 100 100 100 100 100 100 100 100 100 100 100 100 100 100 100 100 100 100 100 100 100 100
32 54 100 100 100 100 100 100 100 100 100 99 86 98 96 99 100 100 100 100 100 100 100 100 100 100 100 100 100 100 100 100 100 100 100 100 100 100 100 100 100 100 100 100
98 100 100 100 100 100 99 100 100 100 100 100 84 86 86 82 88 92 100 96 100 100 100 100 100 97 100 100 100 100 100 100 100 100 100 100 100 100 100 100 100 100 100 100
100 100 100 100 89 80 63 88 89 100 98 100 92 82 88 90 100 100 100 95 94 96 91 100 100 100 100 100 100 100 100 100 100 100 100 100 100 100 100 100 100 100 100 100
100 86 99 13 5 49 38 90 5 99 22 100 88 96 100 100 98 98 100 99 100 100 100 100 99 100 97 100 100 100 100 100 100 100 100 100 100 100 100 100 100 100 100 100
98 97 100 88 5 44 98 95 60 91 6 97 28 96 100 100 100 100 100 100 100 100 100 94 90 97 100 100 100 98 91 95 100 100 100 100 100 100 100 100 100 100 100 100
93 18 61 98 99 100 74 100 26 100 90 100 99 74 100 100 100 100 100 100 100 100 100 100 100 100 100 100 100 100 100 100 100 99 99 100 100 100 100 100 100 100 100 100
97 94 100 99 100 100 100 96 99 100 86 100 99 100 91 100 99 99 100 100 100 100 100 100 100 100 100 100 98 99 100 99 100 100 99 100 100 99 100 100 100 100 100 100
27 100 100 100 100 97 99 99 96 100 89 100 98 99 100 100 100 100 100 100 100 100 100 100 100 100 100 94 86 79 95 92 80 98 96 98 99 95 93 91 100 100 100 100
100 100 77 99 100 96 97 100 100 100 93 73 100 100 100 97 98 100 100 100 100 100 100 100 100 100 100 100 100 100 100 100 100 98 91 87 84 81 99 100 97 88 88 96